[[{"header":{"parameterUnit":"m.s-1","parameterCategory":1,"la1":31.0,"la2":29.5877,"lo1":-88.7671,"lo2":-86.6584,"dy":0.0162,"dx":0.0185,"nx":115,"ny":88,"refTime":"2024-05-01T12:00:00:Z","depth":0,"parameterNumber":2,"parameterNumberName":"U-component_of_WINDS"},"data":[0.0,0.0,0.0,0.0,0.0,0.0,0.0,0.0,0.0,0.0,0.0,0.0,0.0,0.0,0.0,0.0,0.0,0.0,0.0,0.0,0.0,0.0,0.0,0.0,0.0,0.0,0.0,0.0,0.0,0.0,0.0,0.0,0.0,0.0,0.0,0.0,0.0,0.0,0.0,0.0,0.0,0.0,0.0,0.0,0.0,0.0,0.0,0.0,0.0,0.0,0.0,0.0,0.0,0.0,0.0,0.0,0.0,0.0,0.0,0.0,0.0,0.0,0.0,0.0,0.0,0.0,0.0,0.0,0.0,0.0,0.0,0.0,0.0,0.0,0.0,0.0,0.0,0.0,0.0,0.0,0.0,0.0,0.0,0.0,0.0,0.0,0.0,0.0,0.0,0.0,0.0,0.0,0.0,0.0,0.0,0.0,0.0,0.0,0.0,0.0,0.0,0.0,0.0,0.0,0.0,0.0,0.0,0.0,0.0,0.0,0.0,0.0,0.0,0.0,0.0,0.0,0.0,0.0,0.0,0.0,0.0,0.0,0.0,0.0,0.0,0.0,0.0,0.0,0.0,0.0,0.0,0.0,0.0,0.0,0.0,0.0,0.0,0.0,0.0,0.0,0.0,0.0,0.0,0.0,0.0,0.0,0.0,0.0,0.0,0.0,0.0,0.0,0.0,0.0,0.0,0.0,0.0,0.0,0.0,0.0,0.0,0.0,0.0,0.0,0.0,0.0,0.0,0.0,0.0,0.0,0.0,0.0,0.0,0.0,0.0,0.0,0.0,0.0,0.0,0.0,0.0,0.0,0.0,0.0,0.0,0.0,0.0,0.0,0.0,0.0,0.0,0.0,0.0,0.0,0.0,0.0,0.0,0.0,0.0,0.0,0.0,0.0,0.0,0.0,0.0,0.0,0.0,0.0,0.0,0.0,0.0,0.0,0.0,0.0,0.0,0.0,0.0,0.0,0.0,0.0,0.0,0.0,0.0,0.0,0.0,0.0,0.0,0.0,0.0,0.0,0.0,0.0,0.0,0.0,0.0,0.0,0.0,0.0,0.0,0.0,0.0,0.0,0.0,0.0,0.0,0.0,0.0,0.0,0.0,0.0,0.0,0.0,0.0,0.0,0.0,0.0,0.0,0.0,0.0,0.0,0.0,0.0,0.0,0.0,0.0,0.0,0.0,0.0,0.0,0.0,0.0,0.0,0.0,0.0,0.0,0.0,0.0,0.0,0.0,0.0,0.0,0.0,0.0,0.0,0.0,0.0,0.0,0.0,0.0,0.0,0.0,0.0,0.0,0.0,0.0,0.0,0.0,0.0,0.0,0.0,0.0,0.0,0.0,0.0,0.0,0.0,0.0,0.0,0.0,0.0,0.0,0.0,0.0,0.0,0.0,0.0,0.0,0.0,0.0,0.0,0.0,0.0,0.0,0.0,0.0,0.0,0.0,0.0,0.0,0.0,0.0,0.0,0.0,0.0,0.0,0.0,0.0,0.0,0.0,0.0,0.0,0.0,0.0,0.0,0.0,0.0,0.0,0.0,0.0,0.0,0.0,0.0,0.0,0.0,0.0,0.0,0.0,0.0,0.0,0.0,0.0,0.0,0.0,0.0,0.0,0.0,0.0,0.0,0.0,0.0,0.0,0.0,0.0,0.0,0.0,0.0,0.0,0.0,0.0,0.0,0.0,0.0,0.0,0.0,0.0,0.0,0.0,0.0,0.0,0.0,0.0,0.0,0.0,0.0,0.0,0.0,0.0,0.0,0.0,0.0,0.0,0.0,0.0,0.0,0.0,0.0,0.0,0.0,0.0,0.0,0.0,0.0,0.0,0.0,0.0,0.0,0.0,0.0,0.0,0.0,0.0,0.0,0.0,0.0,0.0,0.0,0.0,0.0,0.0,0.0,0.0,0.0,0.0,0.0,0.0,0.0,0.0,0.0,0.0,0.0,0.0,0.0,0.0,0.0,0.0,0.0,0.0,0.0,0.0,0.0,0.0,0.0,0.0,0.0,0.0,0.0,0.0,0.0,0.0,0.0,0.0,0.0,0.0,0.0,0.0,0.0,0.0,0.0,0.0,0.0,0.0,0.0,0.0,0.0,0.0,0.0,0.0,0.0,0.0,0.0,0.0,0.0,0.0,0.0,0.0,0.0,0.0,0.0,0.0,0.0,0.0,0.0,0.0,0.0,0.0,0.0,0.0,0.0,0.0,0.0,0.0,0.0,0.0,0.0,0.0,0.0,0.0,0.0,0.0,0.0,0.0,0.0,0.0,0.0,0.0,0.0,0.0,0.0,0.0,0.0,0.0,0.0,0.0,0.0,0.0,0.0,0.0,0.0,0.0,0.0,0.0,0.0,0.0,0.0,0.0,0.0,0.0,0.0,0.0,0.0,0.0,0.0,0.0,0.0,0.0,0.0,0.0,0.0,0.0,0.0,0.0,0.0,0.0,0.0,0.0,0.0,0.0,0.0,0.0,0.0,0.0,0.0,0.0,0.0,0.0,0.0,0.0,0.0,0.0,0.0,0.0,0.0,0.0,0.0,0.0,0.0,0.0,0.0,0.0,0.0,0.0,0.0,0.0,0.0,0.0,0.0,0.0,0.0,0.0,0.0,0.0,0.0,0.0,0.0,0.0,0.0,0.0,0.0,0.0,0.0,0.0,0.0,0.0,0.0,0.0,0.0,0.0,0.0,0.0,0.0,0.0,0.0,0.0,0.0,0.0,0.0,0.0,0.0,0.0,0.0,0.0,0.0,0.0,0.0,0.0,0.0,0.0,0.0,0.0,0.0,0.0,0.0,0.0,0.0,0.0,0.0,0.0,0.0,0.0,0.0,0.0,0.0,0.0,0.0,0.0,0.0,0.0,0.0,0.0,0.0,0.0,0.0,0.0,0.0,0.0,0.0,0.0,0.0,0.0,0.0,0.0,0.0,0.0,0.0,0.0,0.0,0.0,0.0,0.0,0.0,0.0,0.0,0.0,0.0,0.0,0.0,0.0,0.0,0.0,0.0,0.0,0.0,0.0,0.0,0.0,0.0,0.0,0.0,0.0,0.0,0.0,0.0,0.0,0.0,0.0,0.0,0.0,0.0,0.0,0.0,0.0,0.0,0.0,0.0,0.0,0.0,0.0,0.0,0.0,0.0,0.0,0.0,0.0,0.0,0.0,0.0,0.0,0.0,0.0,0.0,0.0,0.0,0.0,0.0,0.0,0.0,0.0,0.0,0.0,0.0,0.0,0.0,0.0,0.0,0.0,0.0,0.0,0.0,0.0,0.0,0.0,0.0,0.0,0.0,0.0,0.0,0.0,0.0,0.0,0.0,0.0,0.0,0.0,0.0,0.0,0.0,0.0,0.0,0.0,0.0,0.0,0.0,0.0,0.0,0.0,0.0,0.0,0.0,0.0,0.0,0.0,0.0,0.0,0.0,0.0,0.0,0.0,0.0,0.0,0.0,0.0,0.0,0.0,0.0,0.0,0.0,0.0,0.0,0.0,0.0,0.0,0.0,0.0,0.0,0.0,0.0,0.0,0.0,0.0,0.0,0.0,0.0,0.0,0.0,0.0,0.0,0.0,0.0,0.0,0.0,0.0,0.0,0.0,0.0,0.0,0.0,0.0,0.0,0.0,0.0,0.0,0.0,0.0,0.0,0.0,0.0,0.0,0.0,0.0,0.0,0.0,0.0,0.0,0.0,0.0,0.0,0.0,0.0,0.0,0.0,0.0,0.0,0.0,0.0,0.0,0.0,0.0,0.0,0.0,0.0,0.0,0.0,0.0,0.0,0.0,0.0,0.0,0.0,0.0,0.0,0.0,0.0,0.0,0.0,0.0,0.0,0.0,0.0,0.0,0.0,0.0,0.0,0.0,0.0,0.0,0.0,0.0,0.0,0.0,0.0,0.0,0.0,0.0,0.0,0.0,0.0,0.0,0.0,0.0,0.0,0.0,0.0,0.0,0.0,0.0,0.0,0.0,0.0,0.0,0.0,0.0,0.0,0.0,0.0,0.0,0.0,0.0,0.0,0.0,0.0,0.0,0.0,0.0,0.0,0.0,0.0,0.0,0.0,0.0,0.0,0.0,0.0,0.0,0.0,0.0,0.0,0.0,0.0,0.0,0.0,0.0,0.0,0.0,0.0,0.0,0.0,0.0,0.0,0.0,0.0,0.0,0.0,0.0,0.0,0.0,0.0,0.0,0.0,0.0,0.0,0.0,0.0,0.0,0.0,0.0,0.0,0.0,0.0,0.0,0.0,0.0,0.0,0.0,0.0,0.0,0.0,-1.2257,0.0,0.0,0.0,0.0,0.0,0.0,0.0,0.0,0.0,0.0,0.0,0.0,0.0,0.0,0.0,0.0,0.0,0.0,0.0,0.0,0.0,0.0,0.0,0.0,0.0,0.0,0.0,0.0,0.0,0.0,0.0,0.0,0.0,0.0,0.0,0.0,0.0,0.0,0.0,0.0,0.0,0.0,0.0,0.0,0.0,0.0,0.0,0.0,0.0,0.0,0.0,0.0,0.0,0.0,0.0,0.0,0.0,0.0,0.0,0.0,0.0,0.0,0.0,0.0,0.0,0.0,0.0,0.0,0.0,0.0,0.0,0.0,0.0,0.0,0.0,0.0,0.0,0.0,0.0,0.0,0.0,0.0,0.0,0.0,0.0,0.0,0.0,0.0,0.0,0.0,0.0,0.0,0.0,0.0,0.0,0.0,0.0,0.0,0.0,0.0,0.0,0.0,0.0,0.0,0.0,0.0,0.0,0.0,0.0,0.0,-1.3,-1.3153,-1.3376,-1.3008,-1.1968,0.0,0.0,0.0,0.0,0.0,0.0,0.0,0.0,0.0,0.0,0.0,0.0,0.0,0.0,0.0,0.0,0.0,0.0,0.0,0.0,0.0,0.0,0.0,0.0,0.0,0.0,0.0,0.0,0.0,0.0,0.0,0.0,0.0,0.0,0.0,0.0,0.0,0.0,0.0,0.0,0.0,0.0,0.0,0.0,0.0,0.0,0.0,0.0,0.0,0.0,0.0,0.0,0.0,0.0,0.0,0.0,0.0,0.0,0.0,0.0,0.0,0.0,0.0,0.0,0.0,0.0,0.0,0.0,0.0,0.0,0.0,0.0,0.0,0.0,0.0,0.0,0.0,0.0,0.0,0.0,0.0,0.0,0.0,0.0,0.0,0.0,0.0,0.0,0.0,0.0,0.0,0.0,0.0,0.0,0.0,0.0,0.0,0.0,0.0,0.0,0.0,0.0,0.0,0.0,0.0,0.0,0.0,0.0,0.0,0.0,0.0,0.0,-1.3683,-1.3563,-1.2611,0.0,0.0,0.0,0.0,0.0,0.0,0.0,0.0,0.0,0.0,0.0,0.0,0.0,0.0,0.0,0.0,0.0,0.0,0.0,0.0,0.0,0.0,0.0,0.0,0.0,0.0,0.0,0.0,0.0,0.0,0.0,0.0,0.0,0.0,0.0,0.0,0.0,0.0,0.0,0.0,0.0,0.0,0.0,0.0,0.0,0.0,0.0,0.0,0.0,0.0,0.0,0.0,0.0,0.0,0.0,0.0,0.0,0.0,0.0,0.0,0.0,0.0,0.0,0.0,0.0,0.0,0.0,0.0,0.0,0.0,0.0,0.0,0.0,0.0,0.0,0.0,0.0,0.0,0.0,0.0,0.0,0.0,0.0,0.0,0.0,0.0,0.0,0.0,0.0,0.0,0.0,0.0,0.0,0.0,0.0,0.0,0.0,0.0,0.0,0.0,0.0,0.0,0.0,0.0,0.0,0.0,0.0,0.0,0.0,0.0,-1.3218,-1.4313,-1.5119,0.0,-1.5677,0.0,0.0,0.0,0.0,0.0,0.0,0.0,0.0,0.0,0.0,0.0,0.0,0.0,0.0,0.0,0.0,0.0,0.0,0.0,0.0,0.0,0.0,0.0,0.0,0.0,0.0,0.0,0.0,0.0,0.0,0.0,0.0,0.0,0.0,0.0,0.0,0.0,0.0,0.0,0.0,0.0,0.0,0.0,0.0,0.0,0.0,0.0,0.0,0.0,0.0,0.0,0.0,0.0,0.0,0.0,0.0,0.0,0.0,0.0,0.0,0.0,0.0,0.0,0.0,0.0,0.0,0.0,0.0,0.0,0.0,0.0,0.0,0.0,0.0,0.0,0.0,0.0,0.0,0.0,0.0,0.0,0.0,0.0,0.0,0.0,0.0,0.0,0.0,0.0,0.0,0.0,0.0,0.0,0.0,0.0,0.0,0.0,0.0,0.0,0.0,0.0,0.0,0.0,0.0,0.0,0.0,0.0,0.0,0.0,0.0,-1.4237,-1.4733,-1.4843,-1.5048,0.0,0.0,0.0,0.0,0.0,0.0,0.0,0.0,0.0,0.0,0.0,0.0,0.0,0.0,0.0,0.0,0.0,0.0,0.0,0.0,0.0,0.0,0.0,0.0,0.0,0.0,0.0,0.0,0.0,0.0,0.0,0.0,0.0,0.0,0.0,0.0,0.0,0.0,0.0,0.0,0.0,0.0,0.0,0.0,0.0,0.0,0.0,0.0,0.0,0.0,0.0,0.0,0.0,0.0,0.0,0.0,0.0,0.0,0.0,0.0,0.0,0.0,0.0,0.0,0.0,0.0,0.0,0.0,0.0,0.0,0.0,0.0,0.0,0.0,0.0,0.0,0.0,0.0,0.0,0.0,0.0,0.0,0.0,0.0,0.0,0.0,0.0,0.0,0.0,0.0,0.0,0.0,0.0,0.0,0.0,0.0,0.0,0.0,0.0,0.0,0.0,0.0,0.0,0.0,0.0,0.0,0.0,0.0,0.0,0.0,-1.4507,-1.5245,-1.5672,-1.5716,-1.5678,-1.5612,0.0,0.0,0.0,0.0,0.0,0.0,0.0,0.0,0.0,0.0,0.0,0.0,0.0,0.0,0.0,0.0,0.0,0.0,0.0,0.0,0.0,0.0,0.0,0.0,0.0,0.0,0.0,0.0,0.0,0.0,0.0,0.0,0.0,0.0,0.0,0.0,0.0,0.0,0.0,0.0,0.0,0.0,0.0,0.0,0.0,0.0,0.0,0.0,0.0,0.0,0.0,0.0,0.0,0.0,0.0,0.0,0.0,0.0,0.0,0.0,0.0,0.0,0.0,0.0,0.0,0.0,0.0,0.0,0.0,0.0,0.0,0.0,0.0,0.0,0.0,0.0,0.0,0.0,0.0,0.0,0.0,0.0,0.0,0.0,0.0,0.0,0.0,0.0,0.0,0.0,0.0,0.0,0.0,0.0,0.0,0.0,0.0,0.0,0.0,0.0,0.0,0.0,0.0,0.0,0.0,0.0,0.0,0.0,-1.5396,-1.5402,-1.6117,-1.7628,-1.8648,-1.86,0.0,0.0,0.0,0.0,0.0,0.0,0.0,0.0,0.0,0.0,0.0,0.0,0.0,0.0,0.0,0.0,0.0,0.0,0.0,0.0,0.0,0.0,0.0,0.0,0.0,0.0,0.0,0.0,0.0,0.0,0.0,0.0,0.0,0.0,0.0,0.0,0.0,0.0,0.0,0.0,0.0,0.0,0.0,0.0,0.0,0.0,0.0,0.0,0.0,0.0,0.0,0.0,0.0,0.0,0.0,0.0,0.0,0.0,0.0,0.0,0.0,0.0,0.0,0.0,0.0,0.0,0.0,0.0,0.0,0.0,0.0,0.0,0.0,0.0,0.0,0.0,0.0,0.0,0.0,0.0,0.0,0.0,0.0,0.0,0.0,0.0,0.0,0.0,0.0,0.0,0.0,0.0,0.0,0.0,0.0,0.0,0.0,0.0,0.0,0.0,0.0,0.0,0.0,0.0,0.0,0.0,0.0,0.0,0.0,-1.4535,-1.5331,-1.6968,-1.9291,-1.8056,-1.751,0.0,0.0,0.0,0.0,0.0,0.0,0.0,0.0,0.0,0.0,0.0,0.0,0.0,0.0,0.0,0.0,0.0,0.0,0.0,0.0,0.0,0.0,0.0,0.0,0.0,0.0,0.0,0.0,0.0,0.0,0.0,0.0,0.0,0.0,0.0,0.0,0.0,0.0,0.0,0.0,0.0,0.0,0.0,0.0,0.0,0.0,0.0,0.0,0.0,0.0,0.0,0.0,0.0,0.0,0.0,0.0,0.0,0.0,0.0,0.0,0.0,0.0,0.0,0.0,0.0,0.0,0.0,0.0,0.0,0.0,0.0,0.0,0.0,0.0,0.0,0.0,0.0,0.0,0.0,0.0,0.0,0.0,0.0,0.0,0.0,0.0,0.0,0.0,0.0,0.0,0.0,0.0,0.0,0.0,0.0,0.0,0.0,0.0,0.0,0.0,0.0,0.0,0.0,0.0,0.0,0.0,0.0,0.0,0.0,-1.497,0.0,-1.7738,-1.9055,-1.7661,-1.6785,0.0,0.0,0.0,0.0,0.0,0.0,0.0,0.0,0.0,0.0,0.0,0.0,0.0,0.0,0.0,0.0,0.0,0.0,0.0,0.0,0.0,0.0,0.0,0.0,0.0,0.0,0.0,0.0,0.0,0.0,0.0,0.0,0.0,0.0,0.0,0.0,0.0,0.0,0.0,0.0,0.0,0.0,0.0,0.0,0.0,0.0,0.0,0.0,0.0,0.0,0.0,0.0,0.0,0.0,0.0,0.0,0.0,0.0,0.0,0.0,0.0,0.0,0.0,0.0,0.0,0.0,0.0,0.0,0.0,0.0,0.0,0.0,0.0,0.0,0.0,0.0,0.0,0.0,0.0,0.0,0.0,0.0,0.0,0.0,0.0,0.0,0.0,0.0,0.0,0.0,0.0,0.0,0.0,0.0,0.0,0.0,0.0,0.0,0.0,0.0,0.0,0.0,0.0,0.0,0.0,0.0,0.0,0.0,-1.502,-1.7093,-1.841,-1.8334,-1.6836,-1.7615,-1.6697,0.0,0.0,0.0,0.0,0.0,0.0,0.0,0.0,0.0,0.0,0.0,0.0,0.0,0.0,0.0,0.0,0.0,0.0,0.0,0.0,0.0,0.0,0.0,0.0,0.0,0.0,0.0,0.0,0.0,0.0,0.0,0.0,0.0,0.0,0.0,0.0,0.0,0.0,0.0,0.0,0.0,0.0,0.0,0.0,0.0,0.0,0.0,0.0,0.0,0.0,0.0,0.0,0.0,0.0,0.0,0.0,0.0,0.0,0.0,0.0,0.0,0.0,0.0,0.0,0.0,0.0,0.0,0.0,0.0,0.0,0.0,0.0,0.0,0.0,0.0,0.0,0.0,0.0,0.0,0.0,0.0,0.0,0.0,0.0,0.0,0.0,0.0,0.0,0.0,0.0,0.0,0.0,0.0,0.0,0.0,0.0,0.0,0.0,0.0,0.0,0.0,0.0,0.0,0.0,0.0,0.0,0.0,0.0,0.0,-1.7253,-1.7757,-1.8053,-1.8035,-1.6948,-1.6127,0.0,0.0,0.0,0.0,0.0,0.0,0.0,0.0,0.0,0.0,0.0,0.0,0.0,0.0,0.0,0.0,0.0,0.0,0.0,0.0,0.0,0.0,0.0,0.0,0.0,0.0,0.0,0.0,0.0,0.0,0.0,0.0,0.0,0.0,0.0,0.0,0.0,0.0,0.0,0.0,0.0,0.0,0.0,0.0,0.0,0.0,0.0,0.0,0.0,0.0,0.0,0.0,0.0,0.0,0.0,0.0,0.0,0.0,0.0,0.0,0.0,0.0,0.0,0.0,0.0,0.0,0.0,0.0,0.0,0.0,0.0,0.0,0.0,0.0,0.0,0.0,0.0,0.0,0.0,0.0,0.0,0.0,0.0,0.0,0.0,0.0,0.0,0.0,0.0,0.0,0.0,0.0,0.0,0.0,0.0,0.0,0.0,0.0,0.0,0.0,0.0,0.0,0.0,0.0,0.0,0.0,0.0,0.0,0.0,-1.7368,-1.8076,-1.836,-1.8133,-1.6555,-1.5552,-1.519,0.0,0.0,0.0,0.0,0.0,0.0,0.0,0.0,0.0,0.0,0.0,0.0,0.0,0.0,0.0,0.0,0.0,0.0,0.0,0.0,0.0,0.0,0.0,0.0,0.0,0.0,0.0,0.0,0.0,0.0,0.0,0.0,0.0,0.0,0.0,0.0,0.0,0.0,0.0,0.0,0.0,0.0,0.0,0.0,0.0,0.0,0.0,0.0,0.0,0.0,0.0,0.0,0.0,0.0,0.0,0.0,0.0,0.0,0.0,0.0,0.0,0.0,0.0,0.0,0.0,0.0,0.0,0.0,0.0,0.0,0.0,0.0,0.0,0.0,0.0,0.0,0.0,0.0,0.0,0.0,0.0,0.0,0.0,0.0,0.0,0.0,0.0,0.0,0.0,0.0,0.0,0.0,0.0,0.0,0.0,0.0,0.0,0.0,0.0,0.0,0.0,0.0,0.0,0.0,0.0,0.0,0.0,0.0,-1.7337,-1.8971,-1.895,-1.72,-1.6414,-1.5015,0.0,0.0,0.0,0.0,0.0,0.0,0.0,0.0,0.0,0.0,0.0,0.0,0.0,0.0,0.0,0.0,0.0,0.0,0.0,0.0,0.0,0.0,0.0,0.0,0.0,0.0,0.0,0.0,0.0,0.0,0.0,0.0,0.0,0.0,0.0,0.0,0.0,0.0,0.0,0.0,0.0,0.0,0.0,0.0,0.0,0.0,0.0,0.0,0.0,0.0,0.0,0.0,0.0,0.0,0.0,0.0,0.0,0.0,0.0,0.0,0.0,0.0,0.0,0.0,0.0,0.0,0.0,0.0,0.0,0.0,0.0,0.0,0.0,0.0,0.0,0.0,0.0,0.0,0.0,0.0,0.0,0.0,0.0,0.0,0.0,0.0,0.0,0.0,0.0,0.0,0.0,0.0,0.0,0.0,0.0,0.0,0.0,0.0,0.0,0.0,0.0,0.0,0.0,0.0,0.0,0.0,0.0,0.0,0.0,-1.6502,-1.6704,-1.6718,-1.639,-1.5708,-1.4571,0.0,0.0,0.0,0.0,0.0,0.0,0.0,0.0,0.0,0.0,0.0,0.0,0.0,0.0,0.0,0.0,0.0,0.0,0.0,0.0,0.0,0.0,0.0,0.0,0.0,0.0,0.0,0.0,0.0,0.0,0.0,0.0,0.0,0.0,0.0,0.0,0.0,0.0,0.0,0.0,0.0,0.0,0.0,0.0,0.0,0.0,0.0,0.0,0.0,0.0,0.0,0.0,0.0,0.0,0.0,0.0,0.0,0.0,0.0,0.0,0.0,0.0,0.0,0.0,0.0,0.0,0.0,0.0,0.0,0.0,0.0,0.0,0.0,0.0,0.0,0.0,0.0,0.0,0.0,0.0,0.0,0.0,0.0,0.0,0.0,0.0,0.0,0.0,0.0,0.0,0.0,0.0,0.0,0.0,0.0,0.0,0.0,0.0,0.0,0.0,0.0,0.0,0.0,0.0,0.0,0.0,0.0,0.0,-1.7465,-1.536,-1.5099,-1.4698,-1.4102,-1.4024,-1.3618,0.0,0.0,0.0,0.0,0.0,0.0,0.0,0.0,0.0,0.0,0.0,0.0,0.0,0.0,0.0,0.0,0.0,0.0,0.0,0.0,0.0,0.0,0.0,0.0,0.0,0.0,0.0,0.0,0.0,0.0,0.0,0.0,0.0,0.0,0.0,0.0,0.0,0.0,0.0,0.0,0.0,0.0,0.0,0.0,0.0,0.0,0.0,0.0,0.0,0.0,0.0,0.0,0.0,0.0,0.0,0.0,0.0,0.0,0.0,0.0,0.0,0.0,0.0,0.0,0.0,0.0,0.0,0.0,0.0,0.0,0.0,0.0,0.0,0.0,0.0,0.0,0.0,0.0,0.0,0.0,0.0,0.0,0.0,0.0,0.0,0.0,0.0,0.0,0.0,0.0,0.0,0.0,0.0,0.0,0.0,0.0,0.0,0.0,0.0,0.0,0.0,0.0,0.0,0.0,0.0,0.0,0.0,0.0,-1.6896,-1.4178,-1.3908,-1.2932,-1.1164,-1.1957,-1.25,0.0,0.0,0.0,0.0,0.0,0.0,0.0,0.0,0.0,0.0,0.0,0.0,0.0,0.0,0.0,0.0,0.0,0.0,0.0,0.0,0.0,0.0,0.0,0.0,0.0,0.0,0.0,0.0,0.0,0.0,0.0,0.0,0.0,0.0,0.0,0.0,0.0,0.0,0.0,0.0,0.0,0.0,0.0,0.0,0.0,0.0,0.0,0.0,0.0,0.0,0.0,0.0,0.0,0.0,0.0,0.0,0.0,0.0,0.0,0.0,0.0,0.0,0.0,0.0,0.0,0.0,0.0,0.0,0.0,0.0,0.0,0.0,0.0,0.0,0.0,0.0,0.0,0.0,0.0,0.0,0.0,0.0,0.0,0.0,0.0,0.0,0.0,0.0,0.0,0.0,0.0,0.0,0.0,0.0,0.0,0.0,0.0,0.0,0.0,0.0,0.0,0.0,0.0,0.0,0.0,0.0,0.0,0.0,-1.6446,-1.3503,-1.2825,-1.1571,-0.9631,-1.1631,-1.2292,0.0,0.0,0.0,0.0,0.0,0.0,0.0,0.0,0.0,0.0,0.0,0.0,0.0,0.0,0.0,0.0,0.0,0.0,0.0,0.0,0.0,0.0,0.0,0.0,0.0,0.0,0.0,0.0,0.0,0.0,0.0,0.0,0.0,0.0,0.0,0.0,0.0,0.0,0.0,0.0,0.0,0.0,0.0,0.0,0.0,0.0,0.0,0.0,-0.0909,0.0,0.0,0.0,0.0,0.0,0.0,0.0,0.0,0.0,0.0,0.0,0.0,0.0,0.0,0.0,0.0,0.0,0.0,0.0,0.0,0.0,0.0,0.0,0.0,0.0,0.0,0.0,0.0,0.0,0.0,0.0,0.0,0.0,0.0,0.0,0.0,0.0,0.0,0.0,0.0,0.0,0.0,0.0,0.0,0.0,0.0,0.0,0.0,0.0,0.0,0.0,0.0,0.0,0.0,0.0,0.0,0.0,0.0,0.0,-1.615,-1.3039,-1.2435,-1.0972,-0.8607,-1.0083,-1.0842,0.0,0.0,0.0,0.0,0.0,0.0,0.0,0.0,0.0,0.0,0.0,0.0,0.0,0.0,0.0,0.0,0.0,0.0,0.0,0.0,0.0,0.0,0.0,0.0,0.0,0.0,0.0,0.0,0.0,0.0,0.0,0.0,0.0,0.0,0.0,0.0,0.0,0.0,0.0,0.0,0.0,0.0,0.0,0.0,0.0,0.0,0.0,0.0,0.0,0.0,0.0,0.0,0.0,0.0,0.0,0.0,0.0,0.0,0.0,0.0,0.0,0.0,0.0,0.0,0.0,0.0,0.0,0.0,0.0,0.0,0.0,0.0,0.0,0.0,0.0,0.0,0.0,0.0,0.0,0.0,0.0,0.0,0.0,0.0,0.0,0.0,0.0,0.0,0.0,0.0,0.0,0.0,0.0,0.0,0.0,0.0,0.0,0.0,0.0,0.0,0.0,0.0,0.0,0.0,0.0,0.0,0.0,-1.7153,-1.5862,-1.2869,-1.229,-1.0658,-0.7761,-0.8179,-0.8831,-0.9547,0.0,0.0,0.0,0.0,0.0,0.0,0.0,0.0,0.0,0.0,0.0,0.0,0.0,0.0,0.0,0.0,0.0,0.0,0.0,0.0,0.0,0.0,0.0,0.0,0.0,0.0,0.0,0.0,0.0,0.0,0.0,0.0,0.0,0.0,0.0,0.0,0.0,0.0,-0.9823,-0.8984,0.0,0.0,0.0,0.0,0.0,0.0,0.0,0.0,-0.2477,0.0,0.0,0.0,0.0,0.0,0.0,0.0,0.0,0.0,0.0,0.0,0.0,0.0,0.0,0.0,0.0,0.0,0.0,0.0,0.0,0.0,0.0,0.0,0.0,0.0,0.0,0.0,0.0,0.0,0.0,0.0,0.0,0.0,0.0,0.0,0.0,0.0,0.0,0.0,0.0,0.0,0.0,0.0,0.0,0.0,0.0,0.0,0.0,0.0,0.0,0.0,0.0,0.0,0.0,0.0,0.0,-1.6187,-1.6215,-1.5277,-1.3316,-1.1883,-1.0068,-0.7937,-0.7054,-0.6913,-0.7582,0.0,0.0,0.0,0.0,0.0,0.0,0.0,0.0,0.0,0.0,0.0,0.0,0.0,0.0,0.0,0.0,0.0,0.0,0.0,0.0,0.0,0.0,0.0,0.0,0.0,0.0,0.0,0.0,0.0,0.0,0.0,0.0,0.0,0.0,0.0,0.0,0.0,0.0,0.0,-1.0147,-0.9415,0.0,0.0,0.0,0.0,0.0,0.0,0.0,0.0,-0.3501,0.0,0.0,0.0,0.0,0.0,0.0,0.0,0.0,0.0,0.0,0.0,0.0,0.0,0.0,0.0,0.0,0.0,0.0,0.0,0.0,0.0,0.0,0.0,0.0,0.0,0.0,0.0,0.0,0.0,0.0,0.0,0.0,0.0,0.0,0.0,0.0,0.0,0.0,0.0,0.0,0.0,0.0,0.0,0.0,0.0,0.0,0.0,0.0,0.0,0.0,0.0,0.0,0.0,0.0,0.0,-1.5697,-1.5794,-1.4945,-1.3141,-1.1911,-1.0112,-0.7766,-0.6983,-0.6696,0.0,0.0,0.0,0.0,0.0,0.0,0.0,0.0,0.0,0.0,0.0,0.0,0.0,0.0,0.0,0.0,0.0,0.0,0.0,0.0,0.0,0.0,0.0,0.0,0.0,0.0,0.0,0.0,0.0,0.0,0.0,0.0,0.0,0.0,0.0,0.0,0.0,0.0,0.0,0.0,-0.9375,-0.8585,-0.757,0.0,0.0,0.0,0.0,0.0,0.0,-0.3867,-0.3942,0.0,0.0,0.0,0.0,0.0,0.0,0.0,0.0,0.0,0.0,0.0,0.0,0.0,0.0,0.0,0.0,0.0,0.0,0.0,0.0,0.0,0.0,0.0,0.0,0.0,0.0,0.0,0.0,0.0,0.0,0.0,0.0,0.0,0.0,0.0,0.0,0.0,0.0,0.0,0.0,0.0,0.0,0.0,0.0,0.0,0.0,0.0,0.0,0.0,0.0,0.0,0.0,0.0,0.0,0.0,-1.5043,-1.5161,-1.4403,-1.2728,-1.1794,-1.0107,-0.7602,-0.6832,-0.6538,0.0,0.0,0.0,0.0,0.0,0.0,0.0,0.0,0.0,0.0,0.0,0.0,0.0,0.0,0.0,0.0,0.0,0.0,0.0,0.0,0.0,0.0,0.0,0.0,0.0,0.0,0.0,0.0,0.0,0.0,0.0,0.0,0.0,0.0,0.0,0.0,0.0,0.0,0.0,0.0,0.0,-0.7697,-0.7413,-0.7197,0.0,0.0,0.0,0.0,-0.4638,-0.4539,0.0,0.0,0.0,0.0,0.0,0.0,0.0,0.0,0.0,0.0,0.0,0.0,0.0,0.0,0.0,0.0,0.0,0.0,0.0,0.0,0.0,0.0,0.0,0.0,0.0,0.0,0.0,0.0,0.0,0.0,0.0,0.0,0.0,0.0,0.0,0.0,0.0,0.0,0.0,0.0,0.0,0.0,0.0,0.0,0.0,0.0,0.0,0.0,0.0,0.0,0.0,0.0,0.0,0.0,0.0,0.0,-1.3754,-1.3731,-1.3235,-1.2195,-1.106,-0.9508,-0.7559,-0.5914,-0.5403,0.0,0.0,0.0,0.0,0.0,0.0,0.0,0.0,0.0,0.0,0.0,0.0,0.0,0.0,0.0,0.0,0.0,0.0,0.0,0.0,0.0,0.0,0.0,0.0,0.0,0.0,0.0,0.0,0.0,0.0,0.0,0.0,0.0,0.0,0.0,0.0,0.0,0.0,0.0,0.0,0.0,-0.8126,-0.7398,-0.7043,-0.6639,0.0,0.0,-0.4717,-0.5358,-0.4633,0.0,0.0,0.0,0.0,0.0,0.0,0.0,0.0,0.0,0.0,0.0,0.0,0.0,0.0,0.0,0.0,0.0,0.0,0.0,0.0,0.0,0.0,0.0,0.0,0.0,0.0,0.0,0.0,0.0,0.0,0.0,0.0,0.0,0.0,0.0,0.0,0.0,0.0,0.0,0.0,0.0,0.0,0.0,0.0,0.0,0.0,0.0,0.0,0.0,0.0,0.0,0.0,0.0,0.0,0.0,-1.3568,-1.3461,-1.3155,-1.288,-1.2537,-1.1263,-1.0034,-0.8864,-0.7556,-0.702,0.0,0.0,0.0,0.0,0.0,0.0,0.0,0.0,0.0,0.0,0.0,0.0,0.0,0.0,0.0,0.0,0.0,0.0,0.0,0.0,0.0,0.0,0.0,0.0,0.0,0.0,0.0,0.0,0.0,0.0,0.0,0.0,0.0,0.0,0.0,0.0,0.0,0.0,0.0,0.0,0.0,0.0,-0.7664,-0.5696,0.0,0.0,0.0,-0.4455,-0.413,0.0,0.0,0.0,0.0,0.0,0.0,0.0,0.0,0.0,0.0,0.0,0.0,0.0,0.0,0.0,0.0,0.0,0.0,0.0,0.0,0.0,0.0,0.0,0.0,0.0,0.0,0.0,0.0,0.0,0.0,0.0,0.0,0.0,0.0,0.0,0.0,0.0,0.0,0.0,0.0,0.0,0.0,0.0,0.0,0.0,0.0,0.0,0.0,0.0,0.0,0.0,0.0,0.0,0.0,0.0,0.0,0.0,-1.308,-1.2695,-1.2522,-1.2537,-1.1357,-1.0424,-0.9883,-0.8879,0.0,0.0,0.0,0.0,0.0,0.0,0.0,0.0,0.0,0.0,0.0,0.0,0.0,0.0,0.0,0.0,0.0,0.0,0.0,0.0,0.0,0.0,0.0,0.0,0.0,0.0,0.0,-1.3955,0.0,0.0,0.0,0.0,0.0,0.0,0.0,0.0,0.0,0.0,0.0,0.0,0.0,0.0,-0.9336,-0.8428,-0.5296,-0.3313,0.0,0.0,-0.266,-0.2015,-0.1999,-0.2,0.0,0.0,0.0,0.0,0.0,0.0,0.0,0.0,0.0,0.0,0.0,0.0,0.0,0.0,0.0,0.0,0.0,0.0,0.0,0.0,0.0,0.0,0.0,0.0,0.0,0.0,0.0,0.0,0.0,0.0,0.0,0.0,0.0,0.0,0.0,0.0,0.0,0.0,0.0,0.0,0.0,0.0,0.0,0.0,0.0,0.0,0.0,0.0,0.0,0.0,0.0,0.0,0.0,0.0,-1.3029,-1.2305,-1.2061,-1.1871,-1.1683,-1.0859,-1.0225,-0.9801,-0.8801,-0.8947,0.0,0.0,0.0,0.0,0.0,0.0,0.0,0.0,0.0,0.0,0.0,0.0,0.0,0.0,0.0,0.0,0.0,0.0,0.0,0.0,0.0,0.0,0.0,0.0,0.0,0.0,0.0,0.0,0.0,0.0,0.0,0.0,0.0,0.0,0.0,0.0,0.0,0.0,0.0,0.0,0.0,-0.9888,-0.9929,-0.7009,-0.4354,0.0,-0.0177,0.1602,0.0922,0.1036,0.0763,-0.0659,0.0,0.0,0.0,0.0,0.0,0.0,0.0,0.0,0.0,0.0,0.0,0.0,0.0,0.0,0.0,0.0,0.0,0.0,0.0,0.0,0.0,0.0,0.0,0.0,0.0,0.0,0.0,0.0,0.0,0.0,0.0,0.0,0.0,0.0,0.0,0.0,0.0,0.0,0.0,0.0,0.0,0.0,0.0,0.0,0.0,0.0,0.0,0.0,0.0,0.0,0.0,0.0,0.0,-1.319,-1.2219,-1.1696,-1.1826,-1.2642,-1.1903,-1.1531,-1.1577,-1.1022,-1.1195,0.0,0.0,0.0,0.0,0.0,0.0,0.0,0.0,0.0,0.0,0.0,0.0,0.0,0.0,0.0,0.0,0.0,0.0,0.0,0.0,0.0,0.0,0.0,0.0,0.0,0.0,0.0,0.0,-0.8112,-0.614,-0.498,0.0,0.0,0.0,0.0,0.0,0.0,0.0,0.0,0.0,0.0,-0.8342,-0.6701,-0.7104,0.0,0.0,0.034,0.2045,0.1448,-0.0114,-0.1413,-0.1948,-0.4378,0.0,0.0,0.0,0.0,0.0,0.0,0.0,0.0,0.0,0.0,0.0,0.0,0.0,0.0,0.0,0.0,0.0,0.0,0.0,0.0,0.0,0.0,0.0,0.0,0.0,0.0,0.0,0.0,0.0,0.0,0.0,0.0,0.0,0.0,0.0,0.0,0.0,0.0,0.0,0.0,0.0,0.0,0.0,0.0,0.0,0.0,0.0,0.0,0.0,0.0,0.0,0.0,-1.3496,-1.2205,-1.1417,-1.1719,-1.3054,-1.2589,-1.2506,-1.2881,-1.2541,-1.2839,0.0,0.0,0.0,0.0,0.0,0.0,0.0,0.0,0.0,0.0,0.0,0.0,0.0,0.0,0.0,0.0,0.0,0.0,0.0,0.0,0.0,0.0,0.0,0.0,0.0,0.0,0.0,0.0,-0.5299,-0.271,-0.2456,0.0,0.0,0.0,0.0,0.0,0.0,0.0,0.0,0.0,0.0,-0.6571,-0.4463,-0.597,-0.6093,-0.2624,-0.0936,0.0082,0.0346,-0.1823,-0.3796,-0.4537,0.0,0.0,0.0,0.0,0.0,0.0,0.0,0.0,0.0,0.0,0.0,0.0,0.0,0.0,0.0,0.0,0.0,0.0,0.0,0.0,0.0,0.0,0.0,0.0,0.0,0.0,0.0,-2.1625,0.0,0.0,-2.1125,0.0,0.0,0.0,0.0,0.0,0.0,0.0,0.0,0.0,0.0,0.0,0.0,0.0,0.0,0.0,0.0,0.0,0.0,0.0,0.0,0.0,0.0,-1.393,-1.2236,-1.1368,-1.1363,-1.2305,-1.2499,-1.287,-1.3361,-1.2832,-1.3454,-1.5384,0.0,0.0,0.0,0.0,0.0,0.0,0.0,0.0,0.0,0.0,0.0,0.0,0.0,0.0,0.0,0.0,0.0,0.0,0.0,0.0,0.0,0.0,0.0,0.0,0.0,0.0,-1.2674,-0.5378,-0.1761,0.0,0.0,0.0,0.0,0.0,0.0,0.0,0.0,0.0,0.0,-0.7115,-0.4973,-0.4118,-0.3469,-0.3193,-0.2954,-0.4146,-0.44,-0.2483,-0.3686,-0.5723,0.0,0.0,0.0,0.0,0.0,0.0,0.0,0.0,0.0,0.0,0.0,0.0,0.0,0.0,0.0,0.0,0.0,0.0,0.0,0.0,0.0,0.0,0.0,0.0,0.0,0.0,0.0,-2.4684,-2.3765,0.0,0.0,0.0,0.0,0.0,0.0,0.0,0.0,0.0,0.0,0.0,-2.1827,-2.2123,0.0,0.0,0.0,0.0,0.0,0.0,0.0,0.0,0.0,0.0,0.0,0.0,-1.4132,-1.256,-1.1551,-1.1471,-1.2371,-1.3288,-1.3914,-1.419,-1.4493,-1.5232,-1.6523,0.0,0.0,0.0,0.0,0.0,0.0,0.0,0.0,0.0,0.0,0.0,0.0,0.0,0.0,0.0,0.0,0.0,0.0,0.0,0.0,0.0,0.0,0.0,0.0,0.0,-1.6772,0.0,0.0,0.0,0.0,0.0,0.0,0.0,0.0,0.0,0.0,0.0,-1.1848,-0.9403,-0.6414,-0.4294,-0.3874,-0.3945,-0.4403,0.0,0.0,0.0,0.0,0.0,0.0,0.0,0.0,0.0,0.0,0.0,0.0,0.0,0.0,-2.197,-1.7584,-1.5248,-1.3729,-1.296,0.0,0.0,0.0,0.0,0.0,0.0,0.0,0.0,0.0,0.0,0.0,0.0,0.0,0.0,-2.658,0.0,-2.5077,0.0,0.0,0.0,0.0,0.0,0.0,0.0,0.0,-2.2255,-2.2206,-2.1864,-2.2257,-2.2584,0.0,-2.2289,-2.1367,0.0,0.0,0.0,0.0,0.0,0.0,0.0,0.0,-1.4355,-1.2511,-1.1408,-1.1249,-1.1865,-1.2979,-1.3709,-1.4025,-1.5243,-1.5975,-1.6162,-1.841,-1.9844,0.0,0.0,0.0,0.0,0.0,0.0,0.0,0.0,0.0,0.0,0.0,0.0,0.0,0.0,0.0,0.0,0.0,0.0,0.0,0.0,0.0,0.0,0.0,-1.903,0.0,0.0,0.0,0.0,0.0,0.0,0.0,0.0,0.0,-1.7514,-1.4298,-1.1297,-0.9001,-0.6215,-0.4482,-0.4713,0.0,0.0,0.0,0.0,0.0,0.0,0.0,-1.5037,-1.7353,-1.9259,-2.1636,-2.5092,-2.6796,-2.7416,-2.648,0.0,0.0,-2.1141,-1.8304,-1.6049,-1.4848,-1.3041,-1.1589,-1.1428,-1.2596,-1.2457,0.0,0.0,0.0,0.0,0.0,0.0,0.0,0.0,-2.8973,-2.8057,0.0,-2.6338,0.0,0.0,0.0,0.0,-2.1965,-2.131,0.0,0.0,-2.0991,-2.1364,-2.2529,-2.2186,-2.2716,-2.3922,-2.3555,-2.2875,-2.1878,-2.0732,0.0,0.0,0.0,0.0,0.0,0.0,-1.4526,-1.2049,-1.0997,-1.0617,-1.0832,-1.1575,-1.2187,-1.2716,-1.4843,-1.5465,-1.4516,-1.7577,-1.8908,-1.7905,-1.863,0.0,0.0,0.0,0.0,0.0,0.0,0.0,0.0,0.0,0.0,0.0,0.0,0.0,0.0,0.0,0.0,0.0,0.0,0.0,0.0,-2.0075,0.0,0.0,0.0,0.0,0.0,0.0,0.0,0.0,0.0,0.0,-1.599,-1.3822,-1.146,-0.8961,0.0,0.0,0.0,0.0,-0.8277,-1.0468,-1.2986,-1.4944,-1.575,-1.741,-1.9204,-2.1021,0.0,0.0,-2.5932,-2.6063,-2.5533,-2.4225,-2.2886,-2.2796,-2.4957,-2.1603,-1.8476,-1.6821,-1.3785,-1.1485,-1.0614,-1.2133,-1.2555,-2.8756,0.0,0.0,0.0,0.0,-2.9291,-2.9432,-2.9468,-2.9178,-2.8572,-2.7684,-2.7284,0.0,0.0,0.0,0.0,0.0,0.0,-2.0628,-2.0813,-2.0131,-2.0258,-2.1092,-2.1033,-2.1326,-2.2015,-2.2254,-2.1888,-2.1003,-2.0515,-1.994,-1.9318,0.0,0.0,0.0,0.0,-1.3905,-1.2147,-1.0933,-1.01,-0.9522,-1.0106,-1.0005,-0.9165,-1.0762,-1.2031,-1.2806,-1.4712,-1.646,-1.7916,-1.8115,0.0,0.0,0.0,0.0,0.0,0.0,0.0,0.0,0.0,0.0,0.0,0.0,0.0,0.0,0.0,0.0,0.0,0.0,0.0,-2.6814,-2.4495,-2.4162,0.0,0.0,0.0,0.0,0.0,0.0,0.0,0.0,0.0,-1.5304,-1.3493,-1.1952,0.0,0.0,-0.9379,-1.0031,-1.0787,-1.1761,-1.3007,-1.4511,0.0,-1.704,-1.6927,-1.7802,-2.0906,-2.2179,-2.2687,-2.2367,-2.2185,-2.1656,-2.045,-1.8744,-1.7333,-1.6519,-1.6602,-1.5723,-1.3539,-1.086,-0.8703,-0.7815,-0.8972,-0.8777,-2.5798,-2.6982,-2.7635,-2.7896,-2.8056,-2.8241,-2.8426,-2.8592,-2.8613,-2.8236,-2.7628,-2.7004,-2.5681,-2.3738,-2.2368,0.0,0.0,0.0,-2.0002,-2.0174,-1.944,-1.9535,-2.028,-1.9938,-2.0143,-2.0764,-2.081,-2.0448,-1.9849,-1.9799,-1.952,-1.9093,0.0,0.0,-1.6775,-1.5541,-1.4046,-1.2374,-1.1344,-1.0365,-0.9253,-0.7848,-0.6615,-0.5544,-0.5809,-0.6368,-0.7215,-0.9895,-1.1776,-1.2735,-1.466,-1.577,0.0,0.0,0.0,0.0,0.0,0.0,0.0,0.0,0.0,0.0,0.0,-2.5668,-2.6788,0.0,0.0,0.0,-2.6804,-2.7324,-2.8514,-2.6948,0.0,0.0,0.0,0.0,0.0,0.0,0.0,-1.6622,-1.6359,-1.6021,-1.4675,-1.3427,-1.2623,-1.2568,-1.1696,-1.1295,-1.1922,0.0,-1.2196,-1.2754,-1.3622,-1.4596,-1.5457,-1.5217,-1.5891,-1.8588,-1.9254,-1.9153,-1.8508,-1.7859,-1.6995,-1.5678,-1.3823,-1.1655,-0.9633,-0.9685,-0.9792,-0.9024,-0.7017,-0.4993,-0.3713,-0.4182,-0.3773,-2.296,-2.3406,-2.5257,-2.6313,-2.6799,-2.73,-2.7519,-2.7478,-2.7365,-2.7225,-2.6961,-2.5774,-2.4508,-2.3146,-2.0971,0.0,-2.008,-1.9514,-1.9416,-1.9638,-1.8892,-1.9024,-1.9885,-1.8955,-1.9065,-1.9949,-1.9293,-1.8858,-1.8624,-1.8697,-1.8532,-1.8153,-1.8815,-1.8255,-1.6485,-1.5907,-1.4687,-1.2793,-1.2167,-1.1097,-0.9464,-0.5214,-0.2655,-0.1802,-0.0374,0.0513,0.064,-0.3527,-0.5392,-0.4412,-0.8975,-1.2004,-1.2704,0.0,0.0,0.0,0.0,0.0,0.0,0.0,0.0,0.0,0.0,0.0,0.0,0.0,0.0,0.0,-2.7484,0.0,-2.7308,-2.7904,0.0,0.0,0.0,-2.8516,-2.6408,-2.3733,-2.003,-1.504,0.0,0.0,-1.3987,-1.3347,-1.3064,-1.3359,-1.2307,-1.18,-1.2467,-1.1414,-1.0622,-1.0726,-1.1146,-1.1637,-1.204,-1.2618,-1.3451,-1.4638,-1.5034,-1.4863,-1.4311,-1.3307,-1.2013,-1.0624,-0.85,-0.6217,-0.4063,-0.2218,-0.1351,-0.3219,-0.2228,-0.0567,0.099,0.1091,0.1426,-2.156,-2.1728,-2.2865,-2.3884,-2.473,-2.548,-2.5753,-2.5723,-2.5741,-2.54,-2.4833,-2.4323,-2.339,-2.2123,-2.089,-2.0244,-2.0126,-1.9389,-1.9149,-1.9177,-1.8382,-1.8275,-1.8685,-1.8104,-1.7927,-1.81,-1.8072,-1.7973,-1.7763,-1.7618,-1.7768,-1.8237,-1.8106,-1.7488,-1.6498,-1.5761,-1.498,-1.4074,-1.3658,-1.1842,-0.8569,-0.4213,-0.0611,0.2201,0.4523,0.5238,0.4091,0.3602,0.2084,-0.0454,-0.3079,-0.507,-0.6374,-1.0499,0.0,0.0,0.0,0.0,0.0,0.0,0.0,0.0,0.0,-2.8466,-2.881,0.0,-2.8836,0.0,-2.7306,-2.7546,-2.8944,-2.7969,0.0,0.0,-2.6582,-2.541,-2.1516,-1.9506,-1.7168,-1.3868,-1.3497,-1.33,-1.2606,-1.1613,-1.0919,-1.0681,-1.1259,-1.1435,-1.0731,-1.0205,-0.9907,-1.0003,-0.9488,-0.9043,-0.8792,-0.9705,-1.0428,-1.0597,-1.0736,-1.0571,-1.0058,-0.9252,-0.7959,-0.5958,-0.4068,-0.172,0.1276,0.3115,0.4533,0.5398,0.4618,0.3919,0.5409,0.5332,0.5434,-2.0969,-2.1296,-2.1668,-2.2274,-2.305,-2.3936,-2.4266,-2.4182,-2.4136,-2.3838,-2.3326,-2.2697,-2.1928,-2.0952,-2.031,-1.9965,-1.9798,-1.9369,-1.9118,-1.9031,-1.8558,-1.841,-1.8509,-1.7943,-1.7557,-1.7382,-1.7235,-1.7125,-1.706,-1.6968,-1.7277,-1.7882,-1.7646,-1.7463,-1.7287,-1.6645,-1.6286,-1.6144,-1.5313,-1.3312,-1.0074,-0.6,-0.2619,0.0111,0.1895,0.2377,0.1395,-0.0443,-0.2178,-0.3764,-0.6037,-0.7934,-0.9353,-1.2452,-1.5313,0.0,0.0,0.0,0.0,0.0,0.0,0.0,0.0,0.0,0.0,0.0,-2.8839,-2.78,-2.7184,-2.7187,-2.8011,-2.6411,-2.4996,-2.417,-2.3408,-2.1871,-1.8956,-1.6455,-1.4066,-1.1832,-1.1687,-1.1436,-1.0554,-0.9424,-0.8365,-0.7629,-0.7961,-0.8209,-0.8088,-0.7563,-0.7176,-0.7365,-0.652,-0.5693,-0.5325,-0.5821,-0.6401,-0.6589,-0.6391,-0.5978,-0.5398,-0.4479,-0.3121,-0.1118,0.0601,0.2569,0.5331,0.7042,0.875,1.0242,0.9848,0.8832,0.8888,0.8555,0.8484,-2.0921,-2.1292,-2.1248,-2.1341,-2.1682,-2.2688,-2.306,-2.2872,-2.2693,-2.2395,-2.1992,-2.1087,-2.0433,-1.999,-1.9708,-1.9527,-1.9426,-1.9374,-1.9169,-1.8899,-1.8899,-1.8812,-1.8635,-1.8037,-1.7557,-1.7136,-1.6764,-1.6573,-1.6607,-1.6705,-1.7096,-1.7593,-1.7732,-1.8072,-1.8607,-1.823,-1.8193,-1.8425,-1.7187,-1.5348,-1.2945,-0.9346,-0.6529,-0.4644,-0.3665,-0.3166,-0.3307,-0.7719,-0.9787,-0.895,-1.1706,-1.3957,-1.5218,-1.6129,-1.8104,0.0,-2.3188,0.0,0.0,0.0,0.0,0.0,0.0,0.0,0.0,-2.8878,-2.8479,-2.7364,-2.6867,-2.6377,-2.5673,-2.4099,-2.2749,-2.1747,-1.9847,-1.8266,-1.7398,-1.4114,-1.1284,-0.971,-0.9707,-0.9435,-0.8374,-0.7095,-0.5828,-0.5019,-0.4316,-0.4355,-0.503,-0.4532,-0.4024,-0.389,-0.2634,-0.1586,-0.1857,-0.1796,-0.1928,-0.2482,-0.192,-0.124,-0.0745,0.0332,0.1756,0.3493,0.5083,0.685,0.8815,1.031,1.1798,1.346,1.3434,1.277,1.1716,1.1083,1.0783,-2.1315,-2.0857,-2.1366,-2.1344,-2.1063,-2.1846,-2.2237,-2.2347,-2.1931,-2.1121,-2.0137,-1.9828,-1.978,-1.999,-1.9811,-1.9611,-1.9419,-1.9171,-1.8784,-1.8287,-1.8287,-1.8128,-1.7909,-1.7585,-1.7263,-1.695,-1.6817,-1.6854,-1.706,-1.724,-1.7852,-1.8755,-1.903,-1.9555,-2.0352,0.0,0.0,0.0,-1.9432,-1.8213,-1.6088,-1.2892,-0.9866,-0.7178,-0.4718,0.0,-0.2211,-0.3632,-0.4806,-0.5498,-0.8672,0.0,0.0,0.0,0.0,0.0,0.0,0.0,0.0,0.0,0.0,0.0,-2.7139,-2.7493,-2.704,-2.6709,-2.6273,-2.5561,-2.5669,-2.5045,-2.3215,-2.2539,-2.1216,-1.8798,-1.694,-1.5594,-1.4824,-1.2104,-0.9902,-0.9128,-0.8586,-0.785,-0.6789,-0.5448,-0.4391,-0.3962,-0.3099,-0.2479,-0.2458,-0.2526,-0.249,-0.2087,0.0894,0.2772,0.1411,0.175,0.2192,0.2139,0.2674,0.3242,0.3725,0.4409,0.5628,0.7393,0.8631,1.0159,1.265,1.331,1.3933,1.564,1.5518,1.4862,1.3945,1.3314,1.2628,-2.1966,-2.1769,-2.1479,-2.144,0.0,-2.1487,-2.1753,-2.2113,-2.151,-2.0757,-1.9939,-1.9978,-1.9978,-1.9971,-1.9959,-1.9613,-1.8929,-1.8942,-1.8599,-1.7989,-1.8072,-1.8016,-1.7831,-1.7599,-1.7365,-1.7204,-1.7248,-1.7353,-1.7489,-1.7666,-1.8235,-1.9114,-1.9224,-1.9698,-2.0613,-2.1097,-2.105,-2.0506,-2.0963,-2.0287,-1.8576,-1.7442,-1.6036,-1.4377,-1.4193,0.0,0.0,0.0,0.0,0.0,0.0,0.0,0.0,-1.98,0.0,-2.2316,-2.3946,-2.4989,-2.5164,-2.4975,-2.4493,-2.3601,-2.3525,-2.4035,-2.5297,-2.4456,-2.3823,-2.3772,-2.3531,-2.2581,-2.0682,-1.9558,-1.8147,-1.6202,-1.435,-1.3086,-1.2526,-1.0429,-0.8575,-0.7535,-0.6701,-0.5948,-0.5189,-0.4092,-0.3206,-0.2752,-0.218,-0.1643,-0.1191,-0.1212,-0.0905,0.06,0.4375,0.6606,0.5226,0.5337,0.5972,0.6344,0.6927,0.7466,0.8064,0.8627,0.9455,1.1017,1.1997,1.3115,1.4906,1.5688,1.6144,1.6934,1.6735,1.6134,1.5527,1.4595,1.3489,-2.2705,-2.2742,-2.1754,-2.1619,-2.2116,-2.145,-2.1427,-2.1886,-2.1317,0.0,0.0,-2.0472,-2.0358,-1.9991,-2.0025,-1.9514,-1.8564,-1.8676,-1.8474,-1.7937,-1.8017,-1.8035,-1.7961,-1.7761,-1.7673,-1.7679,-1.7881,-1.8013,-1.8052,-1.8173,-1.8571,-1.9251,-1.9239,-1.9612,-2.042,-2.0997,-2.1102,-2.0755,-2.1888,-2.1797,-2.0512,-2.1254,-2.1528,-2.1141,-2.3323,-2.4623,-2.4816,-2.6402,-2.6687,-2.5346,-2.4492,-2.3906,-2.3716,-2.3044,-2.2959,-2.3475,-2.3633,-2.3312,-2.2529,-2.2307,-2.182,-2.0873,-1.9837,-2.0447,-2.3206,-2.2211,-2.1582,-2.1884,-2.1169,-2.001,-1.8345,-1.6612,-1.5096,-1.3984,-1.2205,-1.1006,-1.0576,-0.9013,-0.737,-0.5981,-0.5148,-0.4379,-0.39,-0.3089,-0.2314,-0.1844,-0.1766,-0.1382,-0.0775,-0.0521,0.0534,0.3061,0.7049,0.9677,0.8582,0.877,0.9428,0.9936,1.0549,1.1214,1.1793,1.2336,1.3146,1.4122,1.4906,1.5749,1.6846,1.7432,1.7917,1.8106,1.7596,1.691,1.648,1.552,1.4286,-2.3466,-2.2544,-2.2637,-2.2041,-2.1227,-2.1526,-2.1458,-2.1041,-2.1107,-2.0799,-2.0233,-2.0372,-2.026,-1.9977,-2.0038,-1.9489,-1.8612,-1.8642,-1.8361,-1.792,-1.792,-1.7921,-1.7923,-1.7868,-1.8003,-1.8277,-1.8525,-1.8817,-1.9051,-1.9043,-1.9262,-1.9684,-1.9964,-2.0368,-2.0866,-2.0686,-2.0341,-2.0001,-2.1835,-2.2428,-2.1678,-2.1955,-2.1946,-2.16,-2.2634,-2.302,-2.254,-2.4316,-2.4554,-2.3001,-2.3371,-2.3095,-2.1866,-2.1349,-2.1066,-2.0966,-2.0903,-2.048,-1.9677,-2.0088,-2.0083,-1.9333,-1.8226,-1.8274,-1.9823,-2.0333,-2.0226,-1.9656,-1.9246,-1.8398,-1.6876,-1.5469,-1.3992,-1.2513,-1.1056,-0.9717,-0.86,-0.7749,-0.6759,-0.549,-0.4807,-0.4173,-0.3511,-0.2782,-0.2257,-0.2151,-0.2263,-0.2071,-0.1125,-0.0201,0.1367,0.4244,0.9084,1.1588,1.0673,1.1508,1.2246,1.2788,1.3438,1.3937,1.4206,1.4887,1.5741,1.6487,1.6903,1.7641,1.8647,1.8496,1.8514,1.8743,1.8231,1.7316,1.6297,1.6049,1.5634,-2.3952,-2.3538,-2.2936,-2.2491,-2.214,-2.1885,-2.1317,-2.0733,-2.0898,-2.0856,-2.0601,-2.0785,-2.0478,-1.9898,-1.9871,-1.9256,-1.8179,-1.8193,-1.7975,-1.7651,-1.7666,-1.7747,-1.7882,-1.8003,-1.8279,-1.865,-1.8959,-1.9258,-1.9522,-1.95,-1.9832,-2.0457,-2.085,-2.0914,-2.067,-2.0422,-2.0067,-1.9656,-2.0785,-2.1224,-2.0797,-2.1059,-2.1154,-2.0998,-2.1501,-2.1511,-2.1031,-2.195,-2.1835,-2.0519,-2.0709,-2.0129,-1.8452,-1.8601,-1.8172,-1.68,-1.7409,-1.7439,-1.6557,-1.6944,-1.7205,-1.7188,-1.6618,-1.6653,-1.7643,-1.8409,-1.8633,-1.816,-1.7899,-1.7176,-1.5677,-1.4406,-1.308,-1.1679,-1.0069,-0.858,-0.7354,-0.6444,-0.5607,-0.4629,-0.4111,-0.3704,-0.3257,-0.2755,-0.2444,-0.2572,-0.272,-0.2452,-0.1675,-0.0673,0.1095,0.4303,0.8822,1.155,1.1679,1.2593,1.3783,1.4851,1.5394,1.5884,1.6399,1.7097,1.7585,1.8301,1.87,1.9186,1.9982,1.9646,1.9371,1.9126,1.8592,1.7515,1.643,1.5497,1.3855,-2.4327,-2.4359,-2.3127,-2.2732,-2.2796,-2.2074,-2.129,-2.0638,-2.0694,-2.0759,-2.0864,-2.1073,-2.0631,-1.9789,-1.9792,-1.9123,-1.8085,-1.7989,-1.7868,-1.7679,-1.7666,-1.7774,-1.8029,-1.8189,-1.8567,-1.9058,-1.9362,-1.9654,-1.998,-1.9889,-2.0236,-2.0973,-2.1091,-2.0898,-2.0472,-2.0118,-1.9656,-1.9198,-1.9444,-1.9579,-1.9518,-1.9711,-1.9821,-1.9855,-1.9823,-1.9662,-1.9394,-1.9193,-1.8591,-1.7552,-1.7165,-1.6176,-1.4495,-1.4974,-1.4505,-1.2887,-1.3864,-1.453,-1.4164,-1.426,-1.4678,-1.5433,-1.5344,-1.5492,-1.6154,-1.6921,-1.7267,-1.7111,-1.6888,-1.6217,-1.4959,-1.359,-1.2416,-1.1282,-0.957,-0.8119,-0.6869,-0.5909,-0.5124,-0.4441,-0.3977,-0.3656,-0.3303,-0.3034,-0.2956,-0.3159,-0.3117,-0.2818,-0.2149,-0.1345,0.0479,0.3827,0.7689,1.0496,1.1786,1.2955,1.4246,1.6019,1.636,1.6826,1.7705,1.8313,1.8762,1.939,1.9752,1.9985,2.0483,2.0301,1.9811,1.9477,1.8644,1.7441,1.5835,1.4034,1.166,-2.4557,-2.4205,-2.3457,-2.2744,-2.2301,-2.1925,-2.1336,-2.0686,-2.0638,-2.0588,-2.0612,-2.0825,-2.0468,-1.971,-1.9734,-1.9306,-1.8456,-1.8333,-1.8293,-1.8361,-1.8202,-1.8242,-1.84,-1.8464,-1.8889,-1.953,-1.9654,-2.001,-2.0579,-2.0388,-2.0474,-2.0775,-2.0111,-2.0047,-2.0367,-1.9619,-1.8857,-1.8387,-1.8092,-1.8119,-1.849,-1.827,-1.8021,-1.7821,-1.7331,-1.6983,-1.6646,-1.5729,-1.4605,-1.3477,-1.2641,-1.146,-1.025,-1.0168,-1.0066,-0.9692,-1.0701,-1.178,-1.2957,-1.2822,-1.3344,-1.4686,-1.478,-1.4949,-1.5507,-1.6215,-1.6532,-1.6446,-1.6208,-1.5721,-1.4761,-1.3365,-1.2214,-1.1355,-0.9828,-0.8508,-0.7509,-0.6879,-0.6428,-0.601,-0.4973,-0.4448,-0.4128,-0.3797,-0.3729,-0.3823,-0.3606,-0.3226,-0.2619,-0.2285,-0.1013,0.2008,0.5489,0.851,1.0432,1.237,1.3677,1.5109,1.6126,1.6863,1.7777,1.862,1.9385,1.963,2.0056,2.0173,2.0272,2.0062,1.9848,1.9302,1.8288,1.6903,1.4831,1.2798,1.0316,-2.5371,-2.5297,-2.4302,-2.3426,-2.2709,-2.217,-2.1698,-2.1299,-2.0957,-2.0822,-2.0799,-2.0875,-2.0641,-2.0252,-2.0031,-1.9557,-1.9011,-1.8526,-1.8358,-1.8372,-1.8386,-1.8439,-1.8517,-1.8606,-1.9026,-1.953,-1.9632,-1.994,-2.0435,-2.0604,-2.0603,-2.0527,-2.0357,-2.0072,-1.9577,-1.9075,-1.8484,-1.7656,-1.7148,-1.6795,-1.6536,-1.6539,-1.6287,-1.5581,-1.4688,-1.3799,-1.3281,-1.2297,-1.1371,-1.0392,-0.9782,-0.8956,-0.7872,-0.8046,-0.7985,-0.7837,-0.9463,-1.0872,-1.188,-1.2384,-1.3004,-1.3808,-1.4339,-1.4922,-1.5556,-1.6262,-1.6696,-1.6786,-1.6568,-1.6026,-1.511,-1.4072,-1.2993,-1.1751,-1.0077,-0.8593,-0.7711,-0.6691,-0.5841,-0.5374,-0.5163,-0.4847,-0.4439,-0.4256,-0.424,-0.4191,-0.398,-0.3491,-0.2684,-0.2887,-0.1804,0.08,0.3328,0.5923,0.8709,1.0545,1.2119,1.3601,1.4721,1.5763,1.713,1.8091,1.876,1.9551,1.9992,2.0317,2.0688,1.9955,1.9455,1.8909,1.7331,1.5632,1.4429,1.2364,1.0014,-2.5843,-2.5683,-2.468,-2.3895,-2.329,-2.2649,-2.2217,-2.1841,-2.1348,-2.1055,-2.0983,-2.0961,-2.0882,-2.0751,-2.0223,-1.9795,-1.9402,-1.8691,-1.8397,-1.8436,-1.8503,-1.8542,-1.8659,-1.8798,-1.9124,-1.9493,-1.9632,-1.9812,-2.0212,-2.0502,-2.049,-2.0294,-2.0359,-1.9963,-1.908,-1.8773,-1.8078,-1.7105,-1.6563,-1.5869,-1.5168,-1.5047,-1.4765,-1.4009,-1.2832,-1.1819,-1.1077,-0.9947,-0.8998,-0.8229,-0.7619,-0.6986,-0.6362,-0.6617,-0.6832,-0.7042,-0.8543,-0.9854,-1.0637,-1.1646,-1.2498,-1.3069,-1.385,-1.4621,-1.5535,-1.6284,-1.6761,-1.7022,-1.693,-1.644,-1.5477,-1.4349,-1.3185,-1.1975,-1.0069,-0.8475,-0.77,-0.6637,-0.5842,-0.5239,-0.5562,-0.5415,-0.484,-0.4653,-0.4637,-0.4374,-0.4088,-0.3558,-0.2618,-0.2681,-0.2125,0.0323,0.1804,0.3862,0.6925,0.8946,1.0472,1.2209,1.3621,1.5057,1.6464,1.7516,1.8366,1.9399,1.989,2.0201,2.0339,1.9754,1.8864,1.8415,1.6816,1.4663,1.3671,1.1899,1.052,-2.578,-2.5044,-2.428,-2.3864,-2.3806,-2.3375,-2.2846,-2.21,-2.1595,-2.1224,-2.1028,-2.1006,-2.1055,-2.1067,-2.0298,-1.9766,-1.9512,-1.8798,-1.8567,-1.8721,-1.8581,-1.8697,-1.9078,-1.9116,-1.9288,-1.9603,-1.9566,-1.9726,-2.0005,-2.0015,-2.0137,-2.0259,-1.9767,-1.9461,-1.9279,-1.848,-1.7641,-1.6846,-1.6387,-1.569,-1.4656,-1.4108,-1.3729,-1.3314,-1.2388,-1.1598,-1.0893,-0.9046,-0.7767,-0.7108,-0.6072,-0.538,-0.5439,-0.5777,-0.6467,-0.7401,-0.7735,-0.8326,-0.9392,-1.0383,-1.1388,-1.2526,-1.3077,-1.3763,-1.5182,-1.6082,-1.6592,-1.6826,-1.6995,-1.6624,-1.5558,-1.3828,-1.2412,-1.1751,-0.9769,-0.833,-0.7771,-0.7241,-0.6815,-0.6338,-0.6333,-0.6151,-0.5559,-0.5288,-0.4797,-0.4351,-0.4017,-0.3286,-0.2281,-0.188,-0.1127,0.0127,0.1583,0.301,0.5267,0.7303,0.9378,1.1205,1.288,1.4638,1.6163,1.7512,1.839,1.9104,1.9512,1.976,1.9828,1.9369,1.8376,1.7417,1.5844,1.4119,1.3299,1.2218,1.1065,-2.5583,-2.4479,-2.403,-2.3542,-2.301,-2.2646,-2.2354,-2.2061,-2.1234,-2.1121,-2.1343,-2.0934,-2.0879,-2.1161,-2.0129,-1.9757,-1.9768,-1.8833,-1.8528,-1.8784,-1.8827,-1.8979,-1.9228,-1.913,-1.9139,-1.9347,-1.9124,-1.9221,-1.9603,-1.9639,-1.9685,-1.9693,-1.9406,-1.899,-1.848,-1.8031,-1.7416,-1.6646,-1.6036,-1.5347,-1.4592,-1.3909,-1.3282,-1.2506,-1.1583,-1.0904,-1.0503,-0.9124,-0.8131,-0.7641,-0.6948,-0.6599,-0.6556,-0.6621,-0.6832,-0.7405,-0.7971,-0.8563,-0.9071,-1.0073,-1.083,-1.129,-1.2847,-1.391,-1.4732,-1.6132,-1.7206,-1.7055,-1.6635,-1.6154,-1.5534,-1.4133,-1.2785,-1.1635,-0.9923,-0.8448,-0.7871,-0.7289,-0.6709,-0.6322,-0.6283,-0.6196,-0.5892,-0.5522,-0.4958,-0.4094,-0.3359,-0.2406,-0.1477,-0.1143,-0.0662,0.0879,0.2008,0.3049,0.447,0.6199,0.801,0.9902,1.1749,1.3531,1.51,1.6971,1.8075,1.8859,1.9266,1.9458,1.9497,1.8459,1.758,1.5976,1.4409,1.3936,1.3187,1.2388,1.1682,-2.5402,-2.4486,-2.3859,-2.3374,-2.2945,-2.2428,-2.2233,-2.2127,-2.1096,-2.1018,-2.1437,-2.0752,-2.063,-2.0766,-1.9913,-1.9512,-1.9541,-1.8686,-1.8436,-1.8784,-1.8812,-1.9017,-1.9228,-1.9017,-1.8912,-1.8959,-1.8731,-1.8731,-1.902,-1.9147,-1.9161,-1.9026,-1.8974,-1.8539,-1.7841,-1.7544,-1.7029,-1.6228,-1.567,-1.5133,-1.4434,-1.3717,-1.298,-1.2137,-1.0981,-1.0236,-1.0076,-0.9074,-0.8295,-0.7861,-0.7401,-0.7144,-0.7213,-0.7397,-0.7476,-0.7522,-0.8132,-0.8527,-0.8796,-0.9763,-1.0454,-1.0759,-1.2435,-1.369,-1.4059,-1.5672,-1.6395,-1.625,-1.5834,-1.5265,-1.4434,-1.3399,-1.2349,-1.1215,-0.957,-0.8184,-0.7433,-0.6966,-0.6533,-0.6168,-0.6034,-0.5887,-0.5647,-0.5315,-0.4575,-0.3595,-0.2711,-0.1767,-0.0602,-0.0469,-0.0132,0.1616,0.2745,0.3621,0.4713,0.5952,0.7741,0.9597,1.1503,1.299,1.4622,1.6422,1.7687,1.8461,1.8909,1.9138,1.8658,1.7646,1.6258,1.4669,1.4013,1.3633,1.3162,1.2796,1.2204,-2.5257,-2.4809,-2.3801,-2.3405,-2.3391,-2.2702,-2.2548,-2.2319,-2.1119,-2.0793,-2.1144,-2.0456,-2.0192,-2.0253,-1.9383,-1.8976,-1.8771,-1.8274,-1.8254,-1.863,-1.8542,-1.8697,-1.9026,-1.8745,-1.8539,-1.8539,-1.85,-1.8383,-1.8344,-1.8461,-1.85,-1.8358,-1.8411,-1.8042,-1.7488,-1.7089,-1.6484,-1.5693,-1.5422,-1.4883,-1.3974,-1.3386,-1.2797,-1.2243,-1.0768,-0.9838,-0.9806,-0.8739,-0.7981,-0.748,-0.6916,-0.6726,-0.7231,-0.7837,-0.8142,-0.7767,-0.7964,-0.8138,-0.8274,-0.9189,-1.0282,-1.0982,-1.2009,-1.2931,-1.3539,-1.4247,-1.4595,-1.4414,-1.4197,-1.3632,-1.2248,-1.1139,-1.0537,-1.034,-0.8587,-0.7111,-0.6519,-0.6372,-0.6381,-0.6081,-0.5747,-0.5391,-0.4993,-0.4727,-0.4118,-0.3066,-0.2234,-0.1328,0.0,0.0268,0.0786,0.1982,0.3355,0.4451,0.5102,0.593,0.7721,0.9572,1.1411,1.3177,1.4776,1.6465,1.7441,1.8209,1.8147,1.8287,1.7174,1.6138,1.5431,1.4189,1.3776,1.324,1.2941,1.2653,1.2833,-2.4365,-2.3693,-2.3143,-2.2739,-2.2501,-2.1892,-2.1651,-2.1629,-2.0406,-2.0136,-2.0406,-1.971,-1.9197,-1.8965,-1.8409,-1.7997,-1.7708,-1.7282,-1.738,-1.7908,-1.7975,-1.8201,-1.8553,-1.8344,-1.8055,-1.7828,-1.7922,-1.7868,-1.7787,-1.7841,-1.7801,-1.772,-1.7544,-1.7256,-1.6808,-1.6479,-1.6034,-1.5636,-1.5182,-1.4806,-1.4421,-1.3514,-1.2749,-1.2156,-1.0875,-0.9886,-0.9355,-0.8539,-0.7854,-0.7335,-0.7329,-0.7334,-0.741,-0.7526,-0.7627,-0.7574,-0.7693,-0.7911,-0.8137,-0.9053,-0.982,-1.0413,-1.1611,-1.2369,-1.2656,-1.369,-1.3932,-1.3132,-1.2755,-1.213,-1.0965,-0.9591,-0.8829,-0.8954,-0.7528,-0.6357,-0.5873,-0.5496,-0.5226,-0.5117,-0.5171,-0.4952,-0.4484,-0.4241,-0.372,-0.2443,-0.1594,-0.0622,0.0452,0.1385,0.2206,0.3144,0.4296,0.5201,0.5762,0.6473,0.7863,0.949,1.1236,1.2869,1.4524,1.5904,1.6921,1.7346,1.7347,1.677,1.5633,1.4818,1.4098,1.3476,1.2771,1.2523,1.2394,1.2504,1.2669,-2.4144,-2.3038,-2.2868,-2.2517,-2.2039,-2.1584,-2.1406,-2.1142,-2.0125,-1.9769,-1.9851,-1.9193,-1.861,-1.8164,-1.7713,-1.7293,-1.6822,-1.6365,-1.6411,-1.6951,-1.7297,-1.7625,-1.7988,-1.7625,-1.7297,-1.7073,-1.7102,-1.7186,-1.7186,-1.7131,-1.7076,-1.6938,-1.6769,-1.6429,-1.5988,-1.587,-1.5684,-1.5311,-1.5039,-1.4745,-1.4373,-1.3652,-1.2878,-1.219,-1.0931,-0.9962,-0.9365,-0.8375,-0.7591,-0.7199,-0.7265,-0.7391,-0.7396,-0.733,-0.7265,-0.7265,-0.7391,-0.7534,-0.7726,-0.8714,-0.953,-0.9807,-1.0957,-1.1727,-1.1805,-1.2707,-1.2396,-1.167,-1.0973,-1.0241,-0.9085,-0.7919,-0.7026,-0.6597,-0.6176,-0.5592,-0.5164,-0.4343,-0.3959,-0.3904,-0.4064,-0.3901,-0.3644,-0.3339,-0.293,-0.1638,-0.0663,0.0122,0.1131,0.2091,0.2926,0.3991,0.5251,0.597,0.6417,0.7226,0.8093,0.9435,1.0972,1.2364,1.3883,1.499,1.6011,1.5949,1.5955,1.514,1.4077,1.3471,1.2805,1.2251,1.1879,1.1862,1.1854,1.2062,1.2313,-2.4436,-2.2946,-2.2971,-2.2693,-2.2169,-2.1877,-2.1569,-2.112,-2.0218,-1.9706,-1.9444,-1.8874,-1.8262,-1.7747,-1.7173,-1.6715,-1.6184,-1.5715,-1.5546,-1.5844,-1.6312,-1.6866,-1.7214,-1.6752,-1.6411,-1.6269,-1.6207,-1.6262,-1.638,-1.6256,-1.6244,-1.5959,-1.5828,-1.5664,-1.5119,-1.5263,-1.5147,-1.4792,-1.4938,-1.4736,-1.4147,-1.3661,-1.3216,-1.2591,-1.1003,-0.9996,-0.9554,-0.8242,-0.726,-0.6924,-0.6929,-0.6999,-0.7138,-0.7326,-0.7064,-0.6802,-0.7003,-0.7177,-0.7372,-0.8148,-0.8903,-0.9346,-0.9999,-1.0514,-1.0894,-1.0531,-1.0158,-0.9747,-0.9072,-0.8,-0.6822,-0.5896,-0.5023,-0.4048,-0.4326,-0.4388,-0.384,-0.2854,-0.2475,-0.2653,-0.2699,-0.2529,-0.2375,-0.2047,-0.1402,-0.0479,0.0471,0.1134,0.1834,0.262,0.3259,0.4487,0.5919,0.6522,0.6961,0.741,0.8249,0.907,1.0424,1.1597,1.2972,1.4057,1.4483,1.4427,1.4268,1.3427,1.2679,1.2044,1.1626,1.1262,1.1101,1.1149,1.1283,1.1454,1.184,-2.4067,-2.2559,-2.2949,-2.2693,-2.2045,-2.2049,-2.1534,-2.0693,-2.0071,-1.9449,-1.8897,-1.8384,-1.7555,-1.6524,-1.617,-1.5668,-1.52,-1.4913,-1.5017,-1.5232,-1.5311,-1.5788,-1.6194,-1.592,-1.5656,-1.5567,-1.5433,-1.5287,-1.505,-1.4937,-1.4744,-1.4607,-1.4538,-1.4411,-1.4312,-1.4505,-1.4589,-1.4707,-1.4972,-1.512,-1.4849,-1.4064,-1.3425,-1.2834,-1.1351,-1.0288,-0.9518,-0.7702,-0.6863,-0.7064,-0.6741,-0.6675,-0.6876,-0.6675,-0.6474,-0.6609,-0.6736,-0.6872,-0.7081,-0.7739,-0.8267,-0.8555,-0.9132,-0.9653,-0.9616,-0.9064,-0.8366,-0.7706,-0.6951,-0.6093,-0.4918,-0.4103,-0.3224,-0.2284,-0.2514,-0.2623,-0.2179,-0.1681,-0.1195,-0.0653,-0.1115,-0.1349,-0.1245,-0.0956,-0.0421,0.0424,0.1251,0.1918,0.2626,0.3349,0.4047,0.5173,0.6343,0.6958,0.7474,0.779,0.83,0.8858,0.9788,1.0668,1.191,1.307,1.3003,1.2701,1.2552,1.1926,1.1283,1.0611,1.0395,1.0216,1.0308,1.0309,1.0497,1.0712,1.1142,-2.3854,-2.2509,-2.2949,-2.2822,-2.2329,-2.2231,-2.1621,-2.0659,-1.9944,-1.9207,-1.85,-1.7988,-1.7118,-1.5932,-1.5623,-1.5142,-1.4569,-1.4384,-1.4373,-1.4351,-1.419,-1.4571,-1.5085,-1.4994,-1.4892,-1.4801,-1.4652,-1.4492,-1.4307,-1.3924,-1.3747,-1.3747,-1.3474,-1.3491,-1.3903,-1.4094,-1.428,-1.4557,-1.4824,-1.5023,-1.4883,-1.3923,-1.3312,-1.2704,-1.1476,-1.0161,-0.8748,-0.7461,-0.6884,-0.6696,-0.6214,-0.6017,-0.628,-0.5818,-0.5683,-0.6013,-0.6083,-0.6233,-0.6454,-0.7003,-0.7389,-0.7402,-0.7844,-0.8345,-0.8425,-0.7657,-0.6334,-0.5132,-0.4848,-0.42,-0.3222,-0.2341,-0.1462,-0.0741,-0.0685,-0.0852,-0.09,-0.0575,0.0,0.0425,0.0182,-0.0361,-0.0184,0.0123,0.0737,0.1404,0.2327,0.2939,0.3579,0.4201,0.4912,0.6043,0.7121,0.7909,0.8177,0.8396,0.8694,0.9179,0.9553,1.0314,1.0929,1.1982,1.1672,1.134,1.0974,1.0553,0.992,0.9488,0.9268,0.9205,0.9376,0.9526,0.9729,1.0122,1.0529,-2.3716,-2.2767,-2.3008,-2.2948,-2.2674,-2.2362,-2.1659,-2.0758,-1.9856,-1.9093,-1.8416,-1.7801,-1.6909,-1.58,-1.5551,-1.5005,-1.4388,-1.4265,-1.393,-1.3611,-1.3329,-1.3443,-1.3931,-1.4082,-1.4035,-1.3988,-1.3779,-1.3663,-1.3558,-1.3198,-1.3113,-1.3135,-1.2832,-1.3055,-1.3606,-1.3931,-1.4176,-1.4345,-1.461,-1.465,-1.4369,-1.3631,-1.3017,-1.252,-1.1094,-0.9576,-0.8268,-0.7384,-0.6953,-0.6148,-0.5428,-0.5322,-0.5449,-0.4979,-0.4824,-0.502,-0.5219,-0.5342,-0.5498,-0.6069,-0.6295,-0.6055,-0.594,-0.6545,-0.7021,-0.5797,-0.4138,-0.3113,-0.2945,-0.2558,-0.1673,-0.0617,-0.0057,0.035,0.0648,0.0468,0.0115,0.0417,0.0986,0.1489,0.1117,0.0804,0.0992,0.136,0.1973,0.2751,0.3463,0.3969,0.4579,0.5258,0.594,0.6793,0.7952,0.9051,0.9052,0.8957,0.9256,0.9599,0.9716,1.0127,1.0181,1.0701,1.045,1.0136,0.9964,0.9471,0.8699,0.8353,0.8281,0.8215,0.8301,0.8598,0.8964,0.9519,0.9968,-2.3939,-2.3199,-2.3467,-2.2848,-2.1956,-2.2061,-2.1545,-2.0427,-1.9612,-1.9037,-1.8658,-1.7963,-1.6866,-1.5668,-1.5603,-1.5185,-1.4356,-1.4296,-1.4144,-1.3249,-1.2702,-1.2406,-1.2626,-1.292,-1.3152,-1.3104,-1.2803,-1.255,-1.2403,-1.2302,-1.2141,-1.2335,-1.274,-1.2997,-1.3355,-1.3948,-1.4176,-1.4232,-1.452,-1.4579,-1.43,-1.3571,-1.2826,-1.2212,-1.0584,-0.9198,-0.8172,-0.7367,-0.6647,-0.5855,-0.5251,-0.4891,-0.4594,-0.4266,-0.4095,-0.422,-0.4417,-0.4515,-0.4619,-0.483,-0.5008,-0.4774,-0.4107,-0.3981,-0.4997,-0.3713,-0.2587,-0.2119,-0.1896,-0.1228,-0.0337,0.0172,0.0585,0.101,0.1342,0.1422,0.1218,0.1285,0.1699,0.2134,0.2065,0.1992,0.2481,0.2552,0.3207,0.4122,0.4657,0.5041,0.5571,0.6248,0.6934,0.7643,0.8667,0.9637,0.9518,0.9499,0.9728,0.9904,1.0007,0.9888,0.9938,0.9807,0.9728,0.9439,0.9078,0.8405,0.7755,0.7573,0.7522,0.7392,0.7404,0.7842,0.8358,0.8949,0.9712,-2.3317,-2.307,-2.3274,-2.297,-2.2367,-2.2007,-2.1525,-2.075,-1.9372,-1.8745,-1.8547,-1.784,-1.6766,-1.5582,-1.5654,-1.5202,-1.4205,-1.3739,-1.3336,-1.268,-1.2069,-1.1643,-1.1524,-1.1808,-1.2076,-1.2274,-1.2076,-1.1877,-1.1813,-1.166,-1.18,-1.2263,-1.2582,-1.305,-1.3562,-1.396,-1.4089,-1.4059,-1.4182,-1.4181,-1.3932,-1.3321,-1.2328,-1.1399,-0.9894,-0.8753,-0.7722,-0.7162,-0.619,-0.5267,-0.4634,-0.4232,-0.3844,-0.3522,-0.3357,-0.3353,-0.3351,-0.3398,-0.3412,-0.3294,-0.3122,-0.2939,-0.2071,-0.2014,-0.2053,-0.1291,-0.0614,-0.0335,-0.0056,0.0225,0.0688,0.0986,0.1243,0.1406,0.175,0.1908,0.1858,0.2055,0.2395,0.2788,0.2747,0.2796,0.3051,0.3578,0.4041,0.4796,0.5743,0.6163,0.6374,0.7017,0.7722,0.8492,0.9414,1.0045,0.9923,1.0,1.0222,1.0291,1.0317,0.9982,0.9648,0.9451,0.9248,0.888,0.8411,0.7723,0.7156,0.6948,0.6856,0.6861,0.6966,0.7349,0.774,0.827,0.9155,-2.261,-2.2825,-2.2866,-2.2984,-2.2907,-2.1934,-2.1522,-2.1269,-1.9307,-1.8563,-1.8419,-1.7709,-1.6626,-1.5788,-1.5759,-1.512,-1.3965,-1.2922,-1.2425,-1.2033,-1.1392,-1.1005,-1.0877,-1.0962,-1.1082,-1.1536,-1.1368,-1.1368,-1.1472,-1.1479,-1.1735,-1.2502,-1.2796,-1.3282,-1.3949,-1.4164,-1.4148,-1.4049,-1.3914,-1.364,-1.3329,-1.2728,-1.1732,-1.0395,-0.9454,-0.8436,-0.7484,-0.6914,-0.6056,-0.4508,-0.3958,-0.3363,-0.2843,-0.2619,-0.235,-0.235,-0.2079,-0.1804,-0.1661,-0.1506,-0.1225,-0.0577,-0.0367,-0.0117,0.0114,0.045,0.1061,0.1507,0.1679,0.1527,0.158,0.1896,0.2064,0.2196,0.2296,0.2345,0.2395,0.2811,0.3368,0.3412,0.3568,0.3744,0.405,0.4528,0.4998,0.5513,0.6502,0.7237,0.7373,0.7688,0.8407,0.9009,0.9838,1.058,1.0567,1.0227,1.0473,1.0651,1.0615,1.0042,0.9494,0.9203,0.8922,0.8311,0.7778,0.7203,0.6834,0.675,0.6638,0.6462,0.6532,0.6828,0.7204,0.7607,0.8513,-2.3024,-2.3243,-2.2804,-2.2364,-2.2004,-2.1454,-2.1175,-2.0765,-1.9216,-1.8861,-1.9131,-1.7739,-1.6669,-1.6124,-1.6099,-1.5235,-1.3775,-1.2595,-1.184,-1.1411,-1.0836,-1.0458,-1.0287,-1.0294,-1.0325,-1.0192,-1.03,-1.0616,-1.1029,-1.127,-1.176,-1.2431,-1.3365,-1.4107,-1.4182,-1.4622,-1.4486,-1.3923,-1.3761,-1.3398,-1.2858,-1.2112,-1.1296,-0.9831,-0.9075,-0.8242,-0.7396,-0.6828,-0.5981,-0.4448,-0.3847,-0.2627,-0.1479,-0.1074,-0.0872,-0.0738,-0.0402,-0.0067,0.0334,0.0333,0.0588,0.1022,0.124,0.1027,0.1177,0.154,0.2301,0.2621,0.2854,0.2832,0.3157,0.3241,0.3525,0.3634,0.3531,0.3387,0.3195,0.3916,0.475,0.4677,0.4712,0.4681,0.5114,0.5529,0.6032,0.6426,0.7096,0.7724,0.7985,0.844,0.9013,0.9599,1.0112,1.0805,1.1279,1.0847,1.0688,1.0872,1.074,1.0063,0.9534,0.9036,0.8567,0.7975,0.7572,0.7118,0.6818,0.6601,0.636,0.6199,0.627,0.633,0.6685,0.7104,0.7543,-2.1667,-2.21,-2.1941,-2.1755,-2.1523,-2.1052,-2.0983,-2.0825,-1.9061,-1.8585,-1.8672,-1.7665,-1.6483,-1.5975,-1.605,-1.5128,-1.3417,-1.2143,-1.1381,-1.0807,-1.0343,-0.9952,-0.9721,-0.975,-0.9646,-0.9544,-0.9577,-1.0038,-1.0756,-1.1307,-1.1837,-1.2689,-1.3714,-1.4137,-1.4145,-1.446,-1.4369,-1.3769,-1.3398,-1.3094,-1.2498,-1.1685,-1.0598,-0.9837,-0.8748,-0.7842,-0.7125,-0.6408,-0.5345,-0.3951,-0.3218,-0.1945,-0.0537,0.0604,0.0872,0.0871,0.1272,0.1806,0.2339,0.2466,0.2969,0.3262,0.3303,0.3237,0.3162,0.3416,0.3798,0.3863,0.3589,0.3708,0.4183,0.4421,0.4694,0.4945,0.4713,0.4544,0.4832,0.5805,0.6138,0.611,0.5793,0.5766,0.6011,0.6511,0.7062,0.7466,0.7842,0.8234,0.858,0.9039,0.9508,0.9876,1.0365,1.0869,1.1341,1.1143,1.0748,1.0907,1.0775,1.0094,0.9425,0.8915,0.8293,0.7755,0.7313,0.7119,0.6667,0.6349,0.6117,0.5915,0.5849,0.5948,0.6244,0.658,0.691,-2.0064,-2.0633,-2.0769,-2.093,-2.0988,-2.0527,-2.058,-2.0585,-1.881,-1.8302,-1.871,-1.7428,-1.6272,-1.5616,-1.5189,-1.4449,-1.2716,-1.1663,-1.0905,-1.0266,-0.992,-0.9522,-0.9363,-0.9197,-0.9187,-0.9299,-0.9263,-0.9655,-1.0562,-1.1186,-1.1955,-1.2702,-1.3532,-1.401,-1.407,-1.4419,-1.4001,-1.3519,-1.3086,-1.2789,-1.2112,-1.1178,-1.0231,-0.9767,-0.8415,-0.7381,-0.6728,-0.5741,-0.4547,-0.328,-0.2213,-0.1141,0.0537,0.2143,0.2744,0.2542,0.3009,0.3542,0.4135,0.4659,0.5107,0.5415,0.5691,0.5494,0.5348,0.5441,0.581,0.5405,0.5039,0.4829,0.5428,0.5697,0.6053,0.6201,0.6013,0.5793,0.6595,0.7409,0.8077,0.7795,0.7048,0.6941,0.7231,0.7339,0.7871,0.8224,0.8593,0.885,0.9218,0.9429,0.9796,1.0104,1.0509,1.096,1.1248,1.135,1.0988,1.0827,1.0555,0.9991,0.9307,0.8675,0.8171,0.7735,0.7421,0.7176,0.6657,0.6228,0.6057,0.5834,0.5549,0.554,0.5815,0.587,0.5959,-1.9157,-1.9362,-1.9503,-1.9722,-1.9927,-1.9647,-1.971,-1.9775,-1.8597,-1.8416,-1.8863,-1.7157,-1.6221,-1.5602,-1.412,-1.3076,-1.2173,-1.1413,-1.0674,-0.9996,-0.9624,-0.9414,-0.9318,-0.9141,-0.9133,-0.9148,-0.9263,-0.9584,-1.0272,-1.0966,-1.1744,-1.2476,-1.3453,-1.413,-1.4061,-1.4359,-1.4369,-1.3769,-1.3338,-1.265,-1.1553,-1.0681,-1.004,-0.9262,-0.8161,-0.7055,-0.6199,-0.5011,-0.3613,-0.2345,-0.1139,0.0201,0.181,0.3274,0.4276,0.4806,0.5272,0.5734,0.6187,0.6641,0.6967,0.733,0.7448,0.7248,0.7144,0.7105,0.7161,0.6722,0.6599,0.6754,0.7027,0.7581,0.7914,0.8027,0.7914,0.7733,0.8125,0.9296,0.9874,0.9806,0.9112,0.8629,0.8581,0.8551,0.8679,0.8988,0.9354,0.9562,0.9792,0.9941,1.0121,1.0424,1.0559,1.0955,1.113,1.1158,1.1031,1.0735,1.0296,0.9862,0.9302,0.8714,0.8382,0.803,0.7639,0.7214,0.6677,0.6346,0.6077,0.5745,0.5386,0.5322,0.5428,0.5345,0.5134,-1.6525,-1.7632,-1.7807,-1.8186,-1.8638,-1.8531,-1.8833,-1.9024,-1.81,-1.8014,-1.836,-1.7089,-1.6084,-1.5324,-1.3618,-1.2605,-1.1933,-1.121,-1.0485,-0.9914,-0.9501,-0.9234,-0.9136,-0.9028,-0.8963,-0.9196,-0.9263,-0.948,-1.0016,-1.0686,-1.1503,-1.247,-1.3197,-1.3738,-1.3948,-1.4181,-1.395,-1.3528,-1.2911,-1.2042,-1.1052,-1.0428,-0.9913,-0.9075,-0.7697,-0.6785,-0.5793,-0.4342,-0.2945,-0.1676,-0.0402,0.1138,0.2808,0.44,0.5654,0.6902,0.7558,0.7757,0.7687,0.8334,0.879,0.9041,0.9064,0.9017,0.8895,0.867,0.8596,0.8494,0.8231,0.8285,0.8758,0.9408,0.9768,0.9984,0.9962,0.9819,0.9951,1.0952,1.1697,1.1455,1.1225,1.0609,1.0059,0.9895,0.9859,0.9873,1.0079,1.019,1.0344,1.0435,1.055,1.0665,1.0771,1.0925,1.0967,1.0979,1.0781,1.0456,1.0026,0.9629,0.9344,0.8914,0.8589,0.8155,0.7723,0.7192,0.6764,0.6277,0.583,0.5483,0.5145,0.53,0.5303,0.4861,0.4537,-1.3692,-1.5187,-1.6066,-1.6753,-1.7394,-1.7508,-1.7857,-1.8297,-1.7499,-1.7454,-1.7693,-1.684,-1.5815,-1.4869,-1.3612,-1.2772,-1.2129,-1.1323,-1.0696,-1.0184,-0.9748,-0.9452,-0.9388,-0.9225,-0.918,-0.933,-0.9344,-0.9649,-0.9992,-1.0455,-1.1146,-1.2396,-1.2811,-1.3267,-1.356,-1.3708,-1.358,-1.3111,-1.249,-1.1502,-1.051,-1.0135,-0.9358,-0.8377,-0.7237,-0.6171,-0.5215,-0.36,-0.2076,-0.1072,0.0602,0.2341,0.4005,0.5328,0.6706,0.7952,0.886,0.9372,0.9366,0.9755,1.0275,1.0382,1.0283,1.0111,0.996,0.9781,0.9535,0.9477,0.9323,0.9487,1.0099,1.0777,1.1152,1.1592,1.2048,1.1867,1.1811,1.253,1.3175,1.3283,1.2932,1.2364,1.189,1.1442,1.1154,1.0912,1.0863,1.0922,1.0871,1.0871,1.0892,1.099,1.1207,1.122,1.1041,1.0902,1.0608,1.02,0.9765,0.9462,0.9268,0.9012,0.8769,0.8274,0.7829,0.7451,0.7095,0.6314,0.5566,0.5438,0.5367,0.5268,0.5176,0.4726,0.4535,-1.1155,-1.1586,-1.4373,-1.5775,-1.6287,-1.6678,-1.684,-1.7095,-1.6909,-1.6822,-1.689,-1.6166,-1.5273,-1.4355,-1.3867,-1.3164,-1.2414,-1.2255,-1.1578,-1.0885,-1.0438,-1.0147,-0.9985,-0.9795,-0.9749,-0.9944,-0.9799,-0.9914,-1.024,-1.0126,-1.0841,-1.1647,-1.2282,-1.2804,-1.3101,-1.3296,-1.2956,-1.249,-1.1864,-1.1008,-1.0073,-0.9381,-0.852,-0.7173,-0.6252,-0.5205,-0.3604,-0.2235,-0.1065,-0.0333,0.1604,0.3407,0.4932,0.6125,0.7437,0.8667,0.9697,1.0275,1.0717,1.0787,1.0989,1.1155,1.1074,1.0799,1.0624,1.0094,0.9847,1.0016,1.0082,1.0341,1.0909,1.1534,1.2126,1.2611,1.3014,1.3228,1.3262,1.3657,1.4264,1.4858,1.4535,1.3773,1.3528,1.3106,1.2543,1.2241,1.1778,1.1769,1.1293,1.1201,1.1146,1.1255,1.1644,1.1613,1.1249,1.1016,1.0613,1.0194,0.974,0.946,0.9203,0.9017,0.8941,0.8669,0.8255,0.7807,0.7401,0.6801,0.6211,0.5779,0.5594,0.5699,0.5583,0.5309,0.5243,-1.016,-1.0555,-1.2254,-1.3445,-1.4213,-1.4683,-1.529,-1.5785,-1.5702,-1.5869,-1.6224,-1.5423,-1.4887,-1.4453,-1.3697,-1.3266,-1.2737,-1.2185,-1.1866,-1.1388,-1.0894,-1.0497,-1.0303,-1.011,-0.9903,-1.0045,-0.9925,-0.9966,-1.0165,-1.0123,-1.0453,-1.1118,-1.1771,-1.247,-1.2827,-1.2684,-1.2205,-1.16,-1.1073,-1.0319,-0.9136,-0.8488,-0.7613,-0.6415,-0.5204,-0.4222,-0.2945,-0.1479,-0.0325,0.0917,0.2588,0.4193,0.5727,0.6854,0.8021,0.9314,1.0275,1.0982,1.1677,1.1809,1.1996,1.1919,1.179,1.1571,1.1193,1.0906,1.0927,1.0969,1.0926,1.1107,1.1661,1.2316,1.2884,1.336,1.3756,1.4121,1.4436,1.4688,1.5177,1.5583,1.5249,1.4658,1.4661,1.4677,1.409,1.3574,1.302,1.2512,1.2072,1.1589,1.1593,1.151,1.1874,1.1655,1.1331,1.0986,1.0674,1.0174,0.9712,0.9562,0.9399,0.9216,0.9109,0.8885,0.8724,0.8346,0.7908,0.7414,0.6935,0.6412,0.6257,0.636,0.6165,0.5884,0.6118,-0.898,-0.938,-1.0305,-1.1458,-1.26,-1.3207,-1.3922,-1.4505,-1.4443,-1.4849,-1.5487,-1.4978,-1.475,-1.4483,-1.3997,-1.3329,-1.298,-1.2421,-1.2104,-1.1621,-1.1077,-1.0735,-1.0541,-1.0303,-1.0023,-1.0041,-0.9944,-0.9995,-1.021,-1.0151,-1.0338,-1.0694,-1.1197,-1.1859,-1.2169,-1.2004,-1.1344,-1.0836,-1.0179,-0.9363,-0.8142,-0.7536,-0.6419,-0.5307,-0.4183,-0.3053,-0.1836,-0.0436,0.0764,0.1997,0.3459,0.5029,0.6375,0.7512,0.8544,0.9767,1.0667,1.1303,1.2058,1.2436,1.2498,1.2228,1.2142,1.1902,1.1737,1.1492,1.1323,1.1444,1.1506,1.1748,1.2145,1.2755,1.3358,1.3825,1.4191,1.4573,1.4926,1.5245,1.5768,1.6265,1.5884,1.5776,1.6045,1.6052,1.5384,1.4654,1.3881,1.339,1.2912,1.2443,1.2073,1.2069,1.2075,1.1727,1.1221,1.0947,1.0678,1.0392,0.9952,0.9851,0.971,0.9513,0.9385,0.915,0.899,0.8761,0.8438,0.8072,0.758,0.7092,0.7013,0.7088,0.6965,0.6832,0.7315,-0.7507,-0.7683,-0.873,-1.0199,-1.1787,-1.2649,-1.2952,-1.3158,-1.3508,-1.4066,-1.4771,-1.4984,-1.4896,-1.4543,-1.4153,-1.3696,-1.3128,-1.2606,-1.2181,-1.1714,-1.103,-1.0934,-1.0664,-1.0317,-1.0029,-1.0434,-1.0105,-0.9877,-1.0174,-0.99,-0.9997,-1.0174,-1.047,-1.0946,-1.1376,-1.1062,-1.0696,-1.0388,-0.9436,-0.8283,-0.7223,-0.6577,-0.528,-0.4027,-0.3006,-0.1965,-0.0712,0.0544,0.1793,0.2959,0.429,0.5921,0.7593,0.7772,0.8818,1.0478,1.0737,1.1428,1.2436,1.256,1.249,1.2336,1.2248,1.1983,1.162,1.1487,1.1486,1.1575,1.1515,1.1875,1.2419,1.2926,1.3531,1.4099,1.447,1.4749,1.5107,1.5594,1.6124,1.6524,1.6864,1.7034,1.7368,1.7378,1.66,1.5836,1.4879,1.4224,1.3691,1.3111,1.2619,1.2477,1.2327,1.1783,1.1367,1.1024,1.0752,1.0409,1.0196,0.9962,0.9895,0.981,0.9585,0.9458,0.9246,0.9089,0.8937,0.8775,0.842,0.8001,0.7808,0.7744,0.7702,0.7804,0.8128,-0.7056,-0.7152,-0.7825,-0.8614,-0.9526,-1.0842,-1.1629,-1.2165,-1.2848,-1.3463,-1.3952,-1.4182,-1.4259,-1.407,-1.3887,-1.3593,-1.329,-1.2252,-1.1722,-1.1571,-1.0775,-1.0527,-1.0352,-1.0023,-0.9829,-0.9966,-0.9688,-0.9421,-0.9663,-0.9431,-0.9351,-0.9464,-0.9576,-0.9964,-1.0414,-1.0305,-0.9831,-0.893,-0.805,-0.7062,-0.6042,-0.5172,-0.4156,-0.286,-0.1948,-0.0922,0.0229,0.141,0.2634,0.3724,0.4972,0.6459,0.78,0.7994,0.9192,1.0478,1.0863,1.1615,1.2367,1.2613,1.2552,1.2496,1.231,1.2124,1.1933,1.1808,1.1734,1.1652,1.1678,1.2057,1.2492,1.2645,1.3159,1.3974,1.4408,1.4648,1.5025,1.5656,1.6171,1.6524,1.6864,1.7523,1.795,1.7733,1.7142,1.6483,1.5502,1.4744,1.4165,1.3541,1.3003,1.28,1.2568,1.1982,1.1457,1.1058,1.0581,1.0159,0.9956,0.9801,0.9789,0.9873,0.9788,0.9544,0.9473,0.9473,0.9316,0.9165,0.9236,0.9074,0.877,0.8699,0.8699,0.8611,0.8613,-0.647,-0.6622,-0.6937,-0.7362,-0.7999,-0.9401,-1.0497,-1.1344,-1.2083,-1.2756,-1.3164,-1.3369,-1.3604,-1.362,-1.3388,-1.316,-1.3168,-1.221,-1.1368,-1.1204,-1.0422,-1.0127,-0.9854,-0.9479,-0.9343,-0.9417,-0.9179,-0.8955,-0.9095,-0.8961,-0.8896,-0.882,-0.8554,-0.886,-0.9233,-0.9052,-0.8742,-0.7832,-0.6954,-0.5837,-0.4739,-0.3716,-0.2741,-0.1708,-0.0728,0.0224,0.1013,0.2104,0.3295,0.4358,0.5497,0.6696,0.7618,0.8452,0.956,1.0501,1.149,1.2174,1.2744,1.249,1.2482,1.265,1.2428,1.2342,1.2269,1.2233,1.217,1.2089,1.2044,1.2245,1.2599,1.2697,1.328,1.4064,1.4421,1.4671,1.5206,1.585,1.6301,1.6652,1.7191,1.7795,1.8195,1.7926,1.7484,1.6843,1.6144,1.5367,1.4583,1.3952,1.3323,1.3061,1.2622,1.1973,1.1467,1.1101,1.0571,0.9977,0.9868,0.9746,0.9649,0.9632,0.9669,0.962,0.9392,0.9316,0.9468,0.9544,0.9614,0.969,0.9685,0.9609,0.9695,0.9459,0.9159,-0.5613,-0.5903,-0.6116,-0.6591,-0.7404,-0.8529,-0.9611,-1.0578,-1.123,-1.1901,-1.2422,-1.292,-1.321,-1.3304,-1.2943,-1.2789,-1.2631,-1.1905,-1.1253,-1.0671,-1.0079,-0.9726,-0.916,-0.8685,-0.8581,-0.8622,-0.8445,-0.8108,-0.8433,-0.8231,-0.8196,-0.8249,-0.7847,-0.7707,-0.7637,-0.7502,-0.7312,-0.6658,-0.5785,-0.4656,-0.3416,-0.2511,-0.1541,-0.0571,0.0447,0.1062,0.1903,0.303,0.3981,0.4962,0.597,0.7082,0.7951,0.8561,0.9786,1.1016,1.2104,1.2683,1.2928,1.249,1.2428,1.2552,1.2428,1.2418,1.2503,1.2597,1.2562,1.2573,1.2517,1.265,1.2839,1.3259,1.3681,1.4202,1.4617,1.5057,1.5578,1.6053,1.6419,1.6903,1.7466,1.7959,1.8071,1.7903,1.7524,1.6865,1.6129,1.5458,1.4716,1.433,1.3698,1.3142,1.2687,1.1899,1.1432,1.1019,1.0533,0.9909,0.9944,0.988,0.9643,0.9437,0.9453,0.9387,0.9155,0.9231,0.9539,0.9771,0.9992,1.0067,1.0067,0.9992,0.9922,0.9857,0.9734,-0.5101,-0.5328,-0.5571,-0.6113,-0.6979,-0.8217,-0.9405,-1.0481,-1.1047,-1.1589,-1.1997,-1.2294,-1.2431,-1.2531,-1.2304,-1.2319,-1.2042,-1.1548,-1.0826,-1.021,-0.9636,-0.8932,-0.832,-0.7887,-0.7677,-0.7504,-0.7294,-0.7165,-0.7079,-0.7086,-0.7288,-0.726,-0.6868,-0.6404,-0.6071,-0.5738,-0.5672,-0.547,-0.4613,-0.3489,-0.2433,-0.1598,-0.065,0.0342,0.123,0.1734,0.2347,0.3566,0.4445,0.5023,0.6337,0.7449,0.8046,0.8843,0.992,1.1128,1.1934,1.2498,1.256,1.2428,1.2428,1.2552,1.249,1.2581,1.2756,1.2897,1.2966,1.2952,1.2946,1.3058,1.3325,1.3707,1.4166,1.463,1.505,1.5434,1.5948,1.6244,1.6584,1.6819,1.7444,1.7868,1.795,1.7772,1.7341,1.6744,1.6112,1.5457,1.4831,1.4429,1.3886,1.3319,1.2591,1.1836,1.1312,1.0893,1.0398,0.9898,0.9888,0.9717,0.9329,0.9155,0.916,0.9236,0.9311,0.9463,0.9771,0.9997,1.0148,1.0304,1.0304,1.0223,1.0073,1.0008,1.0383,-0.4719,-0.4977,-0.505,-0.5735,-0.6869,-0.8165,-0.9275,-1.0103,-1.0528,-1.0943,-1.1257,-1.1375,-1.1519,-1.1602,-1.1358,-1.1319,-1.1469,-1.0805,-1.0159,-0.9486,-0.9073,-0.8337,-0.7659,-0.7215,-0.696,-0.6628,-0.6449,-0.6391,-0.614,-0.6065,-0.6246,-0.6218,-0.5686,-0.5286,-0.4882,-0.4547,-0.4215,-0.3946,-0.3387,-0.2455,-0.1573,-0.0675,0.0296,0.1079,0.1905,0.2238,0.2685,0.4015,0.4563,0.5117,0.6476,0.7455,0.8315,0.9355,1.0295,1.1417,1.2066,1.252,1.2728,1.2674,1.2736,1.2736,1.2605,1.2658,1.3017,1.3313,1.3348,1.3371,1.338,1.3522,1.3829,1.4206,1.4704,1.5216,1.5507,1.5864,1.6162,1.6419,1.6602,1.678,1.7167,1.7641,1.7733,1.7537,1.7201,1.6574,1.6063,1.554,1.4939,1.4414,1.3866,1.3254,1.248,1.1759,1.1277,1.0763,1.0276,0.9833,0.9572,0.9378,0.8988,0.8941,0.9008,0.9241,0.9544,0.9771,0.9997,1.0078,1.0235,1.0477,1.0738,1.068,1.0506,1.0148,1.072,-0.4515,-0.4655,-0.4725,-0.5583,-0.6881,-0.8069,-0.8928,-0.954,-0.9707,-1.0024,-1.0393,-1.0331,-1.0463,-1.056,-1.0388,-1.0374,-1.0401,-1.0047,-0.9516,-0.8747,-0.8504,-0.7824,-0.7054,-0.6745,-0.63,-0.6141,-0.598,-0.5713,-0.5559,-0.5508,-0.5411,-0.5289,-0.4824,-0.4356,-0.3885,-0.3349,-0.2882,-0.2412,-0.1929,-0.1239,-0.0438,0.055,0.1557,0.2271,0.2633,0.2914,0.3469,0.4073,0.4563,0.5386,0.6287,0.7258,0.8621,0.9792,1.0733,1.1503,1.2071,1.2517,1.2818,1.2911,1.3094,1.3025,1.2781,1.3017,1.345,1.3519,1.3494,1.3716,1.3794,1.3992,1.4277,1.4713,1.5235,1.5584,1.5931,1.6228,1.6564,1.6709,1.6824,1.6961,1.7168,1.7599,1.7636,1.745,1.7241,1.6569,1.598,1.5501,1.4949,1.4417,1.3775,1.3116,1.2328,1.1604,1.1142,1.0673,1.0171,0.9803,0.9526,0.9295,0.9064,0.8927,0.8856,0.9236,0.9544,0.9922,1.0148,1.0229,1.0489,1.1029,1.1217,1.1241,1.0971,1.0674,1.094,-0.4122,-0.4405,-0.498,-0.5821,-0.6799,-0.7625,-0.8348,-0.8843,-0.8933,-0.9385,-0.9916,-0.9988,-0.9818,-0.955,-0.9445,-0.9409,-0.9426,-0.9253,-0.8879,-0.8342,-0.7939,-0.7124,-0.6249,-0.6025,-0.5675,-0.5192,-0.5054,-0.5084,-0.4951,-0.4807,-0.4644,-0.455,-0.409,-0.3553,-0.275,-0.2214,-0.1745,-0.1141,-0.0534,-0.0196,0.025,0.0856,0.1676,0.2405,0.286,0.319,0.3691,0.4132,0.4625,0.523,0.605,0.7258,0.8769,0.9708,1.0537,1.1263,1.1853,1.241,1.2805,1.3174,1.345,1.3502,1.3502,1.3803,1.3923,1.3752,1.3752,1.4001,1.4249,1.4478,1.4765,1.5235,1.5652,1.5999,1.6285,1.6627,1.6899,1.6993,1.7047,1.7168,1.73,1.7341,1.745,1.7326,1.7159,1.6682,1.6017,1.5456,1.4888,1.4354,1.3625,1.2962,1.2174,1.1519,1.1058,1.0516,1.0098,0.976,0.9471,0.9269,0.912,0.9226,0.9311,0.9392,0.9625,0.9997,1.0218,1.0368,1.0726,1.1386,1.1587,1.1593,1.1866,1.1663,1.1746,-0.3669,-0.3926,-0.4794,-0.5672,-0.6485,-0.7196,-0.7773,-0.822,-0.8453,-0.8714,-0.8891,-0.8758,-0.8621,-0.8416,-0.8308,-0.828,-0.8346,-0.8206,-0.7734,-0.7322,-0.7053,-0.632,-0.5792,-0.5415,-0.5094,-0.4689,-0.4452,-0.4414,-0.4359,-0.4023,-0.382,-0.3553,-0.3153,-0.2551,-0.1679,-0.1344,-0.0873,-0.0202,0.0538,0.0786,0.0879,0.1545,0.2111,0.2779,0.3168,0.3434,0.3799,0.4242,0.468,0.5445,0.6372,0.7376,0.8687,0.961,1.0335,1.1001,1.1747,1.2453,1.2872,1.3374,1.3819,1.4007,1.4163,1.4469,1.4469,1.435,1.4401,1.4647,1.4834,1.5059,1.5294,1.57,1.5884,1.6181,1.6513,1.6853,1.7114,1.7263,1.7417,1.7626,1.7611,1.7507,1.7508,1.7334,1.7124,1.661,1.5989,1.541,1.4868,1.4292,1.3525,1.2844,1.2096,1.1564,1.1164,1.0661,1.0055,0.9676,0.9438,0.9462,0.9505,0.9728,0.9846,0.9695,0.9771,1.0073,1.0293,1.0519,1.1093,1.1701,1.1866,1.1936,1.2222,1.2676,1.2851,-0.3329,-0.361,-0.4381,-0.5223,-0.6079,-0.6687,-0.7152,-0.7595,-0.7985,-0.7952,-0.7681,-0.7271,-0.7227,-0.7254,-0.702,-0.6961,-0.6928,-0.7028,-0.6608,-0.6256,-0.5818,-0.5531,-0.525,-0.4901,-0.4659,-0.4408,-0.4156,-0.3959,-0.3761,-0.3424,-0.309,-0.2554,-0.2083,-0.1547,-0.1076,-0.0672,-0.0269,0.0336,0.0938,0.1327,0.181,0.2329,0.269,0.308,0.3462,0.3803,0.4076,0.4412,0.4804,0.5521,0.651,0.7521,0.8378,0.9328,1.0024,1.0737,1.1672,1.2436,1.3133,1.3889,1.4317,1.4662,1.4904,1.5001,1.4982,1.5118,1.5177,1.5294,1.541,1.5526,1.5758,1.5999,1.6181,1.642,1.6751,1.7032,1.7269,1.7481,1.7725,1.7927,1.7813,1.7611,1.7454,1.7268,1.6965,1.6457,1.5941,1.543,1.4845,1.42,1.3482,1.2812,1.2145,1.1691,1.1205,1.0778,1.0149,0.991,0.9702,0.9763,0.9813,1.0002,1.0067,0.9846,0.9922,1.0223,1.0519,1.0738,1.1344,1.1936,1.1954,1.2086,1.2856,1.3251,1.3838,-0.3368,-0.3936,-0.4258,-0.4822,-0.5555,-0.6194,-0.6577,-0.6686,-0.7056,-0.7065,-0.6733,-0.6327,-0.6374,-0.6982,-0.6501,-0.6283,-0.6195,-0.6109,-0.5855,-0.5581,-0.5349,-0.5101,-0.4719,-0.4334,-0.4223,-0.3959,-0.3692,-0.3625,-0.3157,-0.2889,-0.2485,-0.2017,-0.1479,-0.0941,-0.0269,0.0067,0.047,0.1008,0.1479,0.2006,0.2321,0.2716,0.2959,0.3326,0.3701,0.4048,0.4345,0.4527,0.4873,0.5457,0.6211,0.7285,0.8228,0.8977,0.9688,1.067,1.1584,1.2315,1.3083,1.3942,1.4402,1.4875,1.5153,1.5601,1.5688,1.5884,1.5941,1.5941,1.5999,1.5816,1.5999,1.6249,1.6431,1.6591,1.692,1.7032,1.7213,1.7401,1.7677,1.7722,1.7688,1.7456,1.7192,1.7022,1.6751,1.6239,1.5662,1.5137,1.4883,1.4196,1.3473,1.2865,1.2281,1.1578,1.0996,1.08,1.0328,1.0151,1.0045,1.0076,1.0217,1.0306,1.0288,0.9997,1.0073,1.0368,1.0669,1.0812,1.1285,1.1752,1.1932,1.2282,1.3092,1.3677,1.4037]},{"header":{"parameterUnit":"m.s-1","parameterCategory":1,"la1":31.0,"la2":29.5877,"lo1":-88.7671,"lo2":-86.6584,"dy":0.0162,"dx":0.0185,"nx":115,"ny":88,"refTime":"2024-05-01T12:00:00:Z","depth":0,"parameterNumber":3,"parameterNumberName":"V-component_of_WINDS"},"data":[0.0,0.0,0.0,0.0,0.0,0.0,0.0,0.0,0.0,0.0,0.0,0.0,0.0,0.0,0.0,0.0,0.0,0.0,0.0,0.0,0.0,0.0,0.0,0.0,0.0,0.0,0.0,0.0,0.0,0.0,0.0,0.0,0.0,0.0,0.0,0.0,0.0,0.0,0.0,0.0,0.0,0.0,0.0,0.0,0.0,0.0,0.0,0.0,0.0,0.0,0.0,0.0,0.0,0.0,0.0,0.0,0.0,0.0,0.0,0.0,0.0,0.0,0.0,0.0,0.0,0.0,0.0,0.0,0.0,0.0,0.0,0.0,0.0,0.0,0.0,0.0,0.0,0.0,0.0,0.0,0.0,0.0,0.0,0.0,0.0,0.0,0.0,0.0,0.0,0.0,0.0,0.0,0.0,0.0,0.0,0.0,0.0,0.0,0.0,0.0,0.0,0.0,0.0,0.0,0.0,0.0,0.0,0.0,0.0,0.0,0.0,0.0,0.0,0.0,0.0,0.0,0.0,0.0,0.0,0.0,0.0,0.0,0.0,0.0,0.0,0.0,0.0,0.0,0.0,0.0,0.0,0.0,0.0,0.0,0.0,0.0,0.0,0.0,0.0,0.0,0.0,0.0,0.0,0.0,0.0,0.0,0.0,0.0,0.0,0.0,0.0,0.0,0.0,0.0,0.0,0.0,0.0,0.0,0.0,0.0,0.0,0.0,0.0,0.0,0.0,0.0,0.0,0.0,0.0,0.0,0.0,0.0,0.0,0.0,0.0,0.0,0.0,0.0,0.0,0.0,0.0,0.0,0.0,0.0,0.0,0.0,0.0,0.0,0.0,0.0,0.0,0.0,0.0,0.0,0.0,0.0,0.0,0.0,0.0,0.0,0.0,0.0,0.0,0.0,0.0,0.0,0.0,0.0,0.0,0.0,0.0,0.0,0.0,0.0,0.0,0.0,0.0,0.0,0.0,0.0,0.0,0.0,0.0,0.0,0.0,0.0,0.0,0.0,0.0,0.0,0.0,0.0,0.0,0.0,0.0,0.0,0.0,0.0,0.0,0.0,0.0,0.0,0.0,0.0,0.0,0.0,0.0,0.0,0.0,0.0,0.0,0.0,0.0,0.0,0.0,0.0,0.0,0.0,0.0,0.0,0.0,0.0,0.0,0.0,0.0,0.0,0.0,0.0,0.0,0.0,0.0,0.0,0.0,0.0,0.0,0.0,0.0,0.0,0.0,0.0,0.0,0.0,0.0,0.0,0.0,0.0,0.0,0.0,0.0,0.0,0.0,0.0,0.0,0.0,0.0,0.0,0.0,0.0,0.0,0.0,0.0,0.0,0.0,0.0,0.0,0.0,0.0,0.0,0.0,0.0,0.0,0.0,0.0,0.0,0.0,0.0,0.0,0.0,0.0,0.0,0.0,0.0,0.0,0.0,0.0,0.0,0.0,0.0,0.0,0.0,0.0,0.0,0.0,0.0,0.0,0.0,0.0,0.0,0.0,0.0,0.0,0.0,0.0,0.0,0.0,0.0,0.0,0.0,0.0,0.0,0.0,0.0,0.0,0.0,0.0,0.0,0.0,0.0,0.0,0.0,0.0,0.0,0.0,0.0,0.0,0.0,0.0,0.0,0.0,0.0,0.0,0.0,0.0,0.0,0.0,0.0,0.0,0.0,0.0,0.0,0.0,0.0,0.0,0.0,0.0,0.0,0.0,0.0,0.0,0.0,0.0,0.0,0.0,0.0,0.0,0.0,0.0,0.0,0.0,0.0,0.0,0.0,0.0,0.0,0.0,0.0,0.0,0.0,0.0,0.0,0.0,0.0,0.0,0.0,0.0,0.0,0.0,0.0,0.0,0.0,0.0,0.0,0.0,0.0,0.0,0.0,0.0,0.0,0.0,0.0,0.0,0.0,0.0,0.0,0.0,0.0,0.0,0.0,0.0,0.0,0.0,0.0,0.0,0.0,0.0,0.0,0.0,0.0,0.0,0.0,0.0,0.0,0.0,0.0,0.0,0.0,0.0,0.0,0.0,0.0,0.0,0.0,0.0,0.0,0.0,0.0,0.0,0.0,0.0,0.0,0.0,0.0,0.0,0.0,0.0,0.0,0.0,0.0,0.0,0.0,0.0,0.0,0.0,0.0,0.0,0.0,0.0,0.0,0.0,0.0,0.0,0.0,0.0,0.0,0.0,0.0,0.0,0.0,0.0,0.0,0.0,0.0,0.0,0.0,0.0,0.0,0.0,0.0,0.0,0.0,0.0,0.0,0.0,0.0,0.0,0.0,0.0,0.0,0.0,0.0,0.0,0.0,0.0,0.0,0.0,0.0,0.0,0.0,0.0,0.0,0.0,0.0,0.0,0.0,0.0,0.0,0.0,0.0,0.0,0.0,0.0,0.0,0.0,0.0,0.0,0.0,0.0,0.0,0.0,0.0,0.0,0.0,0.0,0.0,0.0,0.0,0.0,0.0,0.0,0.0,0.0,0.0,0.0,0.0,0.0,0.0,0.0,0.0,0.0,0.0,0.0,0.0,0.0,0.0,0.0,0.0,0.0,0.0,0.0,0.0,0.0,0.0,0.0,0.0,0.0,0.0,0.0,0.0,0.0,0.0,0.0,0.0,0.0,0.0,0.0,0.0,0.0,0.0,0.0,0.0,0.0,0.0,0.0,0.0,0.0,0.0,0.0,0.0,0.0,0.0,0.0,0.0,0.0,0.0,0.0,0.0,0.0,0.0,0.0,0.0,0.0,0.0,0.0,0.0,0.0,0.0,0.0,0.0,0.0,0.0,0.0,0.0,0.0,0.0,0.0,0.0,0.0,0.0,0.0,0.0,0.0,0.0,0.0,0.0,0.0,0.0,0.0,0.0,0.0,0.0,0.0,0.0,0.0,0.0,0.0,0.0,0.0,0.0,0.0,0.0,0.0,0.0,0.0,0.0,0.0,0.0,0.0,0.0,0.0,0.0,0.0,0.0,0.0,0.0,0.0,0.0,0.0,0.0,0.0,0.0,0.0,0.0,0.0,0.0,0.0,0.0,0.0,0.0,0.0,0.0,0.0,0.0,0.0,0.0,0.0,0.0,0.0,0.0,0.0,0.0,0.0,0.0,0.0,0.0,0.0,0.0,0.0,0.0,0.0,0.0,0.0,0.0,0.0,0.0,0.0,0.0,0.0,0.0,0.0,0.0,0.0,0.0,0.0,0.0,0.0,0.0,0.0,0.0,0.0,0.0,0.0,0.0,0.0,0.0,0.0,0.0,0.0,0.0,0.0,0.0,0.0,0.0,0.0,0.0,0.0,0.0,0.0,0.0,0.0,0.0,0.0,0.0,0.0,0.0,0.0,0.0,0.0,0.0,0.0,0.0,0.0,0.0,0.0,0.0,0.0,0.0,0.0,0.0,0.0,0.0,0.0,0.0,0.0,0.0,0.0,0.0,0.0,0.0,0.0,0.0,0.0,0.0,0.0,0.0,0.0,0.0,0.0,0.0,0.0,0.0,0.0,0.0,0.0,0.0,0.0,0.0,0.0,0.0,0.0,0.0,0.0,0.0,0.0,0.0,0.0,0.0,0.0,0.0,0.0,0.0,0.0,0.0,0.0,0.0,0.0,0.0,0.0,0.0,0.0,0.0,0.0,0.0,0.0,0.0,0.0,0.0,0.0,0.0,0.0,0.0,0.0,0.0,0.0,0.0,0.0,0.0,0.0,0.0,0.0,0.0,0.0,0.0,0.0,0.0,0.0,0.0,0.0,0.0,0.0,0.0,0.0,0.0,0.0,0.0,0.0,0.0,0.0,0.0,0.0,0.0,0.0,0.0,0.0,0.0,0.0,0.0,0.0,0.0,0.0,0.0,0.0,0.0,0.0,0.0,0.0,0.0,0.0,0.0,0.0,0.0,0.0,0.0,0.0,0.0,0.0,0.0,0.0,0.0,0.0,0.0,0.0,0.0,0.0,0.0,0.0,0.0,0.0,0.0,0.0,0.0,0.0,0.0,0.0,0.0,0.0,0.0,0.0,0.0,0.0,0.0,0.0,0.0,0.0,0.0,0.0,0.0,0.0,0.0,0.0,0.0,0.0,0.0,0.0,0.0,0.0,0.0,0.0,0.0,0.0,0.0,0.0,0.0,0.0,0.0,0.0,0.0,0.0,0.0,0.0,0.0,0.0,0.0,0.0,0.0,0.0,0.0,0.0,0.0,0.0,0.0,0.0,0.0,0.0,0.0,0.0,0.0,0.0,0.0,0.0,0.0,0.0,0.0,0.0,0.0,0.0,0.0,0.5266,0.0,0.0,0.0,0.0,0.0,0.0,0.0,0.0,0.0,0.0,0.0,0.0,0.0,0.0,0.0,0.0,0.0,0.0,0.0,0.0,0.0,0.0,0.0,0.0,0.0,0.0,0.0,0.0,0.0,0.0,0.0,0.0,0.0,0.0,0.0,0.0,0.0,0.0,0.0,0.0,0.0,0.0,0.0,0.0,0.0,0.0,0.0,0.0,0.0,0.0,0.0,0.0,0.0,0.0,0.0,0.0,0.0,0.0,0.0,0.0,0.0,0.0,0.0,0.0,0.0,0.0,0.0,0.0,0.0,0.0,0.0,0.0,0.0,0.0,0.0,0.0,0.0,0.0,0.0,0.0,0.0,0.0,0.0,0.0,0.0,0.0,0.0,0.0,0.0,0.0,0.0,0.0,0.0,0.0,0.0,0.0,0.0,0.0,0.0,0.0,0.0,0.0,0.0,0.0,0.0,0.0,0.0,0.0,0.0,0.0,1.0294,1.0002,0.8521,0.6736,0.4684,0.0,0.0,0.0,0.0,0.0,0.0,0.0,0.0,0.0,0.0,0.0,0.0,0.0,0.0,0.0,0.0,0.0,0.0,0.0,0.0,0.0,0.0,0.0,0.0,0.0,0.0,0.0,0.0,0.0,0.0,0.0,0.0,0.0,0.0,0.0,0.0,0.0,0.0,0.0,0.0,0.0,0.0,0.0,0.0,0.0,0.0,0.0,0.0,0.0,0.0,0.0,0.0,0.0,0.0,0.0,0.0,0.0,0.0,0.0,0.0,0.0,0.0,0.0,0.0,0.0,0.0,0.0,0.0,0.0,0.0,0.0,0.0,0.0,0.0,0.0,0.0,0.0,0.0,0.0,0.0,0.0,0.0,0.0,0.0,0.0,0.0,0.0,0.0,0.0,0.0,0.0,0.0,0.0,0.0,0.0,0.0,0.0,0.0,0.0,0.0,0.0,0.0,0.0,0.0,0.0,0.0,0.0,0.0,0.0,0.0,0.0,0.0,0.6563,0.4937,0.2854,0.0,0.0,0.0,0.0,0.0,0.0,0.0,0.0,0.0,0.0,0.0,0.0,0.0,0.0,0.0,0.0,0.0,0.0,0.0,0.0,0.0,0.0,0.0,0.0,0.0,0.0,0.0,0.0,0.0,0.0,0.0,0.0,0.0,0.0,0.0,0.0,0.0,0.0,0.0,0.0,0.0,0.0,0.0,0.0,0.0,0.0,0.0,0.0,0.0,0.0,0.0,0.0,0.0,0.0,0.0,0.0,0.0,0.0,0.0,0.0,0.0,0.0,0.0,0.0,0.0,0.0,0.0,0.0,0.0,0.0,0.0,0.0,0.0,0.0,0.0,0.0,0.0,0.0,0.0,0.0,0.0,0.0,0.0,0.0,0.0,0.0,0.0,0.0,0.0,0.0,0.0,0.0,0.0,0.0,0.0,0.0,0.0,0.0,0.0,0.0,0.0,0.0,0.0,0.0,0.0,0.0,0.0,0.0,0.0,0.0,0.7214,0.4616,0.3945,0.0,-0.1199,0.0,0.0,0.0,0.0,0.0,0.0,0.0,0.0,0.0,0.0,0.0,0.0,0.0,0.0,0.0,0.0,0.0,0.0,0.0,0.0,0.0,0.0,0.0,0.0,0.0,0.0,0.0,0.0,0.0,0.0,0.0,0.0,0.0,0.0,0.0,0.0,0.0,0.0,0.0,0.0,0.0,0.0,0.0,0.0,0.0,0.0,0.0,0.0,0.0,0.0,0.0,0.0,0.0,0.0,0.0,0.0,0.0,0.0,0.0,0.0,0.0,0.0,0.0,0.0,0.0,0.0,0.0,0.0,0.0,0.0,0.0,0.0,0.0,0.0,0.0,0.0,0.0,0.0,0.0,0.0,0.0,0.0,0.0,0.0,0.0,0.0,0.0,0.0,0.0,0.0,0.0,0.0,0.0,0.0,0.0,0.0,0.0,0.0,0.0,0.0,0.0,0.0,0.0,0.0,0.0,0.0,0.0,0.0,0.0,0.0,0.466,0.3639,0.2417,0.0558,0.0,0.0,0.0,0.0,0.0,0.0,0.0,0.0,0.0,0.0,0.0,0.0,0.0,0.0,0.0,0.0,0.0,0.0,0.0,0.0,0.0,0.0,0.0,0.0,0.0,0.0,0.0,0.0,0.0,0.0,0.0,0.0,0.0,0.0,0.0,0.0,0.0,0.0,0.0,0.0,0.0,0.0,0.0,0.0,0.0,0.0,0.0,0.0,0.0,0.0,0.0,0.0,0.0,0.0,0.0,0.0,0.0,0.0,0.0,0.0,0.0,0.0,0.0,0.0,0.0,0.0,0.0,0.0,0.0,0.0,0.0,0.0,0.0,0.0,0.0,0.0,0.0,0.0,0.0,0.0,0.0,0.0,0.0,0.0,0.0,0.0,0.0,0.0,0.0,0.0,0.0,0.0,0.0,0.0,0.0,0.0,0.0,0.0,0.0,0.0,0.0,0.0,0.0,0.0,0.0,0.0,0.0,0.0,0.0,0.0,0.2853,0.238,0.1855,0.0446,-0.089,-0.2021,0.0,0.0,0.0,0.0,0.0,0.0,0.0,0.0,0.0,0.0,0.0,0.0,0.0,0.0,0.0,0.0,0.0,0.0,0.0,0.0,0.0,0.0,0.0,0.0,0.0,0.0,0.0,0.0,0.0,0.0,0.0,0.0,0.0,0.0,0.0,0.0,0.0,0.0,0.0,0.0,0.0,0.0,0.0,0.0,0.0,0.0,0.0,0.0,0.0,0.0,0.0,0.0,0.0,0.0,0.0,0.0,0.0,0.0,0.0,0.0,0.0,0.0,0.0,0.0,0.0,0.0,0.0,0.0,0.0,0.0,0.0,0.0,0.0,0.0,0.0,0.0,0.0,0.0,0.0,0.0,0.0,0.0,0.0,0.0,0.0,0.0,0.0,0.0,0.0,0.0,0.0,0.0,0.0,0.0,0.0,0.0,0.0,0.0,0.0,0.0,0.0,0.0,0.0,0.0,0.0,0.0,0.0,0.0,-0.1686,0.0504,0.0704,-0.1542,-0.2455,-0.2656,0.0,0.0,0.0,0.0,0.0,0.0,0.0,0.0,0.0,0.0,0.0,0.0,0.0,0.0,0.0,0.0,0.0,0.0,0.0,0.0,0.0,0.0,0.0,0.0,0.0,0.0,0.0,0.0,0.0,0.0,0.0,0.0,0.0,0.0,0.0,0.0,0.0,0.0,0.0,0.0,0.0,0.0,0.0,0.0,0.0,0.0,0.0,0.0,0.0,0.0,0.0,0.0,0.0,0.0,0.0,0.0,0.0,0.0,0.0,0.0,0.0,0.0,0.0,0.0,0.0,0.0,0.0,0.0,0.0,0.0,0.0,0.0,0.0,0.0,0.0,0.0,0.0,0.0,0.0,0.0,0.0,0.0,0.0,0.0,0.0,0.0,0.0,0.0,0.0,0.0,0.0,0.0,0.0,0.0,0.0,0.0,0.0,0.0,0.0,0.0,0.0,0.0,0.0,0.0,0.0,0.0,0.0,0.0,0.0,0.0666,-0.0167,-0.2196,-0.535,-0.3633,-0.293,0.0,0.0,0.0,0.0,0.0,0.0,0.0,0.0,0.0,0.0,0.0,0.0,0.0,0.0,0.0,0.0,0.0,0.0,0.0,0.0,0.0,0.0,0.0,0.0,0.0,0.0,0.0,0.0,0.0,0.0,0.0,0.0,0.0,0.0,0.0,0.0,0.0,0.0,0.0,0.0,0.0,0.0,0.0,0.0,0.0,0.0,0.0,0.0,0.0,0.0,0.0,0.0,0.0,0.0,0.0,0.0,0.0,0.0,0.0,0.0,0.0,0.0,0.0,0.0,0.0,0.0,0.0,0.0,0.0,0.0,0.0,0.0,0.0,0.0,0.0,0.0,0.0,0.0,0.0,0.0,0.0,0.0,0.0,0.0,0.0,0.0,0.0,0.0,0.0,0.0,0.0,0.0,0.0,0.0,0.0,0.0,0.0,0.0,0.0,0.0,0.0,0.0,0.0,0.0,0.0,0.0,0.0,0.0,0.0,0.0555,0.0,-0.4505,-0.6748,-0.4567,-0.3415,0.0,0.0,0.0,0.0,0.0,0.0,0.0,0.0,0.0,0.0,0.0,0.0,0.0,0.0,0.0,0.0,0.0,0.0,0.0,0.0,0.0,0.0,0.0,0.0,0.0,0.0,0.0,0.0,0.0,0.0,0.0,0.0,0.0,0.0,0.0,0.0,0.0,0.0,0.0,0.0,0.0,0.0,0.0,0.0,0.0,0.0,0.0,0.0,0.0,0.0,0.0,0.0,0.0,0.0,0.0,0.0,0.0,0.0,0.0,0.0,0.0,0.0,0.0,0.0,0.0,0.0,0.0,0.0,0.0,0.0,0.0,0.0,0.0,0.0,0.0,0.0,0.0,0.0,0.0,0.0,0.0,0.0,0.0,0.0,0.0,0.0,0.0,0.0,0.0,0.0,0.0,0.0,0.0,0.0,0.0,0.0,0.0,0.0,0.0,0.0,0.0,0.0,0.0,0.0,0.0,0.0,0.0,0.0,0.0754,-0.2822,-0.5019,-0.5957,-0.5511,-0.5512,-0.4318,0.0,0.0,0.0,0.0,0.0,0.0,0.0,0.0,0.0,0.0,0.0,0.0,0.0,0.0,0.0,0.0,0.0,0.0,0.0,0.0,0.0,0.0,0.0,0.0,0.0,0.0,0.0,0.0,0.0,0.0,0.0,0.0,0.0,0.0,0.0,0.0,0.0,0.0,0.0,0.0,0.0,0.0,0.0,0.0,0.0,0.0,0.0,0.0,0.0,0.0,0.0,0.0,0.0,0.0,0.0,0.0,0.0,0.0,0.0,0.0,0.0,0.0,0.0,0.0,0.0,0.0,0.0,0.0,0.0,0.0,0.0,0.0,0.0,0.0,0.0,0.0,0.0,0.0,0.0,0.0,0.0,0.0,0.0,0.0,0.0,0.0,0.0,0.0,0.0,0.0,0.0,0.0,0.0,0.0,0.0,0.0,0.0,0.0,0.0,0.0,0.0,0.0,0.0,0.0,0.0,0.0,0.0,0.0,0.0,-0.2118,-0.451,-0.6705,-0.8554,-0.7457,-0.6434,0.0,0.0,0.0,0.0,0.0,0.0,0.0,0.0,0.0,0.0,0.0,0.0,0.0,0.0,0.0,0.0,0.0,0.0,0.0,0.0,0.0,0.0,0.0,0.0,0.0,0.0,0.0,0.0,0.0,0.0,0.0,0.0,0.0,0.0,0.0,0.0,0.0,0.0,0.0,0.0,0.0,0.0,0.0,0.0,0.0,0.0,0.0,0.0,0.0,0.0,0.0,0.0,0.0,0.0,0.0,0.0,0.0,0.0,0.0,0.0,0.0,0.0,0.0,0.0,0.0,0.0,0.0,0.0,0.0,0.0,0.0,0.0,0.0,0.0,0.0,0.0,0.0,0.0,0.0,0.0,0.0,0.0,0.0,0.0,0.0,0.0,0.0,0.0,0.0,0.0,0.0,0.0,0.0,0.0,0.0,0.0,0.0,0.0,0.0,0.0,0.0,0.0,0.0,0.0,0.0,0.0,0.0,0.0,0.0,-0.1367,-0.5055,-0.8271,-1.1004,-0.98,-0.8844,-0.8248,0.0,0.0,0.0,0.0,0.0,0.0,0.0,0.0,0.0,0.0,0.0,0.0,0.0,0.0,0.0,0.0,0.0,0.0,0.0,0.0,0.0,0.0,0.0,0.0,0.0,0.0,0.0,0.0,0.0,0.0,0.0,0.0,0.0,0.0,0.0,0.0,0.0,0.0,0.0,0.0,0.0,0.0,0.0,0.0,0.0,0.0,0.0,0.0,0.0,0.0,0.0,0.0,0.0,0.0,0.0,0.0,0.0,0.0,0.0,0.0,0.0,0.0,0.0,0.0,0.0,0.0,0.0,0.0,0.0,0.0,0.0,0.0,0.0,0.0,0.0,0.0,0.0,0.0,0.0,0.0,0.0,0.0,0.0,0.0,0.0,0.0,0.0,0.0,0.0,0.0,0.0,0.0,0.0,0.0,0.0,0.0,0.0,0.0,0.0,0.0,0.0,0.0,0.0,0.0,0.0,0.0,0.0,0.0,-0.0492,-0.6394,-1.045,-1.2611,-1.2425,-1.1521,0.0,0.0,0.0,0.0,0.0,0.0,0.0,0.0,0.0,0.0,0.0,0.0,0.0,0.0,0.0,0.0,0.0,0.0,0.0,0.0,0.0,0.0,0.0,0.0,0.0,0.0,0.0,0.0,0.0,0.0,0.0,0.0,0.0,0.0,0.0,0.0,0.0,0.0,0.0,0.0,0.0,0.0,0.0,0.0,0.0,0.0,0.0,0.0,0.0,0.0,0.0,0.0,0.0,0.0,0.0,0.0,0.0,0.0,0.0,0.0,0.0,0.0,0.0,0.0,0.0,0.0,0.0,0.0,0.0,0.0,0.0,0.0,0.0,0.0,0.0,0.0,0.0,0.0,0.0,0.0,0.0,0.0,0.0,0.0,0.0,0.0,0.0,0.0,0.0,0.0,0.0,0.0,0.0,0.0,0.0,0.0,0.0,0.0,0.0,0.0,0.0,0.0,0.0,0.0,0.0,0.0,0.0,0.0,0.0,0.0216,-0.5956,-1.1013,-1.4693,-1.5504,-1.4763,0.0,0.0,0.0,0.0,0.0,0.0,0.0,0.0,0.0,0.0,0.0,0.0,0.0,0.0,0.0,0.0,0.0,0.0,0.0,0.0,0.0,0.0,0.0,0.0,0.0,0.0,0.0,0.0,0.0,0.0,0.0,0.0,0.0,0.0,0.0,0.0,0.0,0.0,0.0,0.0,0.0,0.0,0.0,0.0,0.0,0.0,0.0,0.0,0.0,0.0,0.0,0.0,0.0,0.0,0.0,0.0,0.0,0.0,0.0,0.0,0.0,0.0,0.0,0.0,0.0,0.0,0.0,0.0,0.0,0.0,0.0,0.0,0.0,0.0,0.0,0.0,0.0,0.0,0.0,0.0,0.0,0.0,0.0,0.0,0.0,0.0,0.0,0.0,0.0,0.0,0.0,0.0,0.0,0.0,0.0,0.0,0.0,0.0,0.0,0.0,0.0,0.0,0.0,0.0,0.0,0.0,0.0,0.0,0.5132,0.0973,-0.557,-1.1228,-1.587,-1.7319,-1.7044,0.0,0.0,0.0,0.0,0.0,0.0,0.0,0.0,0.0,0.0,0.0,0.0,0.0,0.0,0.0,0.0,0.0,0.0,0.0,0.0,0.0,0.0,0.0,0.0,0.0,0.0,0.0,0.0,0.0,0.0,0.0,0.0,0.0,0.0,0.0,0.0,0.0,0.0,0.0,0.0,0.0,0.0,0.0,0.0,0.0,0.0,0.0,0.0,0.0,0.0,0.0,0.0,0.0,0.0,0.0,0.0,0.0,0.0,0.0,0.0,0.0,0.0,0.0,0.0,0.0,0.0,0.0,0.0,0.0,0.0,0.0,0.0,0.0,0.0,0.0,0.0,0.0,0.0,0.0,0.0,0.0,0.0,0.0,0.0,0.0,0.0,0.0,0.0,0.0,0.0,0.0,0.0,0.0,0.0,0.0,0.0,0.0,0.0,0.0,0.0,0.0,0.0,0.0,0.0,0.0,0.0,0.0,0.0,0.5942,0.1678,-0.5131,-1.1143,-1.6168,-1.8411,-1.8708,0.0,0.0,0.0,0.0,0.0,0.0,0.0,0.0,0.0,0.0,0.0,0.0,0.0,0.0,0.0,0.0,0.0,0.0,0.0,0.0,0.0,0.0,0.0,0.0,0.0,0.0,0.0,0.0,0.0,0.0,0.0,0.0,0.0,0.0,0.0,0.0,0.0,0.0,0.0,0.0,0.0,0.0,0.0,0.0,0.0,0.0,0.0,0.0,0.0,0.0,0.0,0.0,0.0,0.0,0.0,0.0,0.0,0.0,0.0,0.0,0.0,0.0,0.0,0.0,0.0,0.0,0.0,0.0,0.0,0.0,0.0,0.0,0.0,0.0,0.0,0.0,0.0,0.0,0.0,0.0,0.0,0.0,0.0,0.0,0.0,0.0,0.0,0.0,0.0,0.0,0.0,0.0,0.0,0.0,0.0,0.0,0.0,0.0,0.0,0.0,0.0,0.0,0.0,0.0,0.0,0.0,0.0,0.0,0.6478,0.2381,-0.4075,-1.0237,-1.595,-1.9647,-2.0458,0.0,0.0,0.0,0.0,0.0,0.0,0.0,0.0,0.0,0.0,0.0,0.0,0.0,0.0,0.0,0.0,0.0,0.0,0.0,0.0,0.0,0.0,0.0,0.0,0.0,0.0,0.0,0.0,0.0,0.0,0.0,0.0,0.0,0.0,0.0,0.0,0.0,0.0,0.0,0.0,0.0,0.0,0.0,0.0,0.0,0.0,0.0,0.0,0.0358,0.0,0.0,0.0,0.0,0.0,0.0,0.0,0.0,0.0,0.0,0.0,0.0,0.0,0.0,0.0,0.0,0.0,0.0,0.0,0.0,0.0,0.0,0.0,0.0,0.0,0.0,0.0,0.0,0.0,0.0,0.0,0.0,0.0,0.0,0.0,0.0,0.0,0.0,0.0,0.0,0.0,0.0,0.0,0.0,0.0,0.0,0.0,0.0,0.0,0.0,0.0,0.0,0.0,0.0,0.0,0.0,0.0,0.0,0.0,0.6689,0.2623,-0.3683,-0.9793,-1.5528,-2.0005,-2.1394,0.0,0.0,0.0,0.0,0.0,0.0,0.0,0.0,0.0,0.0,0.0,0.0,0.0,0.0,0.0,0.0,0.0,0.0,0.0,0.0,0.0,0.0,0.0,0.0,0.0,0.0,0.0,0.0,0.0,0.0,0.0,0.0,0.0,0.0,0.0,0.0,0.0,0.0,0.0,0.0,0.0,0.0,0.0,0.0,0.0,0.0,0.0,0.0,0.0,0.0,0.0,0.0,0.0,0.0,0.0,0.0,0.0,0.0,0.0,0.0,0.0,0.0,0.0,0.0,0.0,0.0,0.0,0.0,0.0,0.0,0.0,0.0,0.0,0.0,0.0,0.0,0.0,0.0,0.0,0.0,0.0,0.0,0.0,0.0,0.0,0.0,0.0,0.0,0.0,0.0,0.0,0.0,0.0,0.0,0.0,0.0,0.0,0.0,0.0,0.0,0.0,0.0,0.0,0.0,0.0,0.0,0.0,1.077,0.7062,0.2677,-0.3408,-0.9471,-1.5314,-1.9993,-2.1858,-2.059,0.0,0.0,0.0,0.0,0.0,0.0,0.0,0.0,0.0,0.0,0.0,0.0,0.0,0.0,0.0,0.0,0.0,0.0,0.0,0.0,0.0,0.0,0.0,0.0,0.0,0.0,0.0,0.0,0.0,0.0,0.0,0.0,0.0,0.0,0.0,0.0,0.0,0.0,0.6318,0.4071,0.0,0.0,0.0,0.0,0.0,0.0,0.0,0.0,-0.013,0.0,0.0,0.0,0.0,0.0,0.0,0.0,0.0,0.0,0.0,0.0,0.0,0.0,0.0,0.0,0.0,0.0,0.0,0.0,0.0,0.0,0.0,0.0,0.0,0.0,0.0,0.0,0.0,0.0,0.0,0.0,0.0,0.0,0.0,0.0,0.0,0.0,0.0,0.0,0.0,0.0,0.0,0.0,0.0,0.0,0.0,0.0,0.0,0.0,0.0,0.0,0.0,0.0,0.0,0.0,0.0,1.5907,1.2555,0.8252,0.3013,-0.2526,-0.8752,-1.5662,-1.9921,-2.1924,-2.1412,0.0,0.0,0.0,0.0,0.0,0.0,0.0,0.0,0.0,0.0,0.0,0.0,0.0,0.0,0.0,0.0,0.0,0.0,0.0,0.0,0.0,0.0,0.0,0.0,0.0,0.0,0.0,0.0,0.0,0.0,0.0,0.0,0.0,0.0,0.0,0.0,0.0,0.0,0.0,0.2577,0.0844,0.0,0.0,0.0,0.0,0.0,0.0,0.0,0.0,0.072,0.0,0.0,0.0,0.0,0.0,0.0,0.0,0.0,0.0,0.0,0.0,0.0,0.0,0.0,0.0,0.0,0.0,0.0,0.0,0.0,0.0,0.0,0.0,0.0,0.0,0.0,0.0,0.0,0.0,0.0,0.0,0.0,0.0,0.0,0.0,0.0,0.0,0.0,0.0,0.0,0.0,0.0,0.0,0.0,0.0,0.0,0.0,0.0,0.0,0.0,0.0,0.0,0.0,0.0,0.0,1.751,1.4536,1.0081,0.4112,-0.2073,-0.879,-1.5922,-1.9448,-2.1399,0.0,0.0,0.0,0.0,0.0,0.0,0.0,0.0,0.0,0.0,0.0,0.0,0.0,0.0,0.0,0.0,0.0,0.0,0.0,0.0,0.0,0.0,0.0,0.0,0.0,0.0,0.0,0.0,0.0,0.0,0.0,0.0,0.0,0.0,0.0,0.0,0.0,0.0,0.0,0.0,0.4248,0.222,-0.0646,0.0,0.0,0.0,0.0,0.0,0.0,-0.0875,0.0423,0.0,0.0,0.0,0.0,0.0,0.0,0.0,0.0,0.0,0.0,0.0,0.0,0.0,0.0,0.0,0.0,0.0,0.0,0.0,0.0,0.0,0.0,0.0,0.0,0.0,0.0,0.0,0.0,0.0,0.0,0.0,0.0,0.0,0.0,0.0,0.0,0.0,0.0,0.0,0.0,0.0,0.0,0.0,0.0,0.0,0.0,0.0,0.0,0.0,0.0,0.0,0.0,0.0,0.0,0.0,1.9254,1.6546,1.1821,0.5046,-0.1684,-0.8825,-1.6303,-1.9564,-2.1386,0.0,0.0,0.0,0.0,0.0,0.0,0.0,0.0,0.0,0.0,0.0,0.0,0.0,0.0,0.0,0.0,0.0,0.0,0.0,0.0,0.0,0.0,0.0,0.0,0.0,0.0,0.0,0.0,0.0,0.0,0.0,0.0,0.0,0.0,0.0,0.0,0.0,0.0,0.0,0.0,0.0,0.3733,0.0649,-0.1645,0.0,0.0,0.0,0.0,-0.0912,-0.1388,0.0,0.0,0.0,0.0,0.0,0.0,0.0,0.0,0.0,0.0,0.0,0.0,0.0,0.0,0.0,0.0,0.0,0.0,0.0,0.0,0.0,0.0,0.0,0.0,0.0,0.0,0.0,0.0,0.0,0.0,0.0,0.0,0.0,0.0,0.0,0.0,0.0,0.0,0.0,0.0,0.0,0.0,0.0,0.0,0.0,0.0,0.0,0.0,0.0,0.0,0.0,0.0,0.0,0.0,0.0,0.0,2.118,1.8388,1.2949,0.4958,-0.1089,-0.8412,-1.718,-2.1324,-2.2947,0.0,0.0,0.0,0.0,0.0,0.0,0.0,0.0,0.0,0.0,0.0,0.0,0.0,0.0,0.0,0.0,0.0,0.0,0.0,0.0,0.0,0.0,0.0,0.0,0.0,0.0,0.0,0.0,0.0,0.0,0.0,0.0,0.0,0.0,0.0,0.0,0.0,0.0,0.0,0.0,0.0,0.3832,0.3934,-0.0323,-0.2433,0.0,0.0,-0.1013,-0.1188,-0.4282,0.0,0.0,0.0,0.0,0.0,0.0,0.0,0.0,0.0,0.0,0.0,0.0,0.0,0.0,0.0,0.0,0.0,0.0,0.0,0.0,0.0,0.0,0.0,0.0,0.0,0.0,0.0,0.0,0.0,0.0,0.0,0.0,0.0,0.0,0.0,0.0,0.0,0.0,0.0,0.0,0.0,0.0,0.0,0.0,0.0,0.0,0.0,0.0,0.0,0.0,0.0,0.0,0.0,0.0,0.0,2.3266,2.2513,2.0451,1.5147,0.6666,0.0393,-0.7223,-1.6411,-1.9945,-2.1931,0.0,0.0,0.0,0.0,0.0,0.0,0.0,0.0,0.0,0.0,0.0,0.0,0.0,0.0,0.0,0.0,0.0,0.0,0.0,0.0,0.0,0.0,0.0,0.0,0.0,0.0,0.0,0.0,0.0,0.0,0.0,0.0,0.0,0.0,0.0,0.0,0.0,0.0,0.0,0.0,0.0,0.0,0.38,0.0286,0.0,0.0,0.0,-0.2137,-0.3184,0.0,0.0,0.0,0.0,0.0,0.0,0.0,0.0,0.0,0.0,0.0,0.0,0.0,0.0,0.0,0.0,0.0,0.0,0.0,0.0,0.0,0.0,0.0,0.0,0.0,0.0,0.0,0.0,0.0,0.0,0.0,0.0,0.0,0.0,0.0,0.0,0.0,0.0,0.0,0.0,0.0,0.0,0.0,0.0,0.0,0.0,0.0,0.0,0.0,0.0,0.0,0.0,0.0,0.0,0.0,0.0,0.0,2.3477,2.1989,1.6999,0.8377,0.1951,-0.5689,-1.4584,-1.8204,0.0,0.0,0.0,0.0,0.0,0.0,0.0,0.0,0.0,0.0,0.0,0.0,0.0,0.0,0.0,0.0,0.0,0.0,0.0,0.0,0.0,0.0,0.0,0.0,0.0,0.0,0.0,1.3243,0.0,0.0,0.0,0.0,0.0,0.0,0.0,0.0,0.0,0.0,0.0,0.0,0.0,0.0,0.7834,0.4576,0.1284,-0.0217,0.0,0.0,-0.3547,-0.4661,-0.8659,-1.0534,0.0,0.0,0.0,0.0,0.0,0.0,0.0,0.0,0.0,0.0,0.0,0.0,0.0,0.0,0.0,0.0,0.0,0.0,0.0,0.0,0.0,0.0,0.0,0.0,0.0,0.0,0.0,0.0,0.0,0.0,0.0,0.0,0.0,0.0,0.0,0.0,0.0,0.0,0.0,0.0,0.0,0.0,0.0,0.0,0.0,0.0,0.0,0.0,0.0,0.0,0.0,0.0,0.0,0.0,2.3996,2.3892,2.2565,1.7766,0.9377,0.3294,-0.3772,-1.1942,-1.6997,-1.9747,0.0,0.0,0.0,0.0,0.0,0.0,0.0,0.0,0.0,0.0,0.0,0.0,0.0,0.0,0.0,0.0,0.0,0.0,0.0,0.0,0.0,0.0,0.0,0.0,0.0,0.0,0.0,0.0,0.0,0.0,0.0,0.0,0.0,0.0,0.0,0.0,0.0,0.0,0.0,0.0,0.0,0.9888,0.8221,0.3176,0.0836,0.0,-0.0517,-0.4654,-0.4636,-0.9652,-1.2477,-0.9136,0.0,0.0,0.0,0.0,0.0,0.0,0.0,0.0,0.0,0.0,0.0,0.0,0.0,0.0,0.0,0.0,0.0,0.0,0.0,0.0,0.0,0.0,0.0,0.0,0.0,0.0,0.0,0.0,0.0,0.0,0.0,0.0,0.0,0.0,0.0,0.0,0.0,0.0,0.0,0.0,0.0,0.0,0.0,0.0,0.0,0.0,0.0,0.0,0.0,0.0,0.0,0.0,0.0,2.3796,2.3981,2.3587,1.9393,1.1383,0.6065,-0.0529,-0.8685,-1.3918,-1.7322,0.0,0.0,0.0,0.0,0.0,0.0,0.0,0.0,0.0,0.0,0.0,0.0,0.0,0.0,0.0,0.0,0.0,0.0,0.0,0.0,0.0,0.0,0.0,0.0,0.0,0.0,0.0,0.0,0.5576,0.5701,0.7595,0.0,0.0,0.0,0.0,0.0,0.0,0.0,0.0,0.0,0.0,1.1803,0.9182,0.5209,0.0,0.0,0.1445,-0.1664,-0.6401,-0.873,-0.9742,-0.8971,-0.6775,0.0,0.0,0.0,0.0,0.0,0.0,0.0,0.0,0.0,0.0,0.0,0.0,0.0,0.0,0.0,0.0,0.0,0.0,0.0,0.0,0.0,0.0,0.0,0.0,0.0,0.0,0.0,0.0,0.0,0.0,0.0,0.0,0.0,0.0,0.0,0.0,0.0,0.0,0.0,0.0,0.0,0.0,0.0,0.0,0.0,0.0,0.0,0.0,0.0,0.0,0.0,0.0,2.3376,2.3571,2.407,2.0926,1.3999,0.9189,0.3205,-0.4092,-0.945,-1.353,0.0,0.0,0.0,0.0,0.0,0.0,0.0,0.0,0.0,0.0,0.0,0.0,0.0,0.0,0.0,0.0,0.0,0.0,0.0,0.0,0.0,0.0,0.0,0.0,0.0,0.0,0.0,0.0,0.2359,0.3104,0.7909,0.0,0.0,0.0,0.0,0.0,0.0,0.0,0.0,0.0,0.0,1.3397,1.0709,0.7505,0.5045,0.4002,0.259,-0.0156,-0.5282,-0.6203,-0.6287,-0.6216,0.0,0.0,0.0,0.0,0.0,0.0,0.0,0.0,0.0,0.0,0.0,0.0,0.0,0.0,0.0,0.0,0.0,0.0,0.0,0.0,0.0,0.0,0.0,0.0,0.0,0.0,0.0,0.8247,0.0,0.0,0.9739,0.0,0.0,0.0,0.0,0.0,0.0,0.0,0.0,0.0,0.0,0.0,0.0,0.0,0.0,0.0,0.0,0.0,0.0,0.0,0.0,0.0,0.0,2.2731,2.2537,2.3834,2.2181,1.7492,1.2554,0.7356,0.1907,-0.3499,-0.8285,-1.2347,0.0,0.0,0.0,0.0,0.0,0.0,0.0,0.0,0.0,0.0,0.0,0.0,0.0,0.0,0.0,0.0,0.0,0.0,0.0,0.0,0.0,0.0,0.0,0.0,0.0,0.0,0.3337,0.1094,0.3552,0.0,0.0,0.0,0.0,0.0,0.0,0.0,0.0,0.0,0.0,1.6074,1.4545,1.3262,1.0146,0.7852,0.7548,0.2578,-0.0996,-0.0288,-0.1929,-0.2608,0.0,0.0,0.0,0.0,0.0,0.0,0.0,0.0,0.0,0.0,0.0,0.0,0.0,0.0,0.0,0.0,0.0,0.0,0.0,0.0,0.0,0.0,0.0,0.0,0.0,0.0,0.0,0.9599,0.9844,0.0,0.0,0.0,0.0,0.0,0.0,0.0,0.0,0.0,0.0,0.0,0.6002,0.5876,0.0,0.0,0.0,0.0,0.0,0.0,0.0,0.0,0.0,0.0,0.0,0.0,2.2399,2.2313,2.4913,2.3915,1.905,1.5977,1.1676,0.606,0.0728,-0.4949,-1.0989,0.0,0.0,0.0,0.0,0.0,0.0,0.0,0.0,0.0,0.0,0.0,0.0,0.0,0.0,0.0,0.0,0.0,0.0,0.0,0.0,0.0,0.0,0.0,0.0,0.0,0.426,0.0,0.0,0.0,0.0,0.0,0.0,0.0,0.0,0.0,0.0,0.0,1.6307,1.7319,1.6282,1.5226,1.4713,1.2804,1.0564,0.0,0.0,0.0,0.0,0.0,0.0,0.0,0.0,0.0,0.0,0.0,0.0,0.0,0.0,3.1087,2.8004,2.7367,2.7091,2.6426,0.0,0.0,0.0,0.0,0.0,0.0,0.0,0.0,0.0,0.0,0.0,0.0,0.0,0.0,1.101,0.0,1.2163,0.0,0.0,0.0,0.0,0.0,0.0,0.0,0.0,1.1771,1.0831,0.9225,0.8936,0.7721,0.0,0.53,0.4105,0.0,0.0,0.0,0.0,0.0,0.0,0.0,0.0,2.2,2.2341,2.5622,2.5415,2.1516,1.9609,1.6338,1.1357,0.4587,-0.1785,-0.758,-1.1448,-1.4751,0.0,0.0,0.0,0.0,0.0,0.0,0.0,0.0,0.0,0.0,0.0,0.0,0.0,0.0,0.0,0.0,0.0,0.0,0.0,0.0,0.0,0.0,0.0,0.4219,0.0,0.0,0.0,0.0,0.0,0.0,0.0,0.0,0.0,1.5839,1.5535,1.5693,1.6493,1.5982,1.5376,1.5061,0.0,0.0,0.0,0.0,0.0,0.0,0.0,0.899,1.154,1.3864,1.6752,2.0961,2.6679,3.0717,3.0732,0.0,0.0,3.1491,3.0312,2.9712,2.9458,2.7342,2.5283,2.4367,2.1278,1.946,0.0,0.0,0.0,0.0,0.0,0.0,0.0,0.0,1.2373,1.2565,0.0,1.3784,0.0,0.0,0.0,0.0,1.5452,1.4991,0.0,0.0,1.463,1.4007,1.3204,1.1734,1.0532,0.9665,0.916,0.7654,0.5253,0.3889,0.0,0.0,0.0,0.0,0.0,0.0,2.1535,2.266,2.5907,2.6613,2.4617,2.3342,2.1109,1.7583,0.8312,0.1591,-0.2105,-0.8243,-1.3178,-1.6192,-1.7991,0.0,0.0,0.0,0.0,0.0,0.0,0.0,0.0,0.0,0.0,0.0,0.0,0.0,0.0,0.0,0.0,0.0,0.0,0.0,0.0,0.2376,0.0,0.0,0.0,0.0,0.0,0.0,0.0,0.0,0.0,0.0,1.5241,1.515,1.5208,1.5213,0.0,0.0,0.0,0.0,1.4052,1.2531,1.1847,1.1834,1.2641,1.3911,1.5482,1.7639,0.0,0.0,2.6736,3.1061,3.373,3.2295,3.4741,3.6837,3.6313,3.4405,3.2991,3.2661,3.0249,2.8073,2.7118,2.5438,2.4247,2.2771,0.0,0.0,0.0,0.0,1.8214,1.7948,1.8593,1.6846,1.6331,1.6799,1.6966,0.0,0.0,0.0,0.0,0.0,0.0,1.6704,1.663,1.6013,1.5756,1.5822,1.5211,1.4452,1.3491,1.2783,1.1334,0.9296,0.7978,0.6575,0.5176,0.0,0.0,0.0,0.0,2.1826,2.2607,2.5913,2.6834,2.5132,2.5492,2.357,1.9215,1.3775,0.8661,0.4007,-0.197,-0.7588,-1.2721,-1.7116,0.0,0.0,0.0,0.0,0.0,0.0,0.0,0.0,0.0,0.0,0.0,0.0,0.0,0.0,0.0,0.0,0.0,0.0,0.0,0.6191,0.4595,0.6418,0.0,0.0,0.0,0.0,0.0,0.0,0.0,0.0,0.0,1.6996,1.601,1.5718,0.0,0.0,1.6663,1.764,1.7096,1.6489,1.6207,1.5975,0.0,1.7265,1.6854,1.7802,2.203,2.6083,2.9169,3.0366,3.3518,3.5863,3.5599,3.6986,3.8033,3.7542,3.622,3.4903,3.4152,3.2223,3.0603,3.0217,2.8893,2.7419,2.5798,2.4616,2.2882,2.2189,2.2018,2.0707,2.0653,2.135,1.9574,1.9225,1.989,1.962,1.9177,1.863,1.8769,0.0,0.0,0.0,1.8816,1.9061,1.8528,1.8457,1.8747,1.8512,1.7821,1.6815,1.5968,1.4518,1.2463,1.1604,1.0215,0.8401,0.0,0.0,1.517,1.9106,2.1526,2.2439,2.533,2.6481,2.5772,2.6926,2.6048,2.2873,1.9301,1.5374,1.1057,0.5829,-0.0694,-0.8712,-1.3258,-1.7286,0.0,0.0,0.0,0.0,0.0,0.0,0.0,0.0,0.0,0.0,0.0,0.6281,0.9486,0.0,0.0,0.0,0.8323,0.7066,0.6977,0.6719,0.0,0.0,0.0,0.0,0.0,0.0,0.0,1.9809,1.9239,1.8758,1.8449,1.7737,1.7216,1.7062,1.7178,1.756,1.8271,0.0,1.8253,1.7964,1.8663,1.9546,2.0512,2.0471,2.1673,2.5702,2.9368,3.1876,3.2547,3.4675,3.6447,3.716,3.7723,3.8121,3.8279,3.7116,3.5916,3.521,3.3372,3.1976,3.1972,3.0732,2.9151,2.8102,2.852,2.5702,2.4218,2.3709,2.3009,2.2685,2.2551,2.1188,2.1463,2.2926,2.1819,2.1493,2.1773,2.0429,0.0,2.1627,2.0926,2.1097,2.2003,2.1542,2.1503,2.1701,2.133,2.0624,1.9604,1.8794,1.7205,1.5082,1.474,1.4284,1.3556,1.216,1.3385,1.707,1.9211,2.0879,2.2158,2.427,2.5673,2.636,2.7796,2.8215,2.75,2.447,2.1381,1.8329,1.4016,0.6541,-0.4316,-0.7836,-1.3449,-2.1894,0.0,0.0,0.0,0.0,0.0,0.0,0.0,0.0,0.0,0.0,0.0,0.0,0.0,0.0,0.0,0.73,0.0,0.6809,0.8731,0.0,0.0,0.0,1.7906,1.99,2.054,2.0923,2.0988,0.0,0.0,1.97,1.9975,1.9459,1.7568,1.799,1.8257,1.7641,1.9186,1.9768,1.8863,2.0529,2.2237,2.3128,2.45,2.6399,2.8885,3.152,3.3384,3.3921,3.5122,3.643,3.7671,3.7566,3.7654,3.8654,3.761,3.642,3.5891,3.3989,3.2456,3.2387,3.125,2.9692,2.772,2.7811,2.737,2.6643,2.5833,2.5149,2.4869,2.4732,2.3484,2.348,2.4191,2.3284,2.2985,2.311,2.25,2.2483,2.2849,2.2404,2.2224,2.2354,2.2004,2.2169,2.2768,2.2158,2.1747,2.1476,2.0337,1.9105,1.7841,1.7014,1.6715,1.6784,1.5878,1.5954,1.7084,1.9204,2.0525,2.1063,2.2508,2.4147,2.5987,2.7373,2.8021,2.796,2.7026,2.5184,2.2343,1.7704,1.002,-0.0952,-0.6796,-1.3743,-2.2229,-2.0385,0.0,0.0,0.0,0.0,0.0,0.0,0.0,0.0,0.0,0.7561,0.9361,0.0,0.9718,0.0,0.8218,0.8094,0.9825,1.1585,0.0,0.0,1.8184,1.9148,2.0597,2.0827,2.1106,2.1664,2.1391,2.1284,2.1725,2.2073,2.2141,2.1779,2.1288,2.1061,2.1406,2.2522,2.3059,2.2335,2.3783,2.5536,2.6469,2.8387,3.0286,3.1672,3.3538,3.5123,3.5964,3.7106,3.8263,3.9277,3.9537,3.9396,3.8963,3.8507,3.7599,3.6122,3.4497,3.3109,3.2324,3.103,2.9682,2.6719,2.7381,2.7734,2.7753,2.747,2.6701,2.6136,2.5706,2.5103,2.4793,2.4688,2.4127,2.3722,2.3579,2.3467,2.348,2.3595,2.3393,2.3296,2.3292,2.3122,2.3041,2.3061,2.2862,2.2371,2.1561,2.1001,2.0229,1.9199,1.8599,1.8366,1.8436,1.7957,1.7616,1.7515,1.8731,1.9581,2.0025,2.1369,2.2488,2.3307,2.4752,2.5451,2.5351,2.5496,2.469,2.2809,2.0288,1.3754,0.276,-0.1831,-0.7865,-1.5957,-1.5173,-1.3137,0.0,0.0,0.0,0.0,0.0,0.0,0.0,0.0,0.0,0.0,0.0,0.9649,0.9845,0.9827,1.0436,1.189,1.3385,1.5393,1.8131,1.9382,2.0306,2.1146,2.1936,2.251,2.273,2.2936,2.3063,2.3158,2.3472,2.3787,2.4013,2.3966,2.3841,2.3656,2.4545,2.5027,2.4279,2.6394,2.8619,2.9821,3.1796,3.3316,3.3897,3.5345,3.6704,3.7228,3.7841,3.8585,3.9418,3.9351,3.9193,3.917,3.8462,3.7528,3.6622,3.5211,3.3847,3.2599,3.0847,2.9345,2.5379,2.6887,2.7319,2.7938,2.8513,2.7769,2.7,2.6312,2.6105,2.5536,2.464,2.4473,2.403,2.3509,2.3696,2.3794,2.3776,2.3819,2.3884,2.3974,2.3974,2.3544,2.2808,2.3086,2.2371,2.088,2.0981,2.0558,1.9617,1.956,1.9324,1.9032,1.8849,1.8551,1.8126,1.823,1.8514,1.9079,2.0483,2.0836,2.0029,2.1494,2.2042,2.1616,2.2199,2.2177,2.1485,2.1799,1.7037,0.6653,0.4759,0.0457,-0.7381,-0.765,-0.5449,0.0,0.208,0.0,0.0,0.0,0.0,0.0,0.0,0.0,0.0,0.9592,0.9737,1.0299,1.1682,1.2794,1.3579,1.4913,1.6604,1.8656,2.0285,2.1386,2.1774,2.3374,2.4477,2.4493,2.4641,2.4579,2.4321,2.4542,2.4753,2.4949,2.5794,2.6025,2.5286,2.6034,2.6532,2.5644,2.8668,3.1581,3.2701,3.4269,3.5318,3.5499,3.6629,3.787,3.7961,3.8026,3.83,3.8945,3.8612,3.8358,3.9357,3.8143,3.7136,3.6982,3.593,3.4614,3.3084,3.1299,2.9829,2.4092,2.5077,2.6503,2.7442,2.7952,2.8215,2.8207,2.7844,2.6369,2.506,2.3999,2.4053,2.3889,2.3509,2.361,2.3268,2.2636,2.2847,2.2686,2.2184,2.2184,2.2188,2.2115,2.1523,2.1129,2.0931,2.013,1.9561,1.9199,1.9064,1.8977,1.9085,1.8783,1.8719,1.8813,0.0,0.0,0.0,1.9348,1.9789,1.9517,2.0433,2.0569,1.9856,2.064,0.0,2.0604,2.1136,1.778,1.0127,0.9218,0.0,0.0,0.0,0.0,0.0,0.0,0.0,0.0,0.0,0.0,0.0,1.0827,0.9601,0.9708,1.0319,1.1085,1.2056,1.3079,1.4315,1.5807,1.7373,1.8936,2.0604,2.1489,2.2271,2.3046,2.441,2.6136,2.8516,2.6823,2.5478,2.5559,2.5359,2.5226,2.5376,2.6184,2.6976,2.7409,2.8168,2.8465,2.8087,3.1511,3.4263,3.4014,3.4839,3.5831,3.6265,3.7072,3.8006,3.8688,3.8695,3.8813,3.941,3.9338,3.8931,3.8646,3.8383,3.7766,3.6624,3.6337,3.566,3.346,3.2748,3.2265,2.2746,2.355,2.5038,2.6242,0.0,2.7256,2.7718,2.8304,2.6563,2.4957,2.3553,2.3494,2.3186,2.2673,2.2658,2.2364,2.1872,2.1887,2.1873,2.1822,2.1729,2.147,2.1063,2.0697,2.0332,1.9878,1.924,1.8855,1.8755,1.8616,1.8719,1.9031,1.8892,1.9022,1.9306,1.9416,1.912,1.8382,1.9042,1.9168,1.8657,1.9118,1.9026,1.8237,1.8921,0.0,0.0,0.0,0.0,0.0,0.0,0.0,0.0,0.6625,0.0,0.8734,1.085,1.1986,1.1936,1.2589,1.2886,1.2814,1.1601,1.089,1.0934,1.1469,1.227,1.3313,1.442,1.5592,1.6823,1.8318,1.9717,2.0925,2.1887,2.2665,2.3313,2.5023,2.7196,2.9401,2.846,2.7109,2.6389,2.6206,2.6112,2.6184,2.6943,2.7862,2.8725,2.9233,2.9615,3.0541,3.38,3.608,3.5496,3.625,3.718,3.791,3.8304,3.886,3.9637,3.9319,3.9007,3.9062,3.8936,3.8635,3.8085,3.7875,3.7577,3.6734,3.6094,3.5403,3.407,3.3566,3.2972,2.1358,2.2251,2.3431,2.4761,2.6009,2.5905,2.6579,2.7638,2.6442,0.0,0.0,2.3038,2.2511,2.1816,2.1758,2.1484,2.1076,2.0925,2.0973,2.1281,2.1188,2.0656,1.986,1.9987,1.9542,1.863,1.8355,1.8171,1.8131,1.8094,1.833,1.8753,1.9072,1.9527,2.0155,2.0543,2.0378,1.9696,1.9708,1.937,1.855,1.8804,1.855,1.7739,1.8304,1.8471,1.8112,1.8919,1.8342,1.6303,1.6288,1.6354,1.6148,1.5398,1.5559,1.69,1.678,1.5873,1.4146,1.4348,1.3768,1.2051,1.2037,1.2044,1.2016,1.2503,1.3226,1.4212,1.5522,1.6717,1.7638,1.8943,2.0124,2.1028,2.2131,2.2946,2.3341,2.5277,2.7506,2.9398,2.9198,2.8454,2.7321,2.711,2.7128,2.7223,2.7874,2.8775,2.958,2.9839,3.0601,3.2532,3.504,3.6755,3.6445,3.7243,3.8531,3.8766,3.9029,3.9432,3.9813,3.9424,3.8728,3.8279,3.8085,3.7787,3.7396,3.717,3.6939,3.6716,3.5682,3.467,3.4357,3.3859,3.3252,2.0042,2.1301,2.2246,2.343,2.4636,2.5203,2.5235,2.5076,2.5605,2.4897,2.3275,2.3127,2.26,2.1801,2.1772,2.1083,1.9872,1.9817,1.9518,1.8967,1.8967,1.8885,1.8722,1.8747,1.8481,1.7961,1.7733,1.7394,1.7079,1.7146,1.7573,1.8355,1.9195,2.0457,2.1988,2.2476,2.279,2.2907,2.2219,2.1564,2.0935,2.1575,2.1472,2.0678,2.0832,2.0727,2.0384,2.1798,2.2205,2.1356,2.2668,2.2894,2.1582,2.0797,2.0078,1.9212,1.8494,1.7492,1.6077,1.5624,1.4658,1.3041,1.306,1.2618,1.133,1.246,1.3707,1.4678,1.6078,1.7612,1.9075,2.0159,2.114,2.2116,2.2922,2.3605,2.4118,2.5346,2.6858,2.8579,2.8345,2.8347,2.8594,2.8242,2.7897,2.8121,2.8759,2.9615,3.0311,3.0702,3.1318,3.2793,3.4811,3.5931,3.6031,3.6777,3.7689,3.7674,3.8214,3.8554,3.8768,3.8281,3.7769,3.747,3.7306,3.6985,3.6597,3.6696,3.6336,3.5624,3.5208,3.4731,3.323,3.3459,3.3913,1.9396,1.9926,2.1109,2.2199,2.3229,2.4736,2.4739,2.3746,2.4686,2.4311,2.3081,2.2783,2.2057,2.0968,2.0939,2.0203,1.899,1.9004,1.8942,1.8764,1.8697,1.862,1.8517,1.84,1.8042,1.7544,1.7297,1.6964,1.66,1.6655,1.7316,1.8582,2.0134,2.1563,2.2756,2.3083,2.3392,2.3739,2.3701,2.3572,2.3403,2.4548,2.4878,2.4369,2.4734,2.4855,2.4624,2.525,2.5453,2.5002,2.5803,2.5764,2.471,2.4132,2.3154,2.1698,2.0474,1.9199,1.7755,1.6362,1.489,1.3309,1.3338,1.3011,1.1844,1.2593,1.3662,1.497,1.6401,1.7787,1.9273,2.067,2.1876,2.2677,2.3436,2.4063,2.4629,2.5608,2.6663,2.7662,2.7922,2.8136,2.8585,2.797,2.794,2.8674,2.9602,3.0311,3.0677,3.0832,3.1368,3.2687,3.4112,3.5286,3.5943,3.6833,3.7613,3.819,3.8101,3.8111,3.8169,3.7733,3.7076,3.6706,3.6504,3.6274,3.5864,3.5626,3.5309,3.5042,3.4243,3.3467,3.2597,3.2489,3.1864,1.8667,1.8946,2.0016,2.1014,2.2111,2.388,2.3958,2.3022,2.3806,2.3671,2.2869,2.2598,2.1645,2.0314,2.0229,1.9545,1.8484,1.8386,1.8503,1.8711,1.8697,1.8567,1.8347,1.8189,1.7774,1.716,1.6905,1.6565,1.6107,1.625,1.7207,1.8885,2.0726,2.2119,2.3038,2.3348,2.3739,2.4135,2.4887,2.54,2.5668,2.713,2.7917,2.7965,2.8442,2.8742,2.8618,2.8589,2.8355,2.7954,2.801,2.7737,2.6977,2.6199,2.5251,2.3984,2.2405,2.0655,1.8796,1.6845,1.5067,1.3594,1.3635,1.3467,1.2792,1.2693,1.343,1.494,1.6308,1.7697,1.9146,2.0727,2.2058,2.2877,2.3687,2.4264,2.4768,2.5596,2.6362,2.6901,2.7428,2.7768,2.7911,2.7705,2.8126,2.944,3.0289,3.0671,3.0726,3.081,3.1363,3.2333,3.3304,3.433,3.5743,3.6583,3.7356,3.8436,3.808,3.7791,3.7754,3.7136,3.6429,3.5899,3.5634,3.5324,3.4947,3.4465,3.4141,3.3905,3.3121,3.229,3.176,3.0973,2.9792,1.7436,1.8826,1.8827,1.9771,2.1442,2.2021,2.2484,2.2873,2.3022,2.3067,2.2992,2.2826,2.1853,2.0499,2.0258,1.9391,1.8057,1.8016,1.8055,1.8043,1.8202,1.8163,1.8003,1.7909,1.7461,1.668,1.6565,1.6132,1.5367,1.5715,1.6953,1.8871,2.0023,2.131,2.2819,2.3694,2.4354,2.4735,2.5958,2.6863,2.7413,2.8679,2.9844,3.0712,3.0946,3.1116,3.1143,3.1376,3.0967,2.9917,2.9962,2.966,2.8548,2.7017,2.6053,2.5923,2.4034,2.1696,1.8941,1.7093,1.5624,1.4369,1.4273,1.4124,1.3539,1.284,1.2975,1.4423,1.5858,1.7383,1.9151,2.0384,2.1589,2.2775,2.3581,2.4192,2.4561,2.4806,2.531,2.6294,2.651,2.694,2.7623,2.836,2.9314,3.0051,3.0471,3.069,3.0709,3.0755,3.094,3.1694,3.237,3.3204,3.439,3.5422,3.6339,3.6931,3.7309,3.7217,3.6855,3.6348,3.5702,3.4874,3.4563,3.4246,3.3573,3.3061,3.2871,3.2606,3.1998,3.1293,3.0577,2.9789,2.8732,1.6872,1.7468,1.8313,1.9483,2.0809,2.141,2.1888,2.2249,2.2572,2.2723,2.2797,2.2781,2.2038,2.0789,2.0295,1.9472,1.8439,1.8126,1.7962,1.7975,1.7989,1.7963,1.7882,1.7733,1.7282,1.668,1.662,1.6219,1.5751,1.617,1.7135,1.8241,1.915,2.0337,2.1743,2.2236,2.3031,2.4302,2.5067,2.6237,2.7933,2.9532,3.0957,3.2124,3.2606,3.2907,3.3078,3.3331,3.2791,3.1514,3.1504,3.0977,2.9636,2.8292,2.7395,2.6889,2.4652,2.1925,1.8739,1.8103,1.7102,1.5268,1.531,1.5184,1.4762,1.4514,1.4642,1.4982,1.5654,1.6888,1.8827,2.0284,2.1518,2.2574,2.3454,2.41,2.4458,2.4756,2.5051,2.5015,2.5378,2.5838,2.6526,2.8058,2.9245,2.9824,3.0227,3.0642,3.0684,3.0685,3.0591,3.0556,3.1013,3.2353,3.398,3.4764,3.5446,3.6138,3.6435,3.6252,3.5713,3.5127,3.4552,3.3863,3.3604,3.3317,3.2788,3.1934,3.144,3.1316,3.0946,3.0352,3.0251,2.9485,2.8879,1.5992,1.6283,1.7767,1.9092,2.0156,2.0845,2.1361,2.1746,2.2203,2.248,2.2601,2.2675,2.2295,2.1394,2.049,1.9537,1.8737,1.8208,1.7922,1.7882,1.7868,1.7828,1.7706,1.7529,1.7144,1.6723,1.662,1.6405,1.6005,1.6455,1.7117,1.7797,1.8574,1.9617,2.0822,2.1126,2.2028,2.3544,2.4213,2.5643,2.779,2.9532,3.1129,3.2606,3.3213,3.3607,3.3839,3.4127,3.3581,3.2107,3.2357,3.184,3.0256,2.9241,2.8188,2.6987,2.4986,2.2529,1.9694,1.9479,1.8616,1.6879,1.6653,1.6454,1.6087,1.6143,1.6186,1.6083,1.6066,1.695,1.8527,2.0209,2.1516,2.2522,2.3436,2.41,2.442,2.4771,2.481,2.4385,2.4834,2.5206,2.58,2.744,2.8868,2.9265,3.0036,3.0634,3.0689,3.0645,3.0394,2.9608,2.9496,3.0361,3.2932,3.3979,3.4521,3.5209,3.5483,3.5472,3.4711,3.4192,3.3477,3.2934,3.2617,3.2172,3.1621,3.0859,3.0336,3.0496,3.0182,2.9572,2.9485,2.9086,2.9301,1.4364,1.5649,1.6844,1.8147,1.9451,1.9876,2.057,2.1342,2.188,2.2267,2.2452,2.2526,2.248,2.22,2.0745,1.9594,1.8679,1.8153,1.7774,1.7611,1.7788,1.7666,1.7253,1.7212,1.6989,1.6595,1.6637,1.6479,1.62,1.6281,1.6748,1.7689,1.8352,1.9292,2.0316,2.1072,2.198,2.2765,2.3955,2.5478,2.7135,2.8452,3.0125,3.1946,3.2484,3.2753,3.3035,3.3467,3.2985,3.1413,3.2365,3.2151,3.0456,2.9379,2.8013,2.6242,2.5105,2.3842,2.226,2.1055,1.9924,1.8925,1.8333,1.7775,1.7236,1.7397,1.7561,1.75,1.7446,1.7827,1.8789,2.0215,2.1498,2.2574,2.3584,2.4192,2.4459,2.4642,2.4783,2.4728,2.4709,2.5137,2.6154,2.7206,2.8287,2.911,3.0006,3.0625,3.0697,3.0743,3.037,2.9218,2.7885,2.6942,2.9871,3.1949,3.3254,3.3981,3.4448,3.4907,3.4465,3.3821,3.2838,3.211,3.1841,3.1318,3.0533,2.9969,2.9696,2.9568,2.9334,2.8947,2.9183,2.8784,2.9205,1.4035,1.4928,1.5605,1.6638,1.7816,1.8339,1.9177,2.0215,2.0327,2.1029,2.1909,2.1868,2.2002,2.23,2.0936,2.0017,1.9426,1.8426,1.7814,1.7516,1.7556,1.7391,1.7086,1.7225,1.7157,1.6892,1.7144,1.7005,1.6595,1.6552,1.6739,1.7119,1.7473,1.8179,1.9053,1.9505,2.0391,2.1792,2.3224,2.468,2.619,2.8049,2.9833,3.1347,3.1825,3.2353,3.3059,3.2899,3.2313,3.1227,3.1669,3.1384,3.0195,2.926,2.8188,2.693,2.6278,2.5227,2.3631,2.2624,2.1487,2.0159,2.0068,1.9682,1.9198,1.9657,2.0057,1.9619,1.9824,2.0218,2.0429,2.0953,2.1597,2.259,2.352,2.4192,2.4407,2.4607,2.461,2.4228,2.4077,2.4623,2.6041,2.7139,2.8121,2.9128,3.0067,3.0569,3.0746,3.0799,3.0325,2.8776,2.7015,2.6249,2.8222,3.0131,3.1538,3.2387,3.2948,3.2871,3.2568,3.2429,3.1625,3.1232,3.0983,3.0839,3.0166,2.9829,2.9403,2.8526,2.8279,2.8732,2.9105,2.9008,2.9846,1.3506,1.3995,1.4407,1.5252,1.6366,1.7132,1.8166,1.932,1.9331,2.0297,2.1625,2.1583,2.1835,2.2269,2.1168,2.0472,2.0147,1.8768,1.7882,1.7516,1.7543,1.735,1.7086,1.735,1.7406,1.7297,1.7544,1.7544,1.7201,1.7089,1.7102,1.7282,1.731,1.7747,1.8475,1.8731,1.959,2.1054,2.2694,2.41,2.5382,2.7512,2.9326,3.0422,3.0796,3.1504,3.2702,3.2446,3.1787,3.0951,3.1124,3.0944,3.0045,2.9396,2.865,2.7829,2.7454,2.6637,2.5188,2.4472,2.3481,2.1937,2.1868,2.1592,2.0649,2.118,2.127,2.0987,2.1108,2.1499,2.1808,2.1866,2.2163,2.2867,2.3687,2.4283,2.4503,2.47,2.4596,2.4288,2.42,2.4759,2.5735,2.6723,2.7711,2.876,2.9505,2.9967,3.0639,3.0739,3.0175,2.845,2.6675,2.6177,2.7073,2.8307,2.9933,3.0908,3.1604,3.1361,3.1002,3.0886,3.0789,3.0423,3.0261,3.0186,3.0004,2.966,2.8883,2.7881,2.7954,2.8423,2.8881,2.9428,3.0396,1.2593,1.2915,1.3261,1.4063,1.519,1.6268,1.7616,1.8645,1.9015,2.008,2.1611,2.165,2.1843,2.2395,2.1339,2.0891,2.0575,1.9089,1.8095,1.7679,1.7828,1.7666,1.7282,1.7557,1.7747,1.7747,1.7787,1.7908,1.7948,1.7828,1.7787,1.7962,1.7935,1.8279,1.8836,1.9147,1.9645,2.092,2.265,2.3934,2.47,2.6848,2.8574,2.9557,2.9586,3.0278,3.1824,3.2053,3.1424,3.0281,3.0876,3.0977,3.0121,2.9767,2.9361,2.8734,2.8477,2.792,2.7064,2.6499,2.5611,2.4379,2.3955,2.309,2.1986,2.1627,2.1536,2.147,2.145,2.1606,2.2441,2.2838,2.3122,2.3361,2.4081,2.4598,2.4762,2.4861,2.4898,2.4853,2.4892,2.5091,2.5393,2.6139,2.715,2.7997,2.8389,2.8973,3.0293,3.0663,3.0009,2.8349,2.6842,2.6246,2.6247,2.6473,2.8079,2.946,3.0118,3.0306,2.9799,2.9551,2.9758,2.957,2.9905,2.9842,2.9597,2.9263,2.8869,2.815,2.8245,2.8393,2.9066,2.9808,3.0792,1.1752,1.1878,1.2305,1.2997,1.3857,1.4836,1.6021,1.7204,1.7429,1.8614,2.0141,2.0145,2.0768,2.153,2.09,2.0612,2.0733,1.9706,1.8884,1.8383,1.8372,1.8121,1.776,1.7948,1.8293,1.8542,1.8397,1.8422,1.85,1.8475,1.8514,1.8592,1.8731,1.8997,1.942,1.9726,2.0338,2.1521,2.3046,2.4279,2.5232,2.6958,2.8467,2.9529,2.9879,3.0426,3.1084,3.0791,3.0368,2.9975,3.0238,3.0257,2.9997,2.9907,2.9761,2.9553,2.9481,2.9019,2.8144,2.7657,2.6979,2.5937,2.5187,2.4408,2.3553,2.324,2.3073,2.2977,2.301,2.3301,2.3785,2.3889,2.3931,2.3947,2.4433,2.4804,2.4943,2.5049,2.5126,2.5149,2.5138,2.5182,2.5428,2.6044,2.6892,2.7921,2.808,2.8528,2.9625,3.0203,2.9684,2.7595,2.6747,2.6148,2.599,2.5963,2.6759,2.7758,2.8342,2.8734,2.8352,2.8544,2.8727,2.9156,2.945,2.9491,2.9248,2.8925,2.8588,2.8411,2.835,2.8801,2.9557,3.0188,3.0776,1.1581,1.1486,1.1778,1.2353,1.3112,1.3884,1.5058,1.637,1.6516,1.78,1.9508,1.9531,2.022,2.1268,2.0831,2.07,2.0959,2.0299,1.9732,1.9244,1.8959,1.8655,1.8305,1.8655,1.8959,1.9213,1.9161,1.9087,1.9087,1.9109,1.9132,1.9229,1.9376,1.9666,2.01,2.0589,2.1292,2.2277,2.372,2.4908,2.5797,2.7086,2.8258,2.9071,2.963,2.999,3.0161,2.9945,2.9891,2.9988,2.9972,2.9921,2.994,2.9956,2.9972,2.9972,2.9921,2.9664,2.9089,2.8727,2.8075,2.7129,2.6453,2.5585,2.4751,2.441,2.4197,2.3796,2.3803,2.4127,2.4461,2.4555,2.4501,2.462,2.4769,2.4967,2.5099,2.5274,2.5357,2.5365,2.5301,2.5346,2.5522,2.58,2.6754,2.7784,2.7609,2.7949,2.8786,2.8987,2.7835,2.711,2.7014,2.6384,2.5736,2.5622,2.5668,2.6101,2.6489,2.6667,2.6528,2.7465,2.8013,2.8921,2.9385,2.9397,2.9185,2.8888,2.8592,2.8515,2.8502,2.8995,2.9526,2.9483,3.0098,1.2051,1.1755,1.1704,1.2194,1.2929,1.3604,1.4824,1.6206,1.6372,1.7665,1.9529,1.946,2.0193,2.1338,2.0926,2.092,2.1284,2.0855,2.0444,2.0189,1.9788,1.9317,1.9035,1.9442,1.9732,1.9823,1.9925,1.9904,1.9782,1.9808,1.9793,1.9974,2.0078,2.023,2.081,2.1596,2.2247,2.2997,2.4496,2.5524,2.6055,2.7103,2.7864,2.8281,2.8852,2.9237,2.9405,2.9718,2.9953,2.9992,3.0011,3.0015,3.0022,2.9937,3.0,3.006,3.0034,2.9893,2.9845,2.9379,2.8894,2.7931,2.7288,2.6863,2.5356,2.481,2.4374,2.3825,2.3945,2.4262,2.4599,2.4797,2.4968,2.5204,2.5178,2.5207,2.5316,2.5544,2.5701,2.5782,2.5679,2.5676,2.5848,2.6013,2.676,2.7418,2.6968,2.734,2.7987,2.7846,2.6539,2.6458,2.6975,2.6655,2.5978,2.563,2.5578,2.509,2.5321,2.5301,2.546,2.6437,2.7382,2.8314,2.9092,2.9124,2.916,2.8899,2.8775,2.8773,2.8919,2.9235,2.9393,2.9453,3.0057,1.273,1.244,1.2984,1.3234,1.3443,1.4387,1.5148,1.5735,1.6181,1.7131,1.8248,1.8545,1.9411,2.0497,2.0604,2.0793,2.1114,2.1102,2.086,2.0679,2.0597,2.0208,1.9909,2.0104,2.0311,2.0379,2.0481,2.0565,2.0715,2.0749,2.0863,2.0959,2.1054,2.1165,2.142,2.2229,2.3011,2.3767,2.4795,2.5798,2.6516,2.7161,2.7678,2.8,2.8633,2.9052,2.9293,2.9782,3.0026,3.0,3.0094,3.0109,3.0083,3.0109,3.0133,3.0123,3.0075,2.9764,2.9213,2.8883,2.8595,2.8204,2.7096,2.6167,2.6243,2.5072,2.4469,2.4255,2.4441,2.4669,2.5009,2.5195,2.5343,2.5464,2.5521,2.549,2.5552,2.5648,2.6066,2.7199,2.6891,2.6861,2.7159,2.7366,2.7555,2.779,2.7295,2.6591,2.7276,2.7276,2.6292,2.6611,2.6939,2.6666,2.6282,2.5884,2.5356,2.4503,2.4378,2.439,2.483,2.5651,2.6514,2.7394,2.8191,2.844,2.8828,2.8957,2.8952,2.885,2.9108,2.9314,2.9642,2.9834,3.0613,1.3565,1.3391,1.3721,1.4192,1.4709,1.5136,1.5565,1.6068,1.6368,1.6993,1.7787,1.8305,1.9095,2.012,2.0361,2.0745,2.1199,2.1325,2.1309,2.1276,2.1337,2.1103,2.0763,2.0828,2.0878,2.0942,2.1023,2.1086,2.1212,2.1442,2.1579,2.1579,2.1774,2.2015,2.2358,2.3112,2.4003,2.4837,2.5676,2.6418,2.6989,2.7474,2.7754,2.8037,2.8583,2.9097,2.9532,3.0205,3.0422,3.0204,3.0207,3.0247,3.0194,3.0286,3.0292,3.0228,3.0234,2.9964,2.9417,2.889,2.8572,2.8366,2.7131,2.7083,2.7345,2.627,2.5172,2.4946,2.4943,2.51,2.5323,2.5479,2.574,2.6122,2.6163,2.6021,2.5785,2.6341,2.709,2.7809,2.7851,2.7595,2.8163,2.8183,2.8154,2.7953,2.7284,2.6832,2.6734,2.6525,2.6502,2.6708,2.7289,2.7356,2.6747,2.6228,2.543,2.4551,2.3946,2.3862,2.4403,2.5121,2.591,2.6716,2.7332,2.7853,2.8209,2.8563,2.8738,2.8758,2.9072,2.9537,2.9943,3.0472,3.1242,1.4604,1.4644,1.4447,1.5189,1.6173,1.5804,1.6173,1.6885,1.6809,1.7267,1.8098,1.8595,1.9281,2.0224,2.0637,2.1037,2.1534,2.1966,2.1972,2.2102,2.2182,2.2045,2.1554,2.1479,2.1509,2.154,2.1628,2.1655,2.1698,2.1965,2.2152,2.2298,2.2451,2.2841,2.3448,2.4252,2.5057,2.5746,2.6493,2.6982,2.731,2.7642,2.7915,2.812,2.8713,2.9254,2.9812,3.0465,3.0727,3.0221,3.0398,3.0575,3.0513,3.0574,3.046,3.0409,3.0375,3.0294,3.0028,2.918,2.8692,2.8485,2.765,2.7794,2.8161,2.6982,2.5763,2.5356,2.5357,2.5399,2.5531,2.5696,2.6172,2.6755,2.7004,2.6832,2.6465,2.7282,2.8244,2.8418,2.8435,2.8348,2.8401,2.8307,2.8212,2.7931,2.7222,2.656,2.6304,2.6136,2.625,2.6507,2.7283,2.8274,2.7452,2.6578,2.5605,2.4684,2.4049,2.3858,2.428,2.4908,2.5543,2.6235,2.701,2.7311,2.7382,2.7755,2.8183,2.865,2.895,2.9739,3.0507,3.1136,3.1856,1.592,1.5796,1.6508,1.66,1.6395,1.6776,1.7215,1.7524,1.7123,1.7674,1.8658,1.8764,1.9317,2.0326,2.1182,2.1889,2.2534,2.3102,2.3424,2.318,2.3395,2.3089,2.2545,2.2265,2.2106,2.2135,2.2287,2.2409,2.249,2.2657,2.3075,2.3569,2.3464,2.3813,2.4597,2.5162,2.5706,2.6076,2.6742,2.7132,2.7324,2.7672,2.7982,2.8255,2.8883,2.9395,2.9717,3.0108,3.0295,3.0478,3.0964,3.132,3.1207,3.0839,3.0586,3.051,3.0463,3.0211,2.9583,2.9252,2.8767,2.8153,2.7073,2.6243,2.6963,2.642,2.569,2.5498,2.5516,2.5576,2.5779,2.6347,2.679,2.7227,2.7936,2.8324,2.7903,2.8017,2.8817,2.9591,2.9537,2.9405,2.9858,2.9166,2.8708,2.7999,2.7103,2.6239,2.5932,2.5777,2.6106,2.6437,2.7699,2.8595,2.8038,2.7011,2.5847,2.4983,2.431,2.4021,2.4444,2.4581,2.5178,2.5933,2.6743,2.686,2.6608,2.7309,2.7829,2.8329,2.889,2.9786,3.0658,3.1467,3.2016,1.7019,1.7384,1.7859,1.8027,1.8032,1.798,1.8223,1.852,1.7829,1.8181,1.9206,1.9469,1.9893,2.0491,2.1845,2.2752,2.3181,2.416,2.4562,2.4358,2.434,2.4005,2.3628,2.305,2.2712,2.2605,2.2712,2.2816,2.2937,2.3387,2.3797,2.4068,2.4299,2.4804,2.5372,2.5846,2.622,2.6722,2.7099,2.7386,2.7491,2.7771,2.8183,2.8572,2.9148,2.9551,2.9857,3.0418,3.077,3.106,3.1477,3.1612,3.1308,3.0913,3.0656,3.0618,3.0598,3.0416,2.9943,2.9484,2.9091,2.856,2.7069,2.6329,2.6091,2.571,2.5579,2.5564,2.5625,2.5761,2.626,2.6583,2.712,2.7992,2.8618,2.9117,2.9336,2.9381,2.961,3.0341,2.9894,2.9712,2.9648,2.9137,2.8307,2.7198,2.6734,2.5918,2.5565,2.5518,2.6068,2.673,2.8135,2.8765,2.8415,2.7475,2.6118,2.5312,2.4604,2.4552,2.4811,2.4782,2.4734,2.5428,2.608,2.5864,2.5803,2.6628,2.7498,2.804,2.8738,2.975,3.0478,3.0864,3.1408,1.8228,1.8983,1.8933,1.9371,1.9912,1.9067,1.9209,1.9834,1.8808,1.8972,1.9838,2.0552,2.0716,2.1337,2.2822,2.3506,2.4188,2.509,2.5905,2.5658,2.5437,2.501,2.4575,2.3916,2.3364,2.3012,2.3052,2.3052,2.3263,2.3932,2.4329,2.4274,2.4979,2.5652,2.6096,2.6224,2.6609,2.7278,2.7457,2.7659,2.7789,2.8091,2.85,2.8952,2.9314,2.9664,3.0018,3.0556,3.1155,3.1574,3.1668,3.1343,3.0944,3.0709,3.0711,3.0711,3.0691,3.0591,3.0423,2.9982,2.9545,2.9369,2.8005,2.6797,2.6172,2.5777,2.5583,2.5561,2.5609,2.5892,2.6789,2.7121,2.7775,2.8705,2.9168,2.9791,3.0433,3.0594,3.0144,2.9943,2.959,2.9431,2.8818,2.8193,2.73,2.6503,2.6077,2.5659,2.5295,2.5344,2.5875,2.654,2.7782,2.8677,2.8453,2.7537,2.625,2.5713,2.5008,2.5012,2.5226,2.5458,2.5371,2.4838,2.5051,2.512,2.5506,2.6336,2.7129,2.7714,2.8579,2.9574,3.0007,3.0229,3.0697,1.9926,1.9851,2.0354,2.0404,2.0075,2.0094,2.0359,2.0584,1.9726,2.0226,2.1435,2.1141,2.1626,2.271,2.3867,2.523,2.632,2.7164,2.7394,2.7047,2.6819,2.6381,2.5145,2.4699,2.4177,2.3723,2.3549,2.343,2.3519,2.4032,2.4794,2.5207,2.5675,2.6255,2.6813,2.6931,2.696,2.7474,2.76,2.7777,2.8053,2.8362,2.8676,2.9169,2.9454,2.9718,2.994,3.0175,3.0414,3.0675,3.0776,3.0806,3.0785,3.0762,3.0749,3.0753,3.072,3.0664,3.0604,3.0486,2.9955,2.9279,2.8391,2.7676,2.6947,2.6107,2.5659,2.5471,2.5544,2.5861,2.6669,2.7387,2.8198,2.9071,2.9831,3.0319,3.0399,2.9743,2.8771,2.8327,2.8539,2.8742,2.7934,2.7178,2.639,2.5773,2.5374,2.5067,2.476,2.5042,2.5629,2.6374,2.7226,2.7966,2.8451,2.7362,2.6289,2.6087,2.5613,2.5383,2.567,2.6242,2.6173,2.5685,2.5358,2.5449,2.5895,2.6475,2.7276,2.8254,2.8878,2.9464,2.9846,3.0171,2.9702,2.1199,2.1342,2.1561,2.1472,2.115,2.096,2.1167,2.1377,2.0441,2.0823,2.1862,2.201,2.2378,2.3573,2.4952,2.6335,2.7508,2.8264,2.8347,2.8153,2.7848,2.716,2.5829,2.54,2.4644,2.4076,2.3852,2.3938,2.4159,2.4811,2.5384,2.6016,2.6484,2.7013,2.7317,2.7195,2.731,2.7617,2.7777,2.7922,2.8237,2.8562,2.892,2.9188,2.9532,2.9786,2.9965,3.0147,3.0314,3.0527,3.0613,3.07,3.0757,3.0736,3.073,3.071,3.0677,3.063,3.0575,3.0486,3.0147,2.9783,2.8992,2.841,2.775,2.6854,2.5796,2.547,2.5944,2.6381,2.718,2.7914,2.8819,2.955,3.0181,3.0404,3.0083,2.8855,2.7687,2.6732,2.6963,2.7128,2.6835,2.6115,2.5465,2.5003,2.4683,2.4431,2.4229,2.4666,2.5262,2.5728,2.6481,2.7416,2.8069,2.758,2.6771,2.6495,2.6338,2.6126,2.625,2.6839,2.6915,2.6608,2.6368,2.634,2.674,2.7499,2.8172,2.8753,2.9404,2.9902,3.0021,2.999,2.9635,2.2382,2.2815,2.2665,2.2543,2.2409,2.2012,2.2069,2.2171,2.1354,2.1715,2.2798,2.2816,2.3131,2.4162,2.553,2.6891,2.7903,2.8507,2.8785,2.8791,2.8209,2.7458,2.6624,2.5792,2.4902,2.4067,2.3976,2.42,2.4436,2.5272,2.5932,2.6335,2.6993,2.7496,2.7465,2.7261,2.7478,2.7719,2.7904,2.8063,2.8362,2.8743,2.9093,2.9191,2.9588,2.9883,3.0037,3.0241,3.0424,3.0567,3.0682,3.074,3.0757,3.0648,3.06,3.0598,3.0555,3.0498,3.0384,3.0269,3.0117,2.9944,2.9276,2.8936,2.8507,2.7355,2.5939,2.5428,2.5623,2.6378,2.6979,2.8001,2.8785,2.9492,2.9889,3.0152,2.9746,2.8647,2.6838,2.6107,2.5853,2.568,2.564,2.5386,2.4776,2.4579,2.4266,2.4152,2.4014,2.4247,2.4711,2.5009,2.5687,2.679,2.7495,2.7918,2.7369,2.7139,2.7141,2.7083,2.7222,2.7512,2.7585,2.7893,2.7937,2.8001,2.827,2.8387,2.8804,2.9328,2.9939,3.0259,3.0267,3.0196,2.996,2.3869,2.3803,2.3764,2.3608,2.3435,2.3518,2.349,2.3359,2.2965,2.336,2.3928,2.3506,2.3713,2.4728,2.587,2.7109,2.7995,2.8608,2.8934,2.903,2.8352,2.7537,2.6682,2.5812,2.4922,2.4145,2.3976,2.3871,2.4199,2.5219,2.577,2.601,2.6836,2.7434,2.7448,2.7293,2.731,2.7617,2.7806,2.8083,2.8594,2.8952,2.916,2.9375,2.968,2.9962,3.0131,3.0351,3.0529,3.0653,3.0701,3.0702,3.0689,3.0508,3.0424,3.0344,3.0287,3.0203,3.0073,2.9956,2.9882,2.9674,2.9061,2.9071,2.8654,2.7475,2.5822,2.4869,2.5064,2.5427,2.6223,2.6881,2.7599,2.846,2.9281,2.9633,2.9548,2.84,2.6585,2.5713,2.5553,2.506,2.4746,2.4487,2.4173,2.4039,2.3899,2.3816,2.3786,2.3999,2.4136,2.441,2.518,2.6285,2.7206,2.7616,2.8003,2.7783,2.7907,2.8043,2.8419,2.8727,2.9232,2.9452,2.9536,2.9482,2.9508,2.9541,2.9538,2.9902,3.0544,3.0575,3.0398,3.0314,3.0271,2.5691,2.5064,2.4964,2.4689,2.4399,2.448,2.4323,2.4024,2.3802,2.4014,2.4365,2.418,2.4416,2.513,2.616,2.6879,2.7609,2.8458,2.9003,2.8997,2.8394,2.7598,2.6723,2.5852,2.4963,2.4273,2.3976,2.3912,2.418,2.4723,2.5387,2.6143,2.6615,2.7108,2.7374,2.7386,2.7526,2.7736,2.8007,2.837,2.8791,2.9044,2.9203,2.9454,2.9763,2.9984,3.0152,3.0414,3.0581,3.0696,3.07,3.0662,3.0555,3.0347,3.0138,2.9897,2.9758,2.9727,2.9725,2.955,2.9438,2.9342,2.8967,2.8817,2.8426,2.7084,2.569,2.5023,2.5522,2.5689,2.58,2.694,2.7393,2.8,2.8525,2.8926,2.8901,2.7803,2.6583,2.5879,2.5212,2.4841,2.4436,2.4187,2.3949,2.3689,2.3602,2.3576,2.3508,2.3575,2.3695,2.3815,2.4771,2.5895,2.6808,2.752,2.8456,2.8535,2.871,2.8989,2.9636,3.0094,3.0453,3.0976,3.1267,3.1153,3.0829,3.0513,3.0343,3.0706,3.116,3.1253,3.1272,3.0692,3.082,2.7612,2.6572,2.6347,2.6171,2.6032,2.5956,2.5621,2.5068,2.499,2.4926,2.4805,2.4733,2.4824,2.5243,2.6009,2.6627,2.6925,2.8202,2.88,2.8758,2.831,2.7647,2.6884,2.6051,2.5051,2.4306,2.4028,2.4034,2.4274,2.4631,2.5332,2.6135,2.6412,2.6755,2.7198,2.7495,2.7689,2.7957,2.8219,2.8467,2.8682,2.9023,2.9016,2.9213,2.9577,2.9997,2.996,3.0413,3.0652,3.0684,3.0678,3.0594,3.0421,3.0217,2.9942,2.9676,2.9438,2.9279,2.926,2.9153,2.9016,2.8915,2.864,2.8162,2.7365,2.6161,2.5168,2.4689,2.5102,2.5207,2.5474,2.6675,2.7091,2.7309,2.7709,2.8126,2.834,2.7494,2.6865,2.6353,2.5656,2.4935,2.4515,2.4123,2.3784,2.3401,2.3295,2.3289,2.3313,2.3313,2.3626,2.3839,2.4878,2.596,2.682,2.7676,2.8562,2.9208,2.9397,2.9783,3.0314,3.092,3.1355,3.1994,3.2609,3.2276,3.1676,3.1383,3.1167,3.1646,3.2073,3.2347,3.2224,3.1621,3.1768,2.9442,2.8496,2.8056,2.8169,2.8642,2.8598,2.7888,2.6834,2.6928,2.6405,2.564,2.5133,2.468,2.4864,2.5541,2.626,2.6774,2.7853,2.8478,2.8542,2.8105,2.7691,2.7065,2.6197,2.5233,2.4925,2.4563,2.4538,2.4721,2.5063,2.4933,2.4696,2.6189,2.6546,2.701,2.7566,2.7943,2.8219,2.8466,2.8306,2.8445,2.866,2.8765,2.8244,2.9102,2.9902,2.935,3.0073,3.0509,3.0525,3.0602,3.0494,3.0285,3.0106,2.9829,2.9495,2.9193,2.9016,2.8855,2.885,2.8815,2.85,2.8112,2.7591,2.6799,2.579,2.4838,2.418,2.449,2.4361,2.4647,2.5308,2.6154,2.6292,2.6683,2.7425,2.7648,2.7542,2.6968,2.6667,2.6087,2.5236,2.4658,2.4265,2.3967,2.364,2.3241,2.3223,2.3154,2.3221,2.3766,2.4275,2.5258,2.6236,2.7157,2.7967,2.8769,2.9396,2.9755,3.0234,3.0823,3.1447,3.224,3.2638,3.3107,3.2835,3.2708,3.2699,3.2716,3.2776,3.2986,3.3166,3.3364,3.3053,3.3577,2.9717,2.9807,2.9953,2.9674,2.9141,2.8972,2.8457,2.7759,2.7334,2.6807,2.609,2.5046,2.4413,2.4536,2.4966,2.5484,2.5971,2.7692,2.8296,2.8366,2.8015,2.7707,2.7196,2.6684,2.5969,2.583,2.5521,2.5463,2.5804,2.5863,2.571,2.5877,2.6593,2.7049,2.7508,2.7832,2.8237,2.8533,2.8658,2.8544,2.8329,2.8428,2.8412,2.7785,2.8076,2.8675,2.8618,2.9455,2.9783,3.0025,3.0339,3.0317,3.0164,2.9988,2.9677,2.9318,2.9016,2.8797,2.8543,2.851,2.8432,2.8422,2.8116,2.7594,2.6693,2.6009,2.513,2.4492,2.3975,2.3956,2.3517,2.4435,2.5286,2.5126,2.5601,2.6557,2.7009,2.7051,2.6825,2.6455,2.6017,2.5389,2.489,2.4426,2.416,2.3871,2.3488,2.3165,2.3067,2.3117,2.3638,2.4825,2.5904,2.6645,2.7525,2.8251,2.8934,2.9547,3.0113,3.0796,3.1478,3.2406,3.3126,3.3449,3.3734,3.3789,3.3914,3.4146,3.4087,3.3772,3.3761,3.3901,3.4095,3.4244,3.4699,3.0075,3.0443,3.1481,3.1268,3.0233,3.0016,2.9518,2.8778,2.8042,2.7208,2.6556,2.5428,2.4792,2.4835,2.5381,2.5605,2.6177,2.7415,2.8174,2.8229,2.7943,2.7783,2.746,2.684,2.6111,2.6502,2.6246,2.6038,2.6772,2.6794,2.6932,2.7149,2.7368,2.7769,2.7656,2.828,2.8615,2.879,2.8946,2.8604,2.8163,2.8372,2.7804,2.7301,2.7575,2.788,2.8006,2.8551,2.9189,2.9483,2.978,3.0051,2.9994,2.9851,2.9551,2.9191,2.8915,2.8694,2.8406,2.8264,2.8237,2.8291,2.7924,2.7538,2.6992,2.6118,2.4846,2.3992,2.3854,2.3692,2.2962,2.3988,2.4861,2.494,2.534,2.6156,2.6652,2.6808,2.6504,2.6156,2.5794,2.5494,2.5186,2.4718,2.4265,2.3914,2.3331,2.3076,2.3056,2.3158,2.3441,2.4884,2.665,2.7294,2.7949,2.8518,2.914,2.9968,3.0631,3.1483,3.2262,3.3175,3.384,3.4147,3.4452,3.4813,3.4812,3.4618,3.4549,3.4473,3.447,3.4454,3.4619,3.4745,3.4786,3.0677,3.0251,3.2298,3.2847,3.2166,3.211,3.1462,3.0442,2.9302,2.8211,2.7206,2.6619,2.6063,2.5836,2.6341,2.645,2.6475,2.7502,2.8183,2.8106,2.7647,2.7936,2.7601,2.6877,2.6297,2.6832,2.6498,2.6417,2.7578,2.7573,2.8037,2.8533,2.8572,2.833,2.7464,2.8264,2.88,2.8934,2.9258,2.8651,2.7929,2.8208,2.7486,2.6552,2.6903,2.7253,2.7198,2.769,2.8303,2.8754,2.9139,2.943,2.9628,2.9784,2.9532,2.8984,2.891,2.8644,2.8264,2.8209,2.8219,2.8201,2.7835,2.7396,2.6724,2.5651,2.4491,2.3864,2.335,2.3432,2.348,2.3807,2.4411,2.4921,2.5317,2.5675,2.6167,2.6607,2.6312,2.6063,2.5844,2.5615,2.5389,2.5051,2.4495,2.3925,2.3243,2.2986,2.3013,2.3056,2.3241,2.5162,2.705,2.7759,2.8311,2.8718,2.9342,3.0231,3.1147,3.2083,3.2879,3.3658,3.4271,3.4691,3.4809,3.483,3.4869,3.487,3.4736,3.4655,3.4859,3.4933,3.5102,3.52,3.5207,3.0262,3.0079,3.1383,3.2147,3.2418,3.2641,3.239,3.1691,3.0086,2.8871,2.8137,2.7099,2.6261,2.6186,2.6394,2.6678,2.6656,2.7041,2.7615,2.7594,2.718,2.7424,2.7323,2.6988,2.6643,2.7196,2.6799,2.6604,2.7864,2.7985,2.8567,2.9126,2.9254,2.8938,2.8613,2.8901,2.9169,2.9437,2.9528,2.9137,2.7828,2.7904,2.7401,2.5602,2.6217,2.639,2.6229,2.6897,2.7354,2.7818,2.8198,2.8836,2.911,2.932,2.9377,2.8984,2.8863,2.8569,2.8273,2.8164,2.8191,2.8066,2.7978,2.7718,2.7609,2.6213,2.5022,2.4023,2.3422,2.3537,2.3619,2.3781,2.4236,2.47,2.5082,2.5372,2.5763,2.6184,2.626,2.6063,2.5844,2.5259,2.4934,2.4632,2.4143,2.3983,2.342,2.3144,2.3114,2.2874,2.2983,2.5394,2.7262,2.8056,2.8717,2.9186,2.9881,3.081,3.1818,3.2826,3.3583,3.4148,3.4417,3.4708,3.4747,3.4747,3.4769,3.481,3.4771,3.4773,3.4851,3.4889,3.4889,3.5192,3.5533,3.0114,3.018,3.0971,3.1575,3.2084,3.2516,3.2548,3.2035,3.0675,2.9871,2.9394,2.8029,2.7285,2.7168,2.7,2.6981,2.6999,2.7424,2.7446,2.7387,2.715,2.7449,2.7445,2.6956,2.6942,2.735,2.7039,2.6764,2.7582,2.7995,2.8651,2.9307,2.9589,2.9438,2.9282,2.9379,2.9514,2.9748,2.9825,2.9347,2.8317,2.776,2.7226,2.6057,2.5673,2.5643,2.5781,2.6009,2.6357,2.6757,2.7324,2.816,2.8431,2.8764,2.8992,2.8851,2.8619,2.8335,2.8126,2.8219,2.8201,2.8083,2.8246,2.8049,2.7719,2.6535,2.5659,2.4787,2.4025,2.4033,2.4202,2.4261,2.4459,2.4985,2.5232,2.5539,2.5815,2.625,2.6087,2.5888,2.5486,2.4948,2.4366,2.4006,2.3629,2.3612,2.36,2.3439,2.3338,2.322,2.343,2.5634,2.7538,2.8378,2.9112,2.9692,3.0485,3.1402,3.2275,3.3168,3.3928,3.444,3.4572,3.4687,3.4749,3.4769,3.4728,3.4708,3.4668,3.4647,3.4628,3.4649,3.4666,3.4994,3.5417,3.0285,3.0369,3.1103,3.1346,3.1445,3.2109,3.2189,3.1844,3.1495,3.1206,3.0939,2.9715,2.8987,2.8858,2.8401,2.8063,2.7877,2.8216,2.7852,2.7619,2.7321,2.7656,2.7375,2.673,2.7009,2.714,2.6991,2.6727,2.7158,2.8239,2.9062,2.9493,2.9805,2.9801,2.9799,2.9813,2.988,3.0032,3.0113,2.9399,2.833,2.7993,2.7144,2.6146,2.5602,2.5603,2.5613,2.5602,2.5867,2.6135,2.6384,2.7138,2.773,2.8222,2.8421,2.8512,2.8344,2.8154,2.8042,2.8219,2.8246,2.8191,2.8246,2.7566,2.712,2.6861,2.6337,2.5637,2.4968,2.5098,2.5199,2.5201,2.5197,2.549,2.5705,2.5948,2.6185,2.6195,2.5898,2.5538,2.5061,2.4493,2.3873,2.3437,2.3575,2.3644,2.38,2.4032,2.4014,2.4087,2.4586,2.6074,2.768,2.8727,2.9398,2.9868,3.0808,3.1669,3.2272,3.3088,3.3909,3.4615,3.4672,3.473,3.4772,3.4752,3.4689,3.4645,3.4561,3.4539,3.4539,3.4561,3.4602,3.4661,3.5101,2.8929,2.9463,2.9697,3.0387,3.1482,3.2654,3.3347,3.3496,3.2778,3.2279,3.2088,3.1011,3.0198,2.9521,2.9341,2.8847,2.837,2.7879,2.7307,2.7127,2.7211,2.7286,2.7214,2.7058,2.7219,2.7288,2.7223,2.6975,2.7623,2.8688,2.9504,2.9953,3.0045,3.0128,3.0177,3.0222,3.0234,3.0251,3.0414,2.9482,2.8529,2.8138,2.7082,2.6131,2.5615,2.5605,2.5537,2.5376,2.5534,2.5546,2.5896,2.6411,2.6317,2.7418,2.8209,2.8615,2.8458,2.8237,2.8209,2.8246,2.8246,2.8191,2.8219,2.8093,2.767,2.7346,2.7032,2.6409,2.5823,2.5767,2.5872,2.5915,2.5956,2.6124,2.62,2.6202,2.6282,2.587,2.5537,2.4936,2.4455,2.4147,2.3499,2.3585,2.3759,2.3802,2.4,2.438,2.4561,2.4618,2.5442,2.686,2.7788,2.8753,2.9277,2.9727,3.0853,3.1877,3.2596,3.3339,3.422,3.4772,3.4791,3.4771,3.4751,3.471,3.4645,3.458,3.4536,3.451,3.451,3.4514,3.4558,3.4617,3.4772,2.8202,2.8593,2.864,2.9506,3.0986,3.2445,3.3445,3.3836,3.3645,3.343,3.3161,3.19,3.1016,3.0421,2.9783,2.9107,2.8565,2.7966,2.7354,2.6974,2.7116,2.727,2.7387,2.7648,2.7915,2.7875,2.7657,2.7409,2.7987,2.8842,2.9702,3.0226,3.0311,3.0364,3.0392,3.0424,3.0472,3.0488,3.0319,2.9547,2.8805,2.8117,2.7127,2.6013,2.5632,2.5586,2.5543,2.5348,2.5235,2.5149,2.5499,2.5576,2.5782,2.6979,2.772,2.808,2.8254,2.812,2.8091,2.8136,2.8109,2.8109,2.8146,2.8101,2.7915,2.7601,2.7368,2.6965,2.6545,2.6254,2.6424,2.6578,2.6664,2.6757,2.659,2.6401,2.599,2.5527,2.4964,2.4301,2.3957,2.3732,2.3639,2.3809,2.4004,2.4229,2.4617,2.5112,2.5111,2.4966,2.5941,2.7326,2.8031,2.8742,2.9186,2.9774,3.0936,3.2163,3.3381,3.4105,3.4755,3.4888,3.4831,3.479,3.4708,3.4645,3.458,3.4577,3.4551,3.4539,3.4582,3.4661,3.4633,3.4536,3.4792,2.7721,2.7816,2.7864,2.872,3.0102,3.1482,3.2467,3.3269,3.3851,3.4389,3.3994,3.2765,3.1964,3.1335,3.0383,2.9499,2.8971,2.8371,2.7832,2.712,2.8035,2.8212,2.8032,2.8369,2.8712,2.8586,2.844,2.8396,2.8267,2.9013,2.9925,3.0383,3.046,3.0511,3.0535,3.0579,3.0626,3.0647,3.0447,2.9877,2.8668,2.7983,2.7417,2.5955,2.5587,2.5577,2.5488,2.5359,2.5235,2.5072,2.4983,2.5105,2.5764,2.6365,2.6903,2.7432,2.7762,2.795,2.7964,2.8007,2.7922,2.7933,2.8045,2.7915,2.773,2.7719,2.7514,2.736,2.6926,2.6736,2.6851,2.6681,2.6656,2.659,2.6383,2.6225,2.5875,2.5245,2.4365,2.3888,2.3739,2.3568,2.3833,2.4018,2.4623,2.4798,2.5205,2.5799,2.5762,2.5482,2.632,2.7653,2.8183,2.8721,2.9217,2.9931,3.1073,3.2315,3.3496,3.4391,3.4735,3.4831,3.487,3.4771,3.4708,3.4602,3.4536,3.4532,3.4577,3.4716,3.4779,3.4853,3.4796,3.4643,3.4437,2.6399,2.7046,2.7542,2.8294,2.9159,3.0023,3.0884,3.1619,3.2486,3.3556,3.4298,3.3992,3.3147,3.1984,3.1383,3.0536,2.9446,2.8907,2.8595,2.839,2.887,2.884,2.8782,2.9289,2.9538,2.9448,2.9413,2.9586,2.9589,2.9929,3.0172,3.0443,3.0548,3.0595,3.0658,3.0701,3.0732,3.076,3.062,2.9902,2.8593,2.8014,2.741,2.6179,2.5602,2.5524,2.5456,2.5369,2.5264,2.5145,2.4961,2.5105,2.5466,2.5625,2.6245,2.7024,2.7261,2.7549,2.7776,2.7776,2.773,2.7683,2.7683,2.7535,2.7474,2.7582,2.7582,2.7478,2.7373,2.723,2.7053,2.6791,2.6572,2.6365,2.6189,2.5974,2.5775,2.4841,2.3899,2.3739,2.3595,2.3759,2.4018,2.4515,2.5083,2.5566,2.6011,2.6371,2.6315,2.6165,2.6596,2.7639,2.8165,2.8692,2.9186,2.9697,3.0624,3.1675,3.276,3.371,3.464,3.4733,3.4751,3.4749,3.4706,3.458,3.4495,3.445,3.4545,3.4785,3.4884,3.4902,3.4955,3.4858,3.4356,2.4551,2.5144,2.6186,2.7268,2.837,2.9406,3.0328,3.1221,3.2392,3.3393,3.4074,3.3866,3.3337,3.2543,3.2127,3.1448,3.0095,2.9343,2.8865,2.8831,2.9099,2.9107,2.9455,2.9944,3.004,3.0027,3.024,3.0443,3.053,3.0557,3.0563,3.0595,3.0639,3.0695,3.0755,3.0771,3.0788,3.08,3.0796,3.0029,2.8756,2.8298,2.7595,2.6436,2.5802,2.565,2.5421,2.5351,2.5253,2.508,2.4861,2.4703,2.4874,2.5035,2.5421,2.6075,2.654,2.7014,2.7293,2.742,2.7417,2.7344,2.7352,2.7213,2.7213,2.7276,2.7227,2.7117,2.7038,2.6891,2.6758,2.6521,2.6435,2.6277,2.6046,2.5828,2.5373,2.4654,2.4306,2.4372,2.4239,2.4097,2.4433,2.4986,2.5508,2.5822,2.6349,2.6691,2.6684,2.6599,2.7128,2.7543,2.7986,2.8442,2.8895,2.9292,2.9835,3.0924,3.2119,3.3271,3.4273,3.4494,3.4623,3.4666,3.4645,3.4558,3.4473,3.4404,3.4654,3.4969,3.4955,3.4911,3.4998,3.5064,3.4834,2.2963,2.3118,2.4534,2.5964,2.742,2.8965,3.0079,3.1037,3.2631,3.3443,3.3606,3.3137,3.3287,3.3061,3.2333,3.1726,3.0933,2.9848,2.9203,2.9121,2.9251,2.9486,2.9775,3.0092,3.0269,3.0405,3.0539,3.0585,3.0629,3.0649,3.0685,3.0734,3.075,3.0801,3.0801,3.0793,3.08,3.0799,3.0708,3.0401,2.9593,2.8793,2.7937,2.7032,2.6296,2.5835,2.5734,2.5678,2.5608,2.5163,2.4946,2.4599,2.4506,2.462,2.4809,2.5296,2.576,2.6073,2.6341,2.668,2.6785,2.6865,2.6888,2.6923,2.6889,2.6858,2.6825,2.6758,2.6691,2.6624,2.6487,2.6365,2.6277,2.6151,2.5917,2.5733,2.5126,2.4621,2.4735,2.4902,2.4743,2.4576,2.4926,2.5481,2.5754,2.6082,2.64,2.6725,2.692,2.6847,2.704,2.7321,2.7602,2.8052,2.8628,2.902,2.9474,3.0501,3.1734,3.2959,3.3942,3.4314,3.4539,3.4623,3.4602,3.4514,3.4404,3.4316,3.4655,3.4911,3.4718,3.461,3.5082,3.5206,3.5357,2.2878,2.2906,2.3842,2.4809,2.5855,2.7374,2.8489,2.9546,3.1184,3.2203,3.3092,3.3728,3.3978,3.3938,3.3058,3.2325,3.1506,3.0368,3.012,3.0112,2.9956,3.0078,3.022,3.0356,3.053,3.0585,3.0618,3.0626,3.0678,3.0704,3.072,3.0774,3.0785,3.0786,3.08,3.0801,3.0797,3.0784,3.0785,3.0598,3.0341,2.9563,2.8754,2.8105,2.7644,2.7497,2.7431,2.7422,2.6946,2.6235,2.5384,2.4792,2.4413,2.4334,2.4439,2.4538,2.4984,2.5111,2.5403,2.5811,2.5982,2.5895,2.5982,2.6353,2.637,2.6435,2.64,2.64,2.6365,2.6453,2.6365,2.6258,2.6168,2.6043,2.5807,2.5733,2.54,2.5201,2.5128,2.5192,2.5144,2.5163,2.5368,2.5717,2.5917,2.6241,2.6589,2.6892,2.6989,2.6982,2.7023,2.7123,2.7264,2.7951,2.8646,2.8887,2.937,3.0339,3.1381,3.2702,3.368,3.4244,3.4454,3.458,3.4558,3.445,3.4358,3.4293,3.4222,3.4375,3.4168,3.4209,3.4786,3.5399,3.5636]}]]